[[{"header":{"parameterUnit":"m.s-1","parameterCategory":1,"la1":30.6,"la2":28.766,"lo1":-90.7593,"lo2":-88.6598,"dy":0.0162,"dx":0.0183,"nx":116,"ny":114,"refTime":"2024-03-02T18:00:00:Z","depth":0,"parameterNumber":2,"parameterNumberName":"U-component_of_WINDS"},"data":[0.0,0.0,0.0,0.0,0.0,0.0,0.0,0.0,0.0,0.0,0.0,0.0,0.0,0.0,0.0,0.0,0.0,0.0,0.0,0.0,0.0,0.0,0.0,0.0,0.0,0.0,0.0,0.0,0.0,0.0,0.0,0.0,0.0,0.0,0.0,0.0,0.0,0.0,0.0,0.0,0.0,0.0,0.0,0.0,0.0,0.0,0.0,0.0,0.0,0.0,0.0,0.0,0.0,0.0,0.0,0.0,0.0,0.0,0.0,0.0,0.0,0.0,0.0,0.0,0.0,0.0,0.0,0.0,0.0,0.0,0.0,0.0,0.0,0.0,0.0,0.0,0.0,0.0,0.0,0.0,0.0,0.0,0.0,0.0,0.0,0.0,0.0,0.0,0.0,0.0,0.0,0.0,0.0,0.0,0.0,0.0,0.0,0.0,0.0,0.0,0.0,0.0,0.0,0.0,0.0,0.0,0.0,0.0,0.0,0.0,0.0,0.0,0.0,0.0,0.0,0.0,0.0,0.0,0.0,0.0,0.0,0.0,0.0,0.0,0.0,0.0,0.0,0.0,0.0,0.0,0.0,0.0,0.0,0.0,0.0,0.0,0.0,0.0,0.0,0.0,0.0,0.0,0.0,0.0,0.0,0.0,0.0,0.0,0.0,0.0,0.0,0.0,0.0,0.0,0.0,0.0,0.0,0.0,0.0,0.0,0.0,0.0,0.0,0.0,0.0,0.0,0.0,0.0,0.0,0.0,0.0,0.0,0.0,0.0,0.0,0.0,0.0,0.0,0.0,0.0,0.0,0.0,0.0,0.0,0.0,0.0,0.0,0.0,0.0,0.0,0.0,0.0,0.0,0.0,0.0,0.0,0.0,0.0,0.0,0.0,0.0,0.0,0.0,0.0,0.0,0.0,0.0,0.0,0.0,0.0,0.0,0.0,0.0,0.0,0.0,0.0,0.0,0.0,0.0,0.0,0.0,0.0,0.0,0.0,0.0,0.0,0.0,0.0,0.0,0.0,0.0,0.0,0.0,0.0,0.0,0.0,0.0,0.0,0.0,0.0,0.0,0.0,0.0,0.0,0.0,0.0,0.0,0.0,0.0,0.0,0.0,0.0,0.0,0.0,0.0,0.0,0.0,0.0,0.0,0.0,0.0,0.0,0.0,0.0,0.0,0.0,0.0,0.0,0.0,0.0,0.0,0.0,0.0,0.0,0.0,0.0,0.0,0.0,0.0,0.0,0.0,0.0,0.0,0.0,0.0,0.0,0.0,0.0,0.0,0.0,0.0,0.0,0.0,0.0,0.0,0.0,0.0,0.0,0.0,0.0,0.0,0.0,0.0,0.0,0.0,0.0,0.0,0.0,0.0,0.0,0.0,0.0,0.0,0.0,0.0,0.0,0.0,0.0,0.0,0.0,0.0,0.0,0.0,0.0,0.0,0.0,0.0,0.0,0.0,0.0,0.0,0.0,0.0,0.0,0.0,0.0,0.0,0.0,0.0,0.0,0.0,0.0,0.0,0.0,0.0,0.0,0.0,0.0,0.0,0.0,0.0,0.0,0.0,0.0,0.0,0.0,0.0,0.0,0.0,0.0,0.0,0.0,0.0,0.0,0.0,0.0,0.0,0.0,0.0,0.0,0.0,0.0,0.0,0.0,0.0,0.0,0.0,0.0,0.0,0.0,0.0,0.0,0.0,0.0,0.0,0.0,0.0,0.0,0.0,0.0,0.0,0.0,0.0,0.0,0.0,0.0,0.0,0.0,0.0,0.0,0.0,0.0,0.0,0.0,0.0,0.0,0.0,0.0,0.0,0.0,0.0,0.0,0.0,0.0,0.0,0.0,0.0,0.0,0.0,0.0,0.0,0.0,0.0,0.0,0.0,0.0,0.0,0.0,0.0,0.0,0.0,0.0,0.0,0.0,0.0,0.0,0.0,0.0,0.0,0.0,0.0,0.0,0.0,0.0,0.0,0.0,0.0,0.0,0.0,0.0,0.0,0.0,0.0,0.0,0.0,0.0,0.0,0.0,0.0,0.0,0.0,0.0,0.0,0.0,0.0,0.0,0.0,0.0,0.0,0.0,0.0,0.0,0.0,0.0,0.0,0.0,0.0,0.0,0.0,0.0,0.0,0.0,0.0,0.0,0.0,0.0,0.0,0.0,0.0,0.0,0.0,0.0,0.0,0.0,0.0,0.0,0.0,0.0,0.0,0.0,0.0,0.0,0.0,0.0,0.0,0.0,0.0,0.0,0.0,0.0,0.0,0.0,0.0,0.0,0.0,0.0,0.0,0.0,0.0,0.0,0.0,0.0,0.0,0.0,0.0,0.0,0.0,0.0,0.0,0.0,0.0,0.0,0.0,0.0,0.0,0.0,0.0,0.0,0.0,0.0,0.0,0.0,0.0,0.0,0.0,0.0,0.0,0.0,0.0,0.0,0.0,0.0,0.0,0.0,0.0,0.0,0.0,0.0,0.0,0.0,0.0,0.0,0.0,0.0,0.0,0.0,0.0,0.0,0.0,0.0,0.0,0.0,0.0,0.0,0.0,0.0,0.0,0.0,0.0,0.0,0.0,0.0,0.0,0.0,0.0,0.0,0.0,0.0,0.0,0.0,0.0,0.0,0.0,0.0,0.0,0.0,0.0,0.0,0.0,0.0,0.0,0.0,0.0,0.0,0.0,0.0,0.0,0.0,0.0,0.0,0.0,0.0,0.0,0.0,0.0,0.0,0.0,0.0,0.0,0.0,0.0,0.0,0.0,0.0,0.0,0.0,0.0,0.0,0.0,0.0,0.0,0.0,0.0,0.0,0.0,0.0,0.0,0.0,0.0,0.0,0.0,0.0,0.0,0.0,0.0,0.0,0.0,0.0,0.0,0.0,0.0,0.0,0.0,0.0,0.0,0.0,0.0,0.0,0.0,0.0,0.0,0.0,0.0,0.0,0.0,0.0,0.0,0.0,0.0,0.0,0.0,0.0,0.0,0.0,0.0,0.0,0.0,0.0,0.0,0.0,0.0,0.0,0.0,0.0,0.0,0.0,0.0,0.0,0.0,0.0,0.0,0.0,0.0,0.0,0.0,0.0,0.0,0.0,0.0,0.0,0.0,0.0,0.0,0.0,0.0,0.0,0.0,0.0,0.0,0.0,0.0,0.0,0.0,0.0,0.0,0.0,0.0,0.0,0.0,0.0,0.0,0.0,0.0,0.0,0.0,0.0,0.0,0.0,0.0,0.0,0.0,0.0,0.0,0.0,0.0,0.0,0.0,0.0,0.0,0.0,0.0,0.0,0.0,0.0,0.0,0.0,0.0,0.0,0.0,0.0,0.0,0.0,0.0,0.0,0.0,0.0,0.0,0.0,0.0,0.0,0.0,0.0,0.0,0.0,0.0,0.0,0.0,0.0,0.0,0.0,0.0,0.0,0.0,0.0,0.0,0.0,0.0,0.0,0.0,0.0,0.0,0.0,0.0,0.0,0.0,0.0,0.0,0.0,0.0,0.0,0.0,0.0,0.0,0.0,0.0,0.0,0.0,0.0,0.0,0.0,0.0,0.0,0.0,0.0,0.0,0.0,0.0,0.0,0.0,0.0,0.0,0.0,0.0,0.0,0.0,0.0,0.0,0.0,0.0,0.0,0.0,0.0,0.0,0.0,0.0,0.0,0.0,0.0,0.0,0.0,0.0,0.0,0.0,0.0,0.0,0.0,0.0,0.0,0.0,0.0,0.0,0.0,0.0,0.0,0.0,0.0,0.0,0.0,0.0,0.0,0.0,0.0,0.0,0.0,0.0,0.0,0.0,0.0,0.0,0.0,0.0,0.0,0.0,0.0,0.0,0.0,0.0,0.0,0.0,0.0,0.0,0.0,0.0,0.0,0.0,0.0,0.0,0.0,0.0,0.0,0.0,0.0,0.0,0.0,0.0,0.0,0.0,0.0,0.0,0.0,0.0,0.0,0.0,0.0,0.0,0.0,0.0,0.0,0.0,0.0,0.0,0.0,0.0,0.0,0.0,0.0,0.0,0.0,0.0,0.0,0.0,0.0,0.0,0.0,0.0,0.0,0.0,0.0,0.0,0.0,0.0,0.0,0.0,0.0,0.0,0.0,0.0,0.0,0.0,0.0,0.0,0.0,0.0,0.0,0.0,0.0,0.0,0.0,0.0,0.0,0.0,0.0,0.0,0.0,0.0,0.0,0.0,0.0,0.0,0.0,0.0,0.0,0.0,0.0,0.0,0.0,0.0,0.0,0.0,0.0,0.0,0.0,0.0,0.0,0.0,0.0,0.0,0.0,0.0,0.0,0.0,0.0,0.0,0.0,0.0,0.0,0.0,0.0,0.0,0.0,0.0,0.0,0.0,0.0,0.0,0.0,0.0,0.0,0.0,0.0,0.0,0.0,0.0,0.0,0.0,0.0,0.0,0.0,0.0,0.0,0.0,0.0,0.0,0.0,0.0,0.0,0.0,0.0,0.0,0.0,0.0,0.0,0.0,0.0,0.0,0.0,0.0,0.0,0.0,0.0,0.0,0.0,0.0,0.0,0.0,0.0,0.0,0.0,0.0,0.0,0.0,0.0,0.0,0.0,0.0,0.0,0.0,0.0,0.0,0.0,0.0,0.0,0.0,0.0,0.0,0.0,0.0,0.0,0.0,0.0,0.0,0.0,0.0,0.0,0.0,0.0,0.0,0.0,0.0,0.0,0.0,0.0,0.0,0.0,0.0,0.0,0.0,0.0,0.0,0.0,0.0,0.0,0.0,0.0,0.0,0.0,0.0,0.0,0.0,0.0,0.0,0.0,0.0,0.0,0.0,0.0,0.0,0.0,0.0,0.0,0.0,0.0,0.0,0.0,0.0,0.0,0.0,0.0,0.0,0.0,0.0,0.0,0.0,0.0,0.0,0.0,0.0,0.0,0.0,0.0,0.0,0.0,0.0,0.0,0.0,0.0,0.0,0.0,0.0,0.0,0.0,0.0,0.0,0.0,0.0,0.0,0.0,0.0,0.0,0.0,0.0,0.0,0.0,0.0,0.0,0.0,0.0,0.0,0.0,0.0,0.0,0.0,0.0,0.0,0.0,0.0,0.0,0.0,0.0,0.0,0.0,0.0,0.0,0.0,0.0,0.0,0.0,0.0,0.0,0.0,0.0,0.0,0.0,0.0,0.0,0.0,0.0,0.0,0.0,0.0,0.0,0.0,0.0,0.0,0.0,0.0,0.0,0.0,0.0,0.0,0.0,0.0,0.0,0.0,0.0,0.0,0.0,0.0,0.0,0.0,0.0,0.0,0.0,0.0,0.0,0.0,0.0,0.0,0.0,0.0,0.0,0.0,0.0,0.0,0.0,0.0,0.0,0.0,0.0,0.0,0.0,0.0,0.0,0.0,0.0,0.0,0.0,0.0,0.0,0.0,0.0,0.0,0.0,0.0,0.0,0.0,0.0,0.0,0.0,0.0,0.0,0.0,0.0,0.0,0.0,0.0,0.0,0.0,0.0,0.0,0.0,0.0,0.0,0.0,0.0,0.0,0.0,0.0,0.0,0.0,0.0,0.0,0.0,0.0,0.0,0.0,0.0,0.0,0.0,0.0,0.0,0.0,0.0,0.0,0.0,0.0,0.0,0.0,0.0,0.0,0.0,0.0,0.0,0.0,0.0,0.0,0.0,0.0,0.0,0.0,0.0,0.0,0.0,0.0,0.0,0.0,0.0,0.0,0.0,0.0,0.0,0.0,0.0,0.0,0.0,0.0,0.0,0.0,0.0,0.0,0.0,0.0,0.0,0.0,0.0,0.0,0.0,0.0,0.0,0.0,0.0,0.0,0.0,0.0,0.0,0.0,0.0,0.0,0.0,0.0,0.0,0.0,0.0,0.0,0.0,0.0,0.0,0.0,0.0,0.0,0.0,0.0,0.0,0.0,0.0,0.0,0.0,0.0,0.0,0.0,0.0,0.0,0.0,0.0,0.0,0.0,0.0,0.0,0.0,0.0,0.0,0.0,0.0,0.0,0.0,0.0,0.0,0.0,0.0,0.0,0.0,0.0,0.0,0.0,0.0,0.0,0.0,0.0,0.0,0.0,0.0,0.0,0.0,0.0,0.0,0.0,0.0,0.0,0.0,0.0,-0.5382,0.0,0.0,0.0,0.0,0.0,0.0,0.0,0.0,0.0,0.0,0.0,0.0,0.0,0.0,0.0,0.0,0.0,0.0,0.0,0.0,0.0,0.0,0.0,0.0,0.0,0.0,0.0,-0.5429,-0.5429,-0.5429,-0.5224,0.0,0.0,0.0,0.0,-0.4814,-0.4872,-0.5004,-0.5193,-0.5326,-0.5864,-0.675,-0.6217,-0.5635,-0.5045,0.0,0.0,0.0,0.0,0.0,0.0,0.0,0.0,0.0,0.0,0.0,0.0,0.0,0.0,0.0,0.0,0.0,0.0,0.0,0.0,0.0,0.0,0.0,0.0,0.0,0.0,0.0,0.0,0.0,0.0,0.0,0.0,0.0,0.0,0.0,0.0,0.0,0.0,0.0,0.0,0.0,0.0,0.0,0.0,0.0,0.0,0.0,0.0,0.0,0.0,0.0,0.0,0.0,0.0,0.0,0.0,0.0,0.0,0.0,0.0,0.0,0.0,0.0,0.0,0.0,0.0,0.0,0.0,0.0,0.0,0.0,-0.5639,0.0,0.0,0.0,0.0,0.0,0.0,0.0,0.0,0.0,0.0,0.0,0.0,0.0,0.0,0.0,0.0,0.0,0.0,0.0,0.0,0.0,0.0,0.0,-0.5742,-0.6042,-0.6115,-0.6013,-0.5955,-0.5997,-0.545,-0.5165,-0.5224,-0.4979,-0.479,-0.464,-0.4865,-0.5152,-0.5494,-0.6201,-0.7147,-0.8304,-0.8633,-0.8268,-0.7263,-0.6544,0.0,0.0,0.0,0.0,0.0,0.0,0.0,0.0,0.0,0.0,0.0,0.0,0.0,0.0,0.0,0.0,0.0,0.0,0.0,0.0,0.0,0.0,0.0,0.0,0.0,0.0,0.0,0.0,0.0,0.0,0.0,0.0,0.0,0.0,0.0,0.0,0.0,0.0,0.0,0.0,0.0,0.0,0.0,0.0,0.0,0.0,0.0,0.0,0.0,0.0,0.0,0.0,0.0,0.0,0.0,0.0,0.0,0.0,0.0,0.0,0.0,0.0,0.0,0.0,-0.7365,-0.7736,-0.7736,-0.7655,-0.7442,-0.6613,-0.6102,-0.5828,0.0,0.0,0.0,0.0,0.0,0.0,0.0,0.0,0.0,0.0,0.0,0.0,0.0,0.0,0.0,0.0,0.0,0.0,0.0,0.0,0.0,0.0,-0.665,-0.7048,-0.7335,-0.683,-0.6575,-0.6748,-0.5822,-0.541,-0.5693,-0.5292,-0.511,-0.5192,-0.5778,-0.6144,-0.6249,-0.8392,-0.9851,-1.0667,-1.0997,-1.1202,-1.1142,-0.8897,-0.8019,-0.8143,0.0,0.0,0.0,0.0,0.0,0.0,0.0,0.0,0.0,0.0,0.0,0.0,0.0,0.0,0.0,0.0,0.0,0.0,0.0,0.0,0.0,0.0,0.0,0.0,0.0,0.0,0.0,0.0,0.0,0.0,0.0,0.0,0.0,0.0,0.0,0.0,0.0,0.0,0.0,0.0,0.0,-0.6049,-0.6931,0.0,0.0,0.0,0.0,0.0,0.0,0.0,0.0,0.0,0.0,0.0,0.0,0.0,0.0,-0.6607,-0.712,-0.7232,-0.6952,-0.728,-0.748,-0.753,-0.753,-0.763,-0.7719,-0.7418,0.0,-0.6611,-0.6273,0.0,0.0,0.0,0.0,0.0,0.0,0.0,0.0,0.0,0.0,0.0,0.0,0.0,0.0,0.0,0.0,0.0,0.0,0.0,0.0,0.0,-0.7666,-0.8357,-0.8389,-0.9027,-0.8879,-0.7607,-0.7543,-0.6893,-0.5413,-0.5476,-0.5435,-0.5192,-0.602,-0.713,-0.8489,-1.063,-1.1934,-1.2479,-1.2802,-1.2994,-1.3082,-1.1955,-1.0719,-0.9409,-0.8371,0.0,0.0,0.0,0.0,0.0,0.0,0.0,0.0,0.0,0.0,0.0,0.0,0.0,0.0,0.0,0.0,0.0,0.0,0.0,0.0,0.0,0.0,0.0,0.0,0.0,0.0,0.0,0.0,0.0,0.0,0.0,0.0,0.0,0.0,0.0,0.0,0.0,0.0,0.0,-0.6176,-0.6592,-0.6587,-0.6268,-0.6027,0.0,0.0,0.0,0.0,0.0,0.0,0.0,0.0,0.0,-0.7018,-0.7033,-0.7077,-0.7205,-0.7622,-0.7793,-0.7747,-0.8065,-0.8288,-0.839,-0.839,-0.8434,-0.8499,-0.8316,-0.8077,-0.7778,-0.7109,-0.6906,-0.7009,0.0,0.0,0.0,0.0,0.0,-0.6273,0.0,0.0,0.0,0.0,0.0,0.0,0.0,0.0,0.0,0.0,0.0,0.0,-0.7416,-0.8548,-0.9424,-0.9844,-1.0544,-1.034,-0.8914,-0.8725,-0.777,-0.5755,-0.5749,-0.5685,-0.5437,-0.6755,-0.8549,-1.0782,-1.2448,-1.352,-1.4037,-1.4277,-1.4438,-1.451,-1.4382,-1.3184,-1.1143,-1.0043,-0.8882,-0.7698,0.0,0.0,0.0,0.0,0.0,0.0,0.0,0.0,0.0,0.0,0.0,0.0,0.0,0.0,0.0,0.0,0.0,0.0,0.0,0.0,0.0,0.0,0.0,0.0,0.0,0.0,0.0,0.0,0.0,0.0,0.0,0.0,0.0,0.0,0.0,0.0,0.0,-0.6458,-0.6764,-0.6246,-0.6368,-0.6326,0.0,0.0,0.0,0.0,0.0,0.0,-0.7247,-0.7214,-0.7373,-0.7684,-0.7596,-0.765,-0.7821,-0.8134,-0.8381,-0.8564,-0.8828,-0.9056,-0.9234,-0.9234,-0.9234,-0.9222,-0.9039,-0.8885,-0.8722,-0.7893,-0.7491,-0.7401,-0.7473,-0.7474,-0.7466,-0.7648,-0.7281,-0.6739,0.0,0.0,0.0,0.0,0.0,0.0,0.0,0.0,0.0,0.0,0.0,-0.7464,-0.9018,-0.913,-0.997,-1.2135,-1.0407,-0.9742,-1.096,-0.8461,-0.7083,-0.7453,-0.6215,-0.5771,-0.6319,-0.8564,-1.0698,-1.2652,-1.3608,-1.4498,-1.539,-1.5405,-1.5576,-1.5884,-1.5501,-1.4948,-1.4122,-1.1613,-1.0646,-1.0638,-0.7778,0.0,0.0,0.0,0.0,0.0,0.0,0.0,0.0,0.0,0.0,0.0,0.0,0.0,0.0,0.0,0.0,0.0,0.0,0.0,0.0,0.0,0.0,0.0,0.0,0.0,0.0,0.0,0.0,0.0,0.0,0.0,0.0,0.0,0.0,0.0,0.0,0.0,0.0,-0.6197,-0.6319,0.0,0.0,0.0,0.0,-0.6137,-0.6872,-0.7298,-0.7212,-0.7367,-0.7633,-0.7988,-0.8351,-0.858,-0.8751,-0.8946,-0.9129,-0.9351,-0.9367,-0.9425,-0.955,-0.955,-0.955,-0.9592,-0.9405,-0.9371,-0.929,-0.8367,-0.8057,-0.8241,-0.8102,-0.8286,-0.8553,-0.7993,-0.7777,-0.7663,0.0,0.0,0.0,0.0,0.0,0.0,0.0,0.0,-0.5119,-0.5793,-0.7269,-0.8379,-0.8758,-1.0092,-1.1307,-1.2172,-1.2387,-1.2305,-1.1945,-1.069,-0.9491,-0.8423,-0.7341,-0.7393,-0.8697,-1.0355,-1.1913,-1.3397,-1.4517,-1.5241,-1.5585,-1.5724,-1.5876,-1.5969,-1.5842,-1.5784,-1.5604,-1.3601,-1.2167,-1.1065,-0.9199,-0.773,0.0,0.0,0.0,0.0,0.0,0.0,0.0,0.0,0.0,0.0,0.0,0.0,0.0,0.0,0.0,0.0,0.0,0.0,0.0,0.0,0.0,0.0,0.0,0.0,0.0,0.0,0.0,0.0,0.0,0.0,0.0,0.0,0.0,0.0,0.0,0.0,0.0,-0.6728,-0.7153,0.0,-0.6773,-0.7144,-0.7364,-0.722,-0.7671,-0.8026,-0.8118,-0.8251,-0.8507,-0.891,-0.9053,-0.9161,-0.9292,-0.9405,-0.947,-0.9531,-0.9531,-0.9563,-0.9579,-0.9579,-0.9579,-0.9575,-0.9559,-0.9531,-0.9498,-0.906,-0.8799,-0.8623,-0.8484,-0.8416,-0.8422,-0.835,-0.8159,-0.7925,0.0,0.0,0.0,0.0,0.0,0.0,0.0,0.0,-0.5154,-0.5864,-0.7496,-0.8639,-0.8717,-1.0491,-1.1937,-1.2596,-1.3297,-1.3414,-1.2699,-1.1673,-1.0415,-0.8992,-0.8427,-0.8848,-1.0335,-1.1743,-1.3006,-1.4152,-1.5124,-1.5679,-1.5791,-1.598,-1.6077,-1.607,-1.6048,-1.6088,-1.6054,-1.4656,-1.3318,-1.2049,-1.0241,-0.8878,-0.7827,0.0,0.0,0.0,0.0,0.0,0.0,0.0,0.0,0.0,0.0,0.0,0.0,0.0,0.0,0.0,0.0,0.0,0.0,0.0,0.0,0.0,0.0,0.0,0.0,0.0,0.0,0.0,0.0,0.0,0.0,0.0,0.0,0.0,0.0,0.0,-0.7302,-0.7184,-0.7813,-0.8097,-0.7661,-0.7943,-0.8135,-0.8077,-0.8361,-0.8641,-0.8869,-0.8938,-0.9137,-0.9437,-0.9445,-0.9506,-0.9575,-0.9579,-0.9579,-0.9579,-0.9579,-0.9579,-0.9579,-0.9579,-0.9579,-0.9579,-0.9579,-0.9579,-0.9571,-0.9498,-0.9307,-0.9068,-0.8836,-0.867,-0.8576,-0.8702,-0.8552,-0.8296,0.0,0.0,0.0,0.0,0.0,0.0,0.0,-0.4783,-0.527,-0.5663,-0.6964,-0.8184,-0.9071,-1.0253,-1.1717,-1.3565,-1.2969,-1.272,-1.3372,-1.1153,-0.9609,-0.9188,-0.935,-0.9955,-1.1056,-1.2665,-1.3953,-1.4977,-1.5447,-1.5877,-1.6177,-1.6224,-1.6224,-1.6224,-1.6142,-1.5964,-1.5681,-1.4579,-1.4122,-1.3803,-1.0933,-0.9669,-0.9354,0.0,0.0,0.0,0.0,0.0,0.0,0.0,0.0,0.0,0.0,0.0,0.0,0.0,0.0,0.0,0.0,0.0,0.0,0.0,0.0,0.0,0.0,0.0,0.0,0.0,0.0,0.0,0.0,0.0,0.0,0.0,0.0,0.0,-0.626,-0.7257,-0.7906,-0.7573,-0.8316,-0.8584,-0.7935,-0.8455,-0.8792,-0.8665,-0.893,-0.9194,-0.9404,-0.9412,-0.9445,-0.9571,-0.9579,-0.9579,-0.9579,-0.9579,-0.9579,-0.9579,-0.9579,-0.9579,-0.9579,-0.9579,-0.9579,-0.9579,-0.9579,-0.9579,-0.9579,-0.9579,-0.9579,-0.9546,-0.9246,-0.9116,-0.9116,-0.9116,-0.8999,-0.8812,0.0,0.0,0.0,0.0,0.0,0.0,-0.4612,-0.5333,-0.5896,-0.6112,-0.7858,-0.8936,-0.8513,-0.9857,-1.128,-1.2596,-1.1909,-1.2005,-1.3459,-1.1195,-0.9442,-0.864,-0.9691,-1.0444,-1.0791,-1.2098,-1.3244,-1.4136,-1.5213,-1.5837,-1.5927,-1.6123,-1.6341,-1.6539,-1.6279,-1.6353,-1.6614,-1.5723,-1.5274,-1.4951,-1.2408,-1.0973,-1.022,0.0,0.0,0.0,0.0,0.0,0.0,0.0,0.0,0.0,0.0,0.0,0.0,0.0,0.0,0.0,0.0,0.0,0.0,0.0,0.0,0.0,0.0,0.0,0.0,0.0,0.0,0.0,0.0,0.0,0.0,0.0,0.0,-0.7456,-0.7371,-0.7992,-0.8475,-0.8633,-0.921,-0.9514,-0.9319,-0.96,-0.9717,-0.9535,-0.9612,-0.9632,-0.9555,-0.9551,-0.9575,-0.9575,-0.9579,-0.9579,-0.9579,-0.9579,-0.9579,-0.9579,-0.9579,-0.9579,-0.9579,-0.9579,-0.9579,-0.9579,-0.9579,-0.9579,-0.9579,-0.9579,-0.9579,-0.9567,-0.9518,-0.9482,-0.9482,-0.9482,-0.9364,-0.9212,0.0,0.0,0.0,0.0,0.0,0.0,-0.4925,-0.5605,-0.605,-0.6019,-0.7767,-0.8691,-0.788,-0.9743,-1.1217,-1.1576,-1.1837,-1.2146,-1.2472,-1.0666,-0.9401,-0.9026,-0.9952,-1.0627,-1.0984,-1.1937,-1.2922,-1.3997,-1.4775,-1.5383,-1.5784,-1.5974,-1.619,-1.6516,-1.6163,-1.6286,-1.6621,-1.5143,-1.4953,-1.5465,-1.3112,-1.1801,-1.1163,-0.9993,-0.8837,-0.7833,-0.7433,-0.7474,-0.769,-0.7298,0.0,0.0,0.0,0.0,0.0,0.0,0.0,0.0,0.0,0.0,0.0,0.0,0.0,0.0,0.0,0.0,0.0,0.0,0.0,0.0,0.0,0.0,0.0,0.0,-0.778,-0.8422,-0.8665,-0.8837,-0.9073,-0.9384,-0.9697,-0.9916,-1.0045,-1.0151,-1.0167,-1.001,-1.0053,-0.9925,-0.9746,-0.9734,-0.9701,-0.9579,-0.9579,-0.9661,-0.9734,-0.9665,-0.9665,-0.9734,-0.9661,-0.9579,-0.9579,-0.9579,-0.9579,0.0,-0.9579,-0.9579,-0.9579,-0.9579,-0.9579,0.0,0.0,0.0,0.0,0.0,-0.9401,-0.9206,0.0,0.0,0.0,0.0,0.0,0.0,-0.5195,-0.5716,-0.5963,-0.5742,-0.7193,-0.7995,-0.7334,-0.9732,-1.1219,-1.0747,-1.2126,-1.2469,-1.1082,-1.0048,-0.9671,-1.009,-1.0462,-1.0911,-1.1518,-1.2076,-1.3031,-1.4298,-1.4298,-1.4838,-1.5879,-1.5798,-1.6025,-1.6409,-1.6025,-1.6046,-1.6202,-1.4043,-1.416,-1.5609,-1.3549,-1.2538,-1.2157,-1.1164,-1.0233,-0.9432,-0.9165,-0.8862,-0.851,-0.7936,0.0,0.0,0.0,0.0,0.0,0.0,0.0,0.0,0.0,0.0,0.0,0.0,0.0,0.0,0.0,0.0,0.0,0.0,0.0,0.0,0.0,0.0,0.0,0.0,-0.8682,-0.9169,-0.9823,-0.9694,-0.9612,-0.988,-0.9933,-1.0014,-1.0228,-1.0261,-1.0265,-1.0245,-1.0228,-1.0131,-0.9896,0.0,0.0,0.0,0.0,-0.973,-0.9884,-0.9734,-0.9734,-0.9884,-0.9709,-0.9579,-0.9579,-0.9579,-0.9579,-0.9579,-0.9579,-0.9579,-0.9579,-0.9579,-0.9579,-0.9579,-0.9579,-0.9579,-0.9608,-0.9445,-0.9287,0.0,0.0,0.0,0.0,0.0,0.0,0.0,-0.5204,-0.5842,-0.6341,-0.64,-0.7633,-0.8295,-0.7761,-0.9187,-1.0332,-1.0589,-1.0692,-1.0807,-1.0996,-1.1246,-1.1401,-1.1415,-1.2311,-1.262,-1.2278,-1.2753,-1.3421,-1.4298,-1.4298,-1.4938,-1.6179,-1.5939,-1.6239,-1.7005,-1.6426,-1.6346,-1.66,-1.5908,-1.5702,-1.5778,-1.5285,-1.4431,-1.3363,-1.3153,-1.1778,-0.9952,-1.0012,-0.968,-0.9234,-0.9133,-0.8931,-0.8747,-0.8709,-0.7918,0.0,0.0,0.0,0.0,0.0,0.0,0.0,0.0,0.0,0.0,0.0,0.0,0.0,0.0,0.0,0.0,0.0,0.0,0.0,-0.8625,-0.9259,-0.9778,-1.0118,-1.0102,-1.0086,-1.0151,-1.0237,-1.0343,-1.0379,-1.0509,-1.0534,-1.0391,-1.0245,-1.0131,-0.9896,-0.975,0.0,-0.9579,-0.9762,-0.9851,-0.9884,-0.9851,-0.9851,-0.9884,0.0,0.0,-0.9579,-0.9579,-0.9579,-0.9579,-0.9579,-0.9579,-0.9579,-0.9579,-0.9579,-0.9579,-0.9579,-0.9579,-0.9575,-0.9587,-0.9555,-0.9498,0.0,0.0,0.0,0.0,0.0,0.0,-0.5479,-0.5906,-0.6265,-0.6483,-0.7488,-0.8134,-0.7969,-0.9024,-0.9714,-0.9649,-0.9578,-0.9981,-1.1014,-1.1285,-1.1626,-1.2135,-1.281,-1.2991,-1.2597,-1.3002,-1.3627,-1.4491,-1.4364,-1.474,-1.5674,-1.5943,-1.6065,-1.6088,-1.6364,-1.6486,-1.648,-1.5787,-1.5609,-1.5778,-1.5255,-1.4656,-1.3934,-1.3409,-1.2458,-1.1273,-1.0218,-0.9961,-1.0073,-0.9357,-0.9038,-0.8853,-0.8725,-0.825,-0.7688,0.0,0.0,0.0,0.0,0.0,0.0,0.0,0.0,0.0,0.0,0.0,0.0,0.0,0.0,-0.6985,-0.7563,0.0,-0.8763,-0.9388,-0.9868,-1.0221,-1.04,-1.0428,-1.0396,-1.031,-1.0379,-1.0415,-1.0554,-1.0639,-1.0655,-1.057,-1.0481,-1.0351,-1.0172,-0.9994,-0.9896,-0.9896,-0.9888,-0.9973,-1.0156,-0.9977,-0.9933,-1.0073,-0.9754,-0.9579,-0.9579,-0.9579,-0.9579,-0.9579,-0.9579,-0.9579,-0.9579,-0.9579,-0.9579,-0.9579,-0.9579,-0.9579,-0.9579,-0.9579,-0.9567,-0.9478,0.0,0.0,0.0,0.0,0.0,0.0,0.0,-0.5911,-0.612,-0.6416,-0.7241,-0.7839,-0.7968,-0.8812,-0.9177,-0.8744,-0.8967,-0.9679,-1.0989,-1.125,-1.1791,-1.2738,-1.3321,-1.3593,-1.3502,-1.3596,-1.4157,-1.5115,-1.4698,-1.4789,-1.5448,-1.5836,-1.5732,-1.5215,-1.5985,-1.6268,-1.6003,-1.5306,-1.5221,-1.5445,-1.4634,-1.4196,-1.3902,-1.3022,-1.2678,-1.2463,-1.0509,-1.0217,-1.0557,-0.9263,-0.8739,-0.8571,-0.8296,-0.8287,-0.8344,-0.8171,-0.8032,0.0,0.0,0.0,0.0,0.0,0.0,0.0,0.0,0.0,-0.6404,-0.6948,-0.7313,-0.778,-0.8616,-0.8889,-0.9287,-1.0083,-1.0367,-1.0534,-1.0672,-1.0692,-1.0639,-1.0501,-1.0485,-1.0526,-1.0631,-1.0672,-1.068,-1.0643,-1.0643,-1.0566,-1.0391,-1.0241,-1.0196,-1.0159,-1.003,-1.0136,-1.0379,-1.0103,-1.0014,-1.0208,-0.9799,-0.9579,-0.9579,-0.9579,-0.9579,-0.9579,-0.9579,-0.9723,-0.992,-0.9673,-0.9579,-0.9579,-0.9579,-0.9579,-0.9579,-0.9579,-0.9677,-0.9738,0.0,0.0,0.0,0.0,0.0,0.0,0.0,0.0,-0.6236,-0.6626,-0.7322,-0.7731,-0.7576,-0.8143,-0.8587,-0.8698,-0.9268,-0.9894,-1.0526,-1.2069,-1.3198,-1.3832,-1.5379,-1.6251,-1.6251,-1.5661,-1.5685,-1.6504,-1.557,-1.5764,-1.6934,-1.5714,-1.5397,-1.5805,-1.5384,-1.5154,-1.5167,-1.5832,-1.5464,-1.4442,-1.4346,-1.3709,-1.2877,-1.2732,-1.2678,-1.2581,-1.1546,-1.0762,-1.0088,-0.9334,-0.8844,-0.8661,-0.8889,-0.8882,-0.8873,-0.9399,-0.8975,-0.833,-0.8241,-0.7085,-0.5968,-0.6266,-0.624,-0.6449,0.0,0.0,-0.7743,-0.829,-0.8507,-0.8771,-0.9237,-0.9588,-0.9904,-1.0335,-1.055,-1.0672,-1.0688,-1.0692,-1.0684,-1.0668,-1.0664,-1.0611,-1.0477,-1.0603,-1.0627,-1.0477,-1.0411,-1.0383,-1.0253,-1.0224,-1.0139,-0.992,-1.0213,-1.0338,-1.0383,-1.0233,-1.0192,-1.0208,-0.9799,-0.9579,-0.9579,-0.9579,-0.9579,-0.9579,-0.9579,-1.0158,-1.093,-1.0015,-0.9579,-0.9579,-0.9579,-0.9579,-0.9579,-0.9579,-1.0194,-1.0849,0.0,0.0,0.0,0.0,0.0,0.0,0.0,0.0,0.0,-0.6509,-0.6886,-0.7196,-0.7477,-0.7584,-0.7751,-0.8029,-0.8286,-0.9055,-1.0578,-1.1885,-1.307,-1.4118,-1.5643,-1.6453,-1.6453,-1.6332,-1.6501,-1.7018,-1.6384,-1.6221,-1.6434,-1.6317,-1.6047,-1.5626,-1.6243,-1.6298,-1.6041,-1.661,-1.5961,-1.457,-1.5208,-1.3977,-1.1935,-1.2953,-1.2636,-1.1657,-1.1472,-1.1326,0.0,-0.9604,-0.9078,-0.8983,-0.8712,-0.8642,-0.8811,-0.9506,-0.901,-0.8128,-0.7716,-0.7099,-0.6654,-0.6732,-0.6985,-0.7391,-0.7992,-0.8097,-0.8223,-0.8763,-0.9011,-0.9242,-0.9649,-0.9922,-1.0132,0.0,-1.0582,-1.066,-1.0558,-1.0542,-1.0501,-1.0396,-1.0383,-1.0396,-1.0379,-1.0501,-1.0513,-1.0387,-1.0526,-1.055,-1.0473,-1.0375,-1.0331,-1.0355,-1.0408,-1.0481,-1.0582,-1.0408,-1.0266,-1.0212,-0.99,-0.9726,-0.9579,-0.9579,-0.9579,-0.9579,-0.9579,-0.9871,-1.0207,-0.9772,-0.9579,-0.9579,-0.9579,-0.9965,-1.0449,-0.9821,-0.9867,-1.0207,0.0,0.0,0.0,0.0,0.0,0.0,0.0,0.0,0.0,0.0,-0.6464,-0.6672,-0.7069,-0.6905,-0.6921,-0.7317,-0.7436,-0.8238,-0.9973,-1.1402,-1.2662,-1.3762,-1.5318,-1.6202,-1.637,-1.669,-1.6934,-1.7199,-1.7014,-1.6742,-1.6393,-1.6677,-1.6366,-1.5578,-1.6388,-1.6542,-1.6119,-1.6458,-1.5613,-1.4141,-1.5281,-1.3837,-1.1207,-1.2928,-1.2569,-1.1097,-1.1101,-1.1239,-1.1161,-0.9417,-0.8905,-0.889,-0.8488,-0.8555,-0.8912,-0.9605,-0.9026,-0.8023,-0.7311,-0.7114,-0.7094,-0.7196,-0.7714,-0.8191,-0.8288,-0.8455,-0.871,-0.9153,-0.9344,-0.9522,-0.9831,-0.9994,-1.0164,-1.0342,-1.0542,-1.0578,-1.0399,-1.0383,-1.0347,-1.0163,-1.0046,-1.0067,-1.0148,-1.0302,-1.0359,-1.0359,-1.0521,-1.0623,-1.0623,-1.055,-1.0542,-1.0619,-1.0546,-1.0566,-1.0688,-1.0521,-1.0343,-1.0212,-0.9973,-0.9795,-0.9579,-0.9579,-0.9772,-1.0015,-0.9723,-0.9772,-1.0015,-0.9723,-0.9579,-0.9579,-0.9579,-1.006,-1.0641,-0.9867,-0.9772,-1.0015,0.0,0.0,0.0,0.0,0.0,0.0,0.0,0.0,0.0,0.0,0.0,0.0,0.0,-0.6019,-0.6151,-0.6672,-0.7204,-0.7722,-0.824,-1.0742,-1.2326,-1.2529,-1.4578,-1.5973,-1.6558,-1.6992,-1.7192,-1.7199,-1.7474,-1.7562,-1.7529,-1.644,-1.5902,-1.5837,-1.5071,-1.4699,-1.4665,-1.4954,-1.4032,-1.2494,-1.3733,-1.2806,-1.0799,-1.2476,-1.2348,-1.122,-1.0551,-1.0088,-0.9624,-0.8583,-0.8176,-0.8179,-0.8419,-0.8795,-0.9331,-1.007,-0.9378,-0.8263,-0.765,-0.71,-0.6875,-0.7604,-0.8188,-0.8686,-0.8986,-0.9245,-0.9424,-0.9571,-0.9567,-0.9673,-0.9851,-0.9888,-1.001,-1.0375,-1.0387,-1.0387,-1.0383,-1.0383,-1.0298,-0.9937,-0.9746,-0.9599,0.0,-0.9969,-1.0224,-1.0224,-1.0339,-1.0391,-1.0391,-1.0595,-1.0611,-1.0395,-1.0599,-1.0688,-1.0692,-1.0521,-1.0343,-1.0212,-0.9973,-0.9795,-0.9579,-0.9579,-1.0158,-1.1072,-1.0064,-1.0207,-1.1077,-1.0015,-0.9579,-0.9579,-0.9579,-0.9628,-0.9628,-0.9628,-1.0256,-1.0979,0.0,0.0,0.0,0.0,0.0,0.0,0.0,0.0,0.0,0.0,0.0,0.0,0.0,0.0,0.0,0.0,-0.6484,-0.7056,-0.8373,-0.9982,-1.1227,-1.2079,-1.3754,-1.4993,-1.56,-1.5954,-1.6259,-1.653,-1.6625,-1.6675,-1.6714,-1.6356,-1.6245,-1.6426,-1.6336,-1.6246,-1.6291,-1.6539,-1.5667,-1.4135,-1.4837,-1.3656,-1.1654,-1.3003,-1.2189,-1.0412,0.0,-1.0432,-0.9827,-0.8795,-0.8459,-0.8413,-0.827,-0.8463,-0.8666,-0.8392,-0.828,-0.8122,-0.7371,-0.7476,-0.7866,-0.8345,-0.8779,-0.92,-0.9397,-0.9494,-0.9555,-0.9616,-0.9441,-0.9291,-0.9352,-0.9458,-0.962,-0.9697,-1.0119,-1.0298,-1.0103,-1.0282,-1.0209,-0.9653,-0.9689,0.0,0.0,0.0,0.0,-1.0196,-1.0331,-1.0485,-1.0599,-1.066,-1.0668,-1.0607,-1.0664,-1.0692,-1.0692,-1.0635,-1.0517,-1.0339,-1.003,-0.9795,-0.9579,-0.9579,-0.9821,-1.0113,-0.9772,-0.9821,-1.0109,-0.9772,-0.9579,-0.9579,-0.9579,-0.9579,-0.9579,-0.9579,-0.9821,-1.0113,0.0,0.0,0.0,0.0,0.0,0.0,0.0,0.0,0.0,0.0,0.0,0.0,0.0,0.0,0.0,0.0,0.0,-0.6658,-0.7979,-0.9099,-1.0166,-1.1214,-1.2476,-1.3401,-1.3928,-1.4226,-1.4642,-1.514,-1.5198,-1.5413,-1.5677,-1.5677,-1.5832,-1.6123,-1.6075,-1.6129,-1.6223,-1.6114,-1.5246,-1.3991,-1.4581,-1.3438,-1.1497,-1.2435,-1.1526,0.0,-0.9943,-0.9727,-0.9248,-0.8495,-0.8378,-0.8463,-0.8141,-0.8235,-0.8346,-0.7695,-0.7766,-0.7929,-0.7551,-0.7943,-0.858,-0.9003,-0.9328,-0.9559,-0.9616,-0.9579,-0.9542,-0.9466,-0.939,-0.9321,-0.919,-0.9248,-0.9437,-0.9961,-1.0284,-1.0442,-1.0399,-1.0604,-1.045,-0.9563,-0.9657,-0.9705,0.0,0.0,0.0,-1.0192,-1.027,-1.0469,-1.0773,-1.0729,-1.072,-1.0789,-1.0724,-1.0692,-1.0692,-1.0692,-1.0607,-1.0379,-1.0059,-0.9827,-0.9717,-0.9657,-0.9579,-0.9579,-0.9579,-0.9579,-0.9579,-0.9579,-0.9579,-0.9579,-0.9579,-0.9579,-0.9579,-0.9579,-0.9579,-0.9579,0.0,0.0,0.0,0.0,0.0,0.0,0.0,0.0,0.0,0.0,0.0,0.0,0.0,0.0,0.0,0.0,0.0,0.0,-0.702,-0.8116,-0.912,-0.9983,-1.0708,-1.1358,-1.1823,-1.204,-1.2468,-1.3099,-1.3365,-1.382,-1.4448,-1.4462,-1.4677,-1.4933,-1.4409,-1.4331,-1.4574,-1.381,-1.2929,-1.2083,-1.2968,-1.2113,-1.039,-1.0884,-1.0426,-0.9449,-0.8575,-0.812,-0.7937,-0.7712,-0.7987,-0.8346,-0.8001,-0.8099,-0.831,-0.7998,-0.7818,-0.7829,-0.8201,-0.8597,-0.9011,-0.9527,-0.977,-0.9843,-0.9681,-0.9571,-0.9498,-0.9188,-0.9485,-0.9693,0.0,0.0,-0.9534,-1.0836,-1.0783,-1.0716,-1.117,-1.1323,-1.0906,0.0,0.0,0.0,0.0,0.0,0.0,-1.0228,0.0,-1.0473,-1.0956,-1.0806,-1.0789,-1.0964,-1.0789,-1.0692,-1.0692,-1.0692,-1.0607,-1.0379,-1.0079,-0.9904,-0.988,-0.9767,-0.9686,-0.9673,-0.9723,-0.9723,-0.9677,-0.9686,-0.964,-0.9595,-0.9652,-0.9599,-0.9591,-0.9591,-0.9587,-0.9579,0.0,0.0,0.0,0.0,0.0,0.0,0.0,0.0,0.0,0.0,0.0,0.0,0.0,0.0,0.0,0.0,0.0,0.0,-0.6486,-0.7328,-0.8148,-0.8865,-0.9599,-1.0306,-1.0913,-1.1245,-1.1479,-1.1699,-1.2016,-1.2305,-1.2516,-1.2788,-1.3051,-1.3303,-1.3373,-1.3446,-1.3515,-1.3484,-1.3054,-1.2332,-1.2122,-1.1598,-1.0863,-1.048,-0.9846,-0.9134,-0.887,-0.8192,-0.7502,-0.8083,-0.8433,-0.8541,-0.8057,-0.7829,-0.7785,-0.7978,-0.8208,-0.8426,-0.862,-0.9238,-0.9851,-0.9989,-0.9953,-0.9876,-0.9827,-0.9514,-0.9269,-0.9298,-0.8981,-0.8732,-0.8842,0.0,0.0,-0.9419,-0.9822,0.0,-1.0218,-1.0596,0.0,-0.9922,0.0,-1.0119,-0.9847,-0.9985,0.0,0.0,-1.0558,-1.0733,-1.1135,-1.0992,-1.0975,-1.1024,-1.0789,-1.0692,-1.0692,-1.0692,-1.0607,-1.0379,-1.0286,-1.0152,-0.9935,-1.0637,-1.0879,-1.0837,-1.1565,-1.1468,-1.0797,-1.0902,-1.0515,-0.9831,-0.9973,-0.9941,-0.9819,-0.9819,-0.9738,-0.9579,0.0,0.0,0.0,0.0,0.0,0.0,0.0,0.0,0.0,0.0,0.0,0.0,0.0,0.0,0.0,0.0,0.0,0.0,0.0,-0.6628,-0.7174,-0.7809,-0.8149,-0.855,-0.9003,-0.9406,-0.9635,-0.9676,-1.0135,-1.0401,-1.0439,-1.0786,-1.109,-1.1347,-1.1643,-1.1876,-1.2013,-1.2079,-1.1797,0.0,0.0,-1.0205,-0.9843,-0.9217,-0.8697,-0.8348,-0.8302,-0.7886,-0.7397,-0.786,-0.8055,-0.8145,-0.8233,-0.804,-0.7888,-0.8476,-0.8678,-0.8783,-0.9275,-0.9835,-1.0262,-1.0237,-1.0135,-0.9981,-0.9742,-0.944,-0.919,-0.9117,-0.8941,-0.8801,-0.8779,-0.8871,-0.9105,0.0,0.0,0.0,-1.0486,-1.0889,-1.0903,0.0,-1.0375,0.0,-1.0257,-1.0477,-1.0745,0.0,-1.0826,-1.0883,-1.1321,-1.1175,-1.1082,-1.1082,-1.0907,-1.0773,-1.0692,-1.0692,-1.0643,-1.0546,-1.0419,-1.0587,-1.094,-1.1268,-1.1723,-1.2278,0.0,-1.2445,-1.2058,-1.2183,-1.1838,-1.1345,-1.1466,-1.1494,-1.1498,-1.1216,-1.0843,-1.0473,0.0,0.0,0.0,0.0,0.0,0.0,0.0,0.0,0.0,0.0,0.0,0.0,0.0,0.0,0.0,0.0,0.0,0.0,0.0,0.0,-0.6317,-0.6891,-0.6734,-0.6741,-0.695,-0.736,-0.7567,-0.7567,-0.8194,-0.8494,-0.8502,-0.8855,-0.9116,-0.9347,-0.9658,-0.9943,-1.0207,-1.0034,-0.98,-0.9497,-0.8909,-0.8507,-0.8178,0.0,-0.7467,-0.7489,-0.7433,-0.7393,-0.7385,-0.7433,-0.7451,-0.7637,-0.8364,-0.8415,-0.8362,-0.9173,-0.9178,-0.9141,-0.9973,-1.0331,-1.0424,-1.0245,-1.0212,-1.0007,-0.9538,-0.9374,-0.9179,-0.8816,-0.9023,-0.9209,-0.8932,-0.9102,-0.9588,-1.053,0.0,-1.1002,-1.1169,-1.1392,-1.1246,-1.0469,-1.0607,-1.0729,-1.0729,-1.1029,-1.1297,-1.1484,-1.1066,-1.1017,-1.1508,-1.1362,-1.1248,-1.1224,-1.1057,-1.0891,-1.0729,-1.0729,-1.0716,-1.0688,-1.0725,-1.1224,-1.2216,-1.1994,-1.2613,-1.3773,0.0,0.0,-1.3485,-1.3463,-1.3329,-1.3084,-1.3261,-1.338,-1.3375,-1.2936,-1.2415,-1.1802,0.0,0.0,0.0,0.0,0.0,0.0,0.0,0.0,0.0,0.0,-0.6698,-0.6216,0.0,0.0,0.0,0.0,0.0,0.0,0.0,0.0,0.0,-0.6399,-0.638,-0.648,-0.6745,-0.6822,-0.6877,-0.6877,-0.7275,-0.7457,-0.7465,-0.7793,-0.7997,-0.8026,-0.8078,-0.8158,-0.8209,-0.8165,-0.7954,-0.7656,-0.7548,-0.7447,-0.7389,-0.7221,0.0,0.0,-0.7461,-0.7173,-0.6841,-0.743,-0.7805,-0.801,-0.8073,-0.8363,-0.8791,-0.9405,-0.9612,-0.9803,-1.0262,-1.0513,-1.0607,-1.0432,-1.016,-0.9879,-0.9683,-0.9159,-0.8782,-0.8906,-0.8802,-0.8681,-0.8802,-0.9029,-0.9421,-1.0051,-1.0106,-1.0269,-1.0747,-1.0698,-1.056,0.0,-1.0724,-1.0975,-1.0975,-1.1102,0.0,0.0,0.0,-1.1468,-1.1715,-1.1553,-1.1378,-1.1228,-1.1057,-1.0956,-1.0923,-1.0975,-1.0842,-1.0692,-1.1802,-1.2292,-1.2279,-1.3915,-1.4773,-1.4975,0.0,0.0,-1.4877,-1.4984,-1.398,-1.2498,-1.3514,-1.334,-1.2508,-1.3069,-1.3295,-1.3161,0.0,0.0,0.0,0.0,0.0,0.0,0.0,-0.7386,-0.7946,-0.8596,-0.8297,-0.7756,-0.709,-0.6578,-0.6251,0.0,0.0,0.0,0.0,0.0,0.0,0.0,-0.603,-0.6104,-0.6234,-0.6535,-0.6542,-0.6224,0.0,-0.6786,-0.6482,-0.6812,-0.6965,-0.6984,-0.7114,-0.7187,-0.7187,-0.7187,-0.7081,-0.6935,-0.6905,-0.6994,-0.7119,0.0,0.0,0.0,-0.7428,-0.727,-0.7025,-0.7348,-0.7674,-0.7992,-0.8247,-0.8605,-0.9068,-0.9604,-0.9888,-1.0067,-1.0245,-1.0489,-1.0603,-1.0237,-0.9949,-0.9704,-0.9473,-0.9037,-0.8689,-0.8854,-0.8761,-0.8686,-0.8778,-0.9076,-0.9379,-0.9659,-0.9625,-0.9767,-1.0318,-1.0138,-1.0067,-1.0346,-1.083,-1.1098,0.0,-1.135,0.0,0.0,0.0,-1.1581,-1.1764,-1.1602,-1.1415,-1.1228,-1.1143,-1.1013,-1.0826,-1.1009,-1.0964,-1.0696,-1.1484,-1.2303,-1.323,-1.4104,-1.5209,-1.6472,-1.6632,0.0,-1.6215,-1.6145,-1.5548,-1.4844,-1.5295,-1.5274,-1.4995,-1.5068,-1.4906,-1.4556,0.0,0.0,0.0,0.0,0.0,0.0,0.0,-0.8165,-0.8846,-0.9804,-0.9863,-0.9416,-0.8341,-0.7501,-0.6928,0.0,0.0,0.0,0.0,0.0,0.0,0.0,0.0,0.0,0.0,0.0,0.0,-0.5898,-0.6387,0.0,0.0,0.0,0.0,0.0,-0.6526,-0.6564,-0.6498,-0.6498,-0.6542,0.0,0.0,-0.6743,0.0,0.0,0.0,0.0,0.0,-0.7374,-0.7244,-0.7329,-0.7562,-0.7927,-0.8452,-0.886,-0.9196,-0.9693,-0.9987,-1.017,-1.0223,-1.0367,-1.0469,-1.0002,-0.9697,-0.9435,-0.9246,-0.8912,-0.8666,-0.8767,-0.8804,-0.8804,-0.8804,-0.9101,-0.942,-0.9556,-0.9525,-0.9666,-1.0117,-0.9958,-0.9971,0.0,-1.081,0.0,-1.1216,0.0,0.0,0.0,0.0,0.0,-1.2123,-1.2026,-1.1896,-1.1745,-1.1376,-1.1106,-1.0867,-1.1102,-1.1082,-1.0806,-1.1552,-1.2683,-1.4153,-1.4504,-1.5716,-1.7555,-1.7094,0.0,0.0,-1.6987,-1.6874,-1.6898,-1.6879,-1.702,-1.7193,-1.6886,-1.6471,-1.5985,0.0,0.0,0.0,0.0,0.0,0.0,0.0,-0.8698,-0.9833,-1.0843,-1.0711,-1.0338,-0.9929,-0.8794,-0.7691,0.0,0.0,0.0,0.0,0.0,0.0,0.0,0.0,0.0,0.0,0.0,0.0,-0.626,0.0,0.0,0.0,0.0,0.0,0.0,0.0,-0.6162,-0.5884,-0.5884,0.0,0.0,0.0,0.0,0.0,0.0,0.0,0.0,0.0,-0.7306,-0.7112,-0.7709,-0.7898,-0.7984,-0.8531,-0.8865,-0.9177,-0.9607,-0.9923,-1.0135,-1.0186,-1.0237,-1.0208,-0.9941,-0.951,-0.9166,-0.9179,-0.8801,-0.8511,-0.8756,-0.8804,-0.8804,-0.8804,-0.903,-0.9424,-1.0033,-1.0166,-1.0297,-1.0499,-1.0548,-1.0458,-1.0223,0.0,0.0,-1.1191,0.0,0.0,0.0,0.0,0.0,0.0,-1.3423,-1.3512,-1.3489,-1.197,-1.1289,-1.1423,-1.1289,-1.1204,-1.1175,-1.3601,-1.4629,-1.4466,-1.6598,-1.7609,-1.7582,0.0,0.0,0.0,-1.7515,-1.6924,-1.6143,-1.7141,-1.6943,-1.615,-1.6859,-1.7295,-1.7357,0.0,0.0,0.0,0.0,0.0,0.0,-0.8143,-0.8897,-0.986,-1.1217,-1.1283,-1.1004,-1.0448,-0.9768,-0.8802,-0.7428,0.0,0.0,0.0,0.0,0.0,0.0,0.0,0.0,0.0,0.0,-0.6407,-0.6531,-0.6531,0.0,0.0,0.0,0.0,0.0,0.0,0.0,-0.5796,-0.5796,0.0,0.0,0.0,0.0,0.0,0.0,0.0,0.0,0.0,0.0,-0.726,-0.7048,-0.7222,-0.7578,-0.7734,-0.814,-0.8655,-0.9239,-0.9638,-0.9822,-0.9734,-0.9963,-1.0143,-0.9803,-0.9578,-0.9371,-0.9228,-0.8951,-0.8719,-0.8787,-0.8804,-0.8804,-0.8804,-0.8871,-0.9162,-0.9801,-0.9543,-0.9495,-1.01,-0.9777,-0.9637,-1.0049,-1.0279,0.0,0.0,0.0,0.0,0.0,0.0,0.0,0.0,-1.3708,-1.3309,-1.3112,-1.255,-1.1946,-1.1237,-1.1317,-1.1334,-1.1224,-1.3133,-1.4219,-1.4443,-1.6205,-1.7206,-1.7582,0.0,0.0,0.0,-1.7447,-1.7213,-1.6975,-1.7232,-1.716,-1.6975,-1.7291,-1.7482,-1.7549,0.0,0.0,0.0,0.0,0.0,-0.7129,-0.8363,-0.8977,-0.9838,-1.1261,-1.1364,-1.1166,-1.0799,-1.0104,-0.927,-0.8238,-0.7647,0.0,0.0,0.0,0.0,0.0,0.0,0.0,0.0,0.0,-0.6797,-0.6993,-0.6993,-0.7037,0.0,0.0,0.0,0.0,0.0,0.0,0.0,0.0,0.0,0.0,0.0,0.0,0.0,0.0,0.0,0.0,0.0,0.0,0.0,0.0,0.0,-0.7364,-0.7405,-0.7796,-0.838,-0.8985,-0.9374,-0.957,-0.9451,-0.9657,-0.9914,-0.9608,-0.9472,-0.9349,-0.9158,-0.894,-0.8794,-0.8803,-0.8804,-0.8804,-0.8804,-0.8804,-0.8971,-0.9472,-0.9208,-0.9193,-0.9933,-0.9649,-0.9624,-1.0298,0.0,0.0,0.0,0.0,0.0,0.0,0.0,0.0,0.0,-1.4583,-1.3967,-1.3836,-1.3243,-1.2631,-1.2106,-1.1636,-1.1525,-1.1733,-1.3191,-1.41,-1.4443,-1.6096,-1.7098,-1.7582,0.0,0.0,0.0,-1.7414,-1.7454,-1.7562,-1.7414,-1.7454,-1.7582,-1.7582,-1.7582,-1.7582,0.0,0.0,0.0,0.0,0.0,0.0,-0.8055,-0.9007,-0.9965,-1.0975,-1.0828,-1.0719,-1.1063,-0.9684,-0.8848,-0.9156,-0.8268,0.0,0.0,0.0,0.0,0.0,0.0,0.0,0.0,0.0,-0.7022,-0.7683,-0.7683,-0.7865,-0.8187,-0.8187,-0.7822,0.0,0.0,0.0,0.0,0.0,0.0,0.0,0.0,0.0,0.0,0.0,0.0,0.0,0.0,0.0,0.0,0.0,0.0,0.0,0.0,-0.8119,-0.8482,-0.8898,-0.9179,-0.9397,-0.9383,-0.9409,-0.9412,-0.9408,-0.9171,-0.8926,-0.8906,-0.8701,-0.8548,-0.8764,-0.8804,-0.8804,-0.8804,-0.8804,-0.8878,-0.9171,-0.9492,-0.982,-1.0243,-1.0574,-1.0863,0.0,0.0,0.0,0.0,0.0,0.0,0.0,0.0,0.0,0.0,-1.6383,-1.6221,-1.6534,-1.407,-1.3333,-1.4668,-1.2355,-1.1791,-1.2984,-1.441,-1.4852,-1.4503,-1.6884,-1.7822,0.0,0.0,0.0,0.0,-1.7582,-1.7582,-1.7582,-1.7582,-1.7582,-1.7582,-1.7582,-1.7582,-1.7582,0.0,0.0,0.0,0.0,0.0,0.0,0.0,-0.8165,-0.8919,-0.9706,-0.9713,-0.9765,-1.0046,-0.9248,-0.8752,-0.8855,-0.8151,0.0,0.0,0.0,0.0,0.0,0.0,0.0,0.0,0.0,-0.7822,-0.8048,-0.8268,-0.8436,-0.8531,-0.8304,-0.7968,-0.7523,-0.7202,0.0,0.0,0.0,0.0,0.0,0.0,0.0,0.0,0.0,0.0,0.0,0.0,0.0,0.0,0.0,0.0,0.0,0.0,0.0,0.0,-0.8421,-0.884,-0.9114,-0.9069,-0.9164,-0.9256,-0.9256,-0.9236,-0.9202,-0.9022,-0.8971,-0.8953,-0.8831,-0.8804,-0.8804,-0.8804,-0.8804,-0.9031,-0.9697,-0.9913,-1.0085,0.0,0.0,0.0,-1.0519,-1.0909,0.0,0.0,0.0,0.0,0.0,0.0,0.0,0.0,-1.7026,-1.7079,-1.6435,-1.5416,-1.4369,-1.3328,-1.3384,-1.2843,-1.1791,-1.4701,-1.5535,-1.4503,-1.6919,0.0,0.0,0.0,0.0,0.0,-1.7582,-1.7582,-1.7582,-1.7582,-1.7582,-1.7582,-1.7582,-1.7582,-1.7582,0.0,0.0,0.0,0.0,0.0,0.0,0.0,-0.7574,-0.8209,-0.876,-0.8833,-0.9014,-0.9555,-0.8838,-0.8473,-0.8862,-0.8158,0.0,0.0,0.0,0.0,0.0,0.0,0.0,-0.7691,-0.7916,-0.8194,-0.8568,-0.889,-0.9043,-0.9036,-0.8955,-0.8523,-0.7809,-0.751,-0.7151,0.0,0.0,0.0,0.0,0.0,0.0,-0.6847,0.0,0.0,0.0,0.0,0.0,0.0,0.0,0.0,0.0,0.0,0.0,0.0,0.0,-0.831,-0.8634,-0.8883,-0.9016,-0.9095,-0.9095,-0.9168,-0.9182,-0.8931,-0.8969,-0.8998,-0.8844,-0.8804,-0.8804,-0.8804,-0.8804,-0.8985,-0.9532,-0.9684,-0.988,0.0,0.0,0.0,-1.074,0.0,0.0,0.0,0.0,0.0,0.0,0.0,0.0,0.0,0.0,-1.7657,-1.698,-1.6275,-1.5457,-1.4582,-1.4455,-1.3916,-1.3024,-1.5289,-1.582,-1.4829,-1.6933,0.0,0.0,0.0,0.0,0.0,-1.7582,-1.7582,-1.7582,-1.7582,-1.7582,-1.7582,-1.7582,-1.7582,-1.7582,0.0,0.0,0.0,0.0,0.0,0.0,0.0,-0.7224,-0.7742,-0.8085,-0.8136,-0.8473,-0.938,-0.8399,-0.8077,-0.9016,0.0,0.0,0.0,0.0,0.0,0.0,0.0,0.0,-0.7691,-0.7742,-0.8231,-0.9163,-0.95,-0.9676,-0.9661,-0.9967,-0.9391,-0.8089,-0.7845,-0.7429,-0.6875,0.0,0.0,0.0,-0.6611,-0.6686,0.0,0.0,0.0,0.0,0.0,0.0,0.0,0.0,0.0,0.0,0.0,0.0,0.0,0.0,0.0,0.0,0.0,-0.8891,-0.8857,-0.8872,-0.895,-0.894,-0.8759,-0.8758,0.0,-0.8804,-0.8804,-0.8811,-0.8831,-0.8824,-0.8831,-0.8891,-0.9098,-0.935,0.0,-1.0178,0.0,0.0,0.0,0.0,0.0,0.0,0.0,0.0,0.0,0.0,0.0,0.0,-1.7962,-1.7962,-1.6697,-1.6505,-1.7477,-1.5561,-1.5018,-1.5755,-1.6061,-1.5916,-1.5499,-1.6918,0.0,0.0,0.0,0.0,0.0,-1.7582,-1.7569,-1.7555,-1.7575,-1.7569,-1.7555,-1.7575,-1.7582,-1.7582,0.0,0.0,0.0,0.0,0.0,0.0,0.0,0.0,0.0,0.0,-0.7435,-0.7618,-0.8085,-0.7873,-0.7786,0.0,0.0,0.0,0.0,0.0,0.0,0.0,0.0,0.0,-0.7691,-0.8202,-0.8568,-0.8826,-0.9855,-1.0276,-1.0136,-1.0208,-0.9774,-0.8886,-0.8393,-0.7672,-0.6838,-0.6949,0.0,0.0,-0.6827,-0.6921,0.0,0.0,0.0,0.0,-0.7,-0.7214,0.0,0.0,0.0,0.0,0.0,0.0,0.0,0.0,-0.7544,-0.7669,-0.8062,0.0,-0.8571,-0.8775,-0.883,-0.8833,0.0,-0.879,-0.8804,-0.8804,-0.8804,-0.8878,-0.9071,-0.8931,-0.9025,-0.9699,-0.9837,-0.9896,-0.9962,0.0,0.0,0.0,0.0,0.0,0.0,0.0,0.0,0.0,0.0,0.0,0.0,0.0,-1.7695,-1.7695,-1.7351,-1.6935,-1.6293,-1.6681,-1.6082,-1.4567,-1.6355,-1.6749,-1.5818,-1.7068,0.0,0.0,0.0,0.0,-1.7582,-1.7582,-1.7507,-1.7326,-1.7495,-1.7442,-1.7333,-1.7502,-1.7582,-1.7582,0.0,0.0,0.0,0.0,0.0,0.0,0.0,0.0,0.0,0.0,0.0,0.0,0.0,0.0,0.0,0.0,0.0,0.0,0.0,0.0,0.0,0.0,0.0,-0.7691,-0.7691,-0.8209,-0.8654,-0.9018,-1.0077,-1.0545,-1.0426,-1.0543,-1.0052,-0.9079,-0.8276,-0.7573,-0.6984,-0.7078,-0.6902,-0.6613,-0.6886,0.0,0.0,0.0,0.0,0.0,-0.6874,-0.7122,0.0,-0.7651,-0.7882,-0.8083,0.0,0.0,0.0,0.0,-0.7261,-0.7328,-0.7635,-0.806,-0.8435,-0.8571,-0.8711,-0.8804,-0.8804,-0.8804,-0.8804,-0.8804,-0.8804,-0.8851,-0.8984,-0.8998,-0.9131,-0.961,-0.9794,0.0,0.0,0.0,0.0,0.0,0.0,0.0,0.0,0.0,0.0,0.0,0.0,0.0,0.0,0.0,-1.7729,-1.7589,-1.7722,-1.7456,-1.667,-1.7312,-1.6988,-1.5695,-1.6988,-1.7187,-1.6539,-1.7252,0.0,0.0,0.0,0.0,-1.7582,-1.7582,-1.7488,-1.7414,-1.7522,-1.7482,-1.742,-1.7522,-1.7582,-1.7582,0.0,0.0,0.0,0.0,0.0,0.0,0.0,0.0,0.0,0.0,0.0,0.0,0.0,0.0,0.0,0.0,0.0,0.0,0.0,0.0,0.0,0.0,-0.7691,-0.7742,-0.7837,-0.8107,-0.862,-0.9413,-1.0306,-1.0687,-1.0644,-1.0937,-1.0348,-0.8922,-0.7987,-0.7421,-0.7167,-0.7048,-0.686,-0.6673,-0.6906,0.0,0.0,0.0,0.0,0.0,0.0,0.0,0.0,-0.7692,-0.8049,-0.8328,-0.7892,0.0,0.0,0.0,0.0,0.0,-0.7464,-0.8,-0.8456,-0.8409,-0.8591,-0.8804,-0.8804,-0.8804,-0.8804,-0.8804,-0.8804,-0.8838,-0.8925,-0.9111,0.0,0.0,0.0,0.0,0.0,0.0,0.0,0.0,0.0,0.0,0.0,0.0,0.0,0.0,0.0,0.0,0.0,0.0,0.0,-1.7589,-1.7842,-1.7829,-1.7522,-1.7562,-1.7562,-1.7515,-1.7515,-1.7361,-1.7139,-1.7335,-1.7393,0.0,0.0,0.0,-1.7515,-1.7515,-1.7462,-1.7388,-1.7482,-1.7488,-1.7455,-1.7549,-1.7582,-1.7582,0.0,0.0,0.0,0.0,0.0,0.0,0.0,0.0,0.0,0.0,0.0,0.0,0.0,0.0,0.0,0.0,0.0,0.0,0.0,0.0,0.0,-0.7691,-0.7691,-0.7975,-0.8524,-0.8482,-0.8757,-0.9413,-1.0732,-1.116,-1.0784,-1.1619,-1.0855,-0.8804,-0.8143,-0.7548,-0.7027,-0.7,-0.6973,-0.694,-0.698,0.0,0.0,0.0,0.0,0.0,0.0,0.0,0.0,-0.7228,-0.7702,-0.8255,-0.7393,0.0,0.0,0.0,0.0,0.0,-0.7686,-0.829,-0.8684,-0.8462,-0.8591,-0.8804,-0.8804,-0.8804,-0.8804,-0.8804,-0.8804,-0.8958,-0.9459,-0.9586,-0.986,0.0,0.0,0.0,0.0,0.0,0.0,0.0,0.0,0.0,0.0,0.0,0.0,0.0,0.0,0.0,0.0,0.0,0.0,-1.7582,-1.7629,-1.7515,-1.7266,-1.7514,-1.7514,-1.7266,-1.7266,-1.7112,-1.6774,-1.682,-1.6954,0.0,0.0,-1.7266,-1.7266,-1.7266,-1.6971,-1.6576,-1.7072,-1.7112,-1.6901,-1.7402,-1.7582,-1.7582,0.0,0.0,0.0,0.0,0.0,0.0,0.0,0.0,0.0,0.0,0.0,0.0,0.0,0.0,0.0,0.0,0.0,0.0,0.0,0.0,-0.7851,-0.8224,-0.807,-0.8202,-0.8701,-0.904,-0.9555,-1.0256,-1.1248,-1.1688,-1.1593,-1.1438,-1.0356,-0.8557,-0.8099,-0.7572,-0.7,-0.7,-0.7,-0.7,0.0,0.0,0.0,0.0,0.0,0.0,0.0,0.0,0.0,0.0,-0.7493,-0.8029,-0.7448,0.0,0.0,0.0,0.0,0.0,-0.7339,-0.7852,-0.8352,-0.8564,-0.9065,-0.9519,-0.9519,-0.9519,-0.9519,-0.9519,-0.9519,-0.9599,-0.9866,0.0,-1.0949,-1.1948,0.0,0.0,0.0,0.0,0.0,0.0,0.0,0.0,0.0,0.0,0.0,0.0,0.0,0.0,0.0,0.0,0.0,0.0,-1.7383,-1.7236,-1.6949,-1.707,-1.7041,-1.6907,-1.6907,-1.684,-1.6707,-1.6707,-1.678,-1.6907,0.0,-1.6907,-1.6907,-1.6907,-1.6754,-1.6533,-1.68,-1.6827,-1.676,-1.7188,-1.7501,-1.7582,0.0,0.0,0.0,0.0,0.0,0.0,0.0,0.0,0.0,0.0,0.0,0.0,0.0,0.0,0.0,0.0,0.0,0.0,0.0,-0.7691,-0.7968,-0.8553,-0.848,-0.8661,-0.9184,-0.9631,-1.0339,-1.1277,-1.1819,-1.2181,-1.2278,-1.1142,-0.9842,-0.8489,-0.8065,-0.7572,-0.7,-0.7,-0.7,-0.7,0.0,0.0,0.0,0.0,0.0,0.0,0.0,0.0,0.0,0.0,0.0,0.0,0.0,0.0,0.0,-0.7346,-0.716,-0.7161,-0.7301,-0.7706,-0.8232,-0.8751,-0.9337,-0.9913,-1.0296,-1.0321,-1.0294,-1.0575,-1.0628,-1.0608,-1.0541,-1.1216,0.0,-1.3268,0.0,0.0,0.0,0.0,0.0,0.0,0.0,0.0,0.0,0.0,0.0,0.0,0.0,0.0,0.0,0.0,0.0,0.0,-1.7013,-1.6868,-1.6591,-1.662,-1.6607,-1.6607,-1.6607,-1.6567,-1.65,-1.65,-1.654,-1.6607,-1.6607,-1.6607,-1.6607,-1.6607,-1.6567,-1.6506,-1.658,-1.6647,-1.6734,-1.7012,-1.7188,-1.7388,0.0,0.0,0.0,0.0,0.0,0.0,0.0,0.0,0.0,0.0,0.0,0.0,0.0,0.0,0.0,0.0,0.0,0.0,0.0,-0.7691,-0.7873,-0.8224,-0.8818,-0.9613,-1.0637,-1.0263,-1.0712,-1.201,-1.2506,-1.2607,-1.2278,-1.1142,-0.995,-0.8751,-0.8159,-0.7572,-0.7,-0.7,-0.7,-0.7,-0.7,0.0,0.0,0.0,0.0,0.0,0.0,0.0,0.0,0.0,0.0,0.0,0.0,0.0,-0.7899,-0.7859,-0.7662,-0.7578,-0.8147,-0.8504,-0.8818,-0.9104,-0.9024,-0.9325,-1.0929,-1.0915,-1.0868,-1.1917,-1.2144,-1.2064,-1.1826,-1.2478,-1.3353,-1.4226,0.0,0.0,0.0,0.0,0.0,0.0,0.0,0.0,0.0,0.0,0.0,0.0,0.0,0.0,0.0,0.0,0.0,0.0,0.0,-1.6371,-1.6339,-1.6313,-1.6355,-1.6355,-1.6355,-1.6159,-1.5844,-1.5844,-1.6039,-1.6355,-1.6355,-1.6355,-1.6355,-1.6355,-1.6146,-1.5919,-1.6192,-1.6466,-1.6707,-1.6734,-1.6747,-1.6807,0.0,0.0,0.0,0.0,0.0,0.0,0.0,0.0,0.0,0.0,0.0,0.0,0.0,0.0,0.0,0.0,0.0,0.0,0.0,-0.7621,-0.7896,-0.8609,-0.8712,-0.9316,-1.0539,-1.0975,-1.1764,-1.292,-1.3003,-1.2786,-1.2278,-1.1142,-0.9963,-0.8784,-0.8172,-0.7672,-0.731,-0.708,-0.7128,-0.7303,-0.7073,-0.674,0.0,0.0,0.0,0.0,0.0,0.0,0.0,0.0,-0.6868,-0.7308,-0.7326,-0.7749,-0.813,-0.7756,-0.7584,-0.7538,-0.7772,-0.8322,-0.8831,-0.8918,-0.9271,-0.9987,-1.1383,-1.153,-1.1692,-1.2665,-1.3006,-1.3067,-1.2993,0.0,-1.2961,0.0,0.0,0.0,0.0,0.0,0.0,0.0,0.0,0.0,0.0,0.0,0.0,0.0,0.0,0.0,0.0,0.0,0.0,0.0,0.0,-1.614,-1.579,-1.5948,-1.5999,-1.5999,-1.5999,-1.5939,-1.5784,-1.5784,-1.5892,-1.5999,-1.5999,-1.5999,-1.5999,-1.5999,-1.5925,-1.5791,-1.5952,-1.6179,-1.6433,-1.6433,-1.6553,-1.672,0.0,0.0,0.0,0.0,0.0,0.0,0.0,0.0,0.0,0.0,0.0,0.0,0.0,0.0,0.0,0.0,0.0,0.0,-0.7621,-0.753,-0.7794,-0.854,-0.8585,-0.9123,-1.0221,-1.1288,-1.2231,-1.3035,-1.3052,-1.2659,-1.1864,-1.0821,-0.9883,-0.9051,-0.8252,-0.7916,-0.7879,-0.7368,-0.7281,-0.7464,-0.7141,-0.6727,0.0,0.0,0.0,0.0,0.0,0.0,0.0,0.0,-0.6599,-0.7102,-0.7233,-0.7736,-0.817,-0.7873,-0.7779,-0.7752,-0.7658,-0.813,-0.8691,-0.8784,-0.9466,-1.0474,-1.1873,-1.2261,-1.269,-1.3921,-1.3854,-1.361,-1.3651,0.0,0.0,0.0,0.0,0.0,0.0,0.0,0.0,0.0,0.0,0.0,0.0,0.0,0.0,0.0,0.0,0.0,0.0,0.0,0.0,0.0,0.0,-1.58,-1.5509,-1.5645,-1.573,-1.5784,-1.5784,-1.5784,-1.5784,-1.5784,-1.5784,-1.5784,-1.5784,-1.5784,-1.5784,-1.5784,-1.5784,-1.5784,-1.5784,-1.5952,-1.6132,-1.6132,-1.6319,-1.6567,0.0,0.0,0.0,0.0,0.0,0.0,0.0,0.0,0.0,0.0,0.0,0.0,0.0,0.0,0.0,0.0,0.0,0.0,-0.7502,-0.7426,-0.7553,-0.787,-0.8475,-0.9131,-0.9877,-1.1067,-1.1879,-1.2305,-1.263,-1.2174,-1.0969,-1.0094,-0.9715,-0.9626,-0.8432,-0.8238,-0.8744,-0.7873,-0.7491,-0.7471,-0.7148,-0.6854,-0.6579,0.0,0.0,0.0,0.0,0.0,0.0,0.0,-0.6189,-0.6404,-0.7526,-0.7905,-0.7965,-0.8308,-0.8395,-0.8328,-0.7985,-0.815,-0.8476,-0.8744,-0.9479,-1.0595,-1.2395,-1.2993,-1.3794,-1.5845,-1.4856,-1.3619,-1.3775,-1.2581,0.0,0.0,0.0,0.0,0.0,0.0,0.0,0.0,0.0,0.0,0.0,0.0,0.0,0.0,0.0,0.0,0.0,0.0,0.0,0.0,0.0,0.0,-1.5493,-1.5493,-1.5588,-1.5784,-1.5784,-1.5784,-1.5784,-1.5784,-1.5784,-1.5784,-1.5784,-1.5784,-1.5784,-1.5784,-1.5784,-1.5784,-1.5784,-1.5784,-1.5784,-1.5784,-1.6012,-1.6321,0.0,0.0,0.0,0.0,0.0,0.0,0.0,0.0,0.0,0.0,0.0,0.0,0.0,0.0,0.0,0.0,0.0,0.0,-0.7502,-0.7349,-0.7389,-0.7669,-0.8084,-0.8475,-0.883,-0.9793,-1.0954,-1.2305,-1.2221,-1.1672,-1.0713,-1.0207,-0.9659,-0.9058,-0.8891,-0.8698,-0.8482,-0.7785,-0.7739,-0.808,-0.7564,-0.7154,-0.684,0.0,0.0,0.0,0.0,0.0,0.0,0.0,0.0,0.0,-0.7033,-0.7559,-0.7925,-0.8012,-0.8039,-0.8019,-0.7932,-0.8272,-0.8798,-0.9299,-1.0425,-1.171,-1.3066,-1.3293,-1.3439,-1.4292,-1.3394,-1.2384,-1.235,0.0,0.0,0.0,0.0,0.0,0.0,0.0,0.0,0.0,0.0,0.0,0.0,0.0,0.0,0.0,0.0,0.0,0.0,0.0,0.0,0.0,0.0,0.0,-1.522,-1.5404,-1.5588,-1.5784,-1.5784,-1.5784,-1.5784,-1.5784,-1.5784,-1.5784,-1.5784,-1.5784,-1.5778,-1.5635,-1.5588,-1.5588,-1.5588,-1.5588,-1.5588,-1.5737,-1.5838,-1.5965,0.0,0.0,0.0,0.0,0.0,0.0,0.0,0.0,0.0,0.0,-0.7691,-0.7691,0.0,0.0,0.0,0.0,0.0,0.0,-0.7468,-0.7245,-0.7254,-0.7551,-0.7855,-0.8304,-0.8904,-0.944,-1.0147,-1.1082,-1.1142,-1.0722,-0.9896,-1.004,-0.9893,-0.9512,-0.9686,-0.9573,-0.9219,-0.8502,-0.8275,-0.8355,-0.7866,-0.7468,-0.7154,0.0,0.0,0.0,0.0,0.0,0.0,0.0,0.0,0.0,-0.6533,-0.7007,-0.7426,-0.7675,-0.7812,-0.7932,-0.8052,-0.8617,-0.9299,-0.9916,-1.1169,-1.2559,-1.3736,-1.3817,-1.371,-1.4075,-1.2689,-1.1389,-1.1327,-0.9913,0.0,0.0,0.0,0.0,0.0,0.0,0.0,0.0,0.0,0.0,0.0,0.0,0.0,0.0,0.0,0.0,0.0,0.0,0.0,0.0,0.0,0.0,-1.5267,-1.5404,-1.5588,-1.5784,-1.5784,-1.5784,-1.5784,-1.5784,-1.5784,-1.5784,-1.5784,-1.5784,-1.5784,-1.5588,-1.5493,-1.5493,-1.5493,-1.5493,-1.554,-1.573,-1.5905,-1.5985,0.0,0.0,-0.5935,-0.6245,0.0,0.0,0.0,0.0,0.0,0.0,-0.7691,-0.7691,0.0,0.0,0.0,-0.7691,-0.7524,-0.7398,-0.7398,-0.7154,-0.7154,-0.7493,-0.7789,-0.8484,-0.9579,-0.9608,-0.9419,-0.9091,-0.973,-0.9626,-0.8791,-0.9719,-1.0274,-1.0512,-1.0566,-1.0546,-1.0412,-0.9471,-0.8791,-0.8335,-0.8012,-0.7742,-0.7424,-0.6861,0.0,0.0,0.0,0.0,0.0,0.0,0.0,0.0,-0.6088,-0.6377,-0.6687,-0.7276,-0.7642,-0.7939,-0.829,-0.9018,-0.9876,-1.0546,-1.1859,-1.3267,-1.4273,-1.4282,-1.4135,-1.4424,0.0,-1.0587,-1.0737,0.0,0.0,0.0,0.0,0.0,0.0,0.0,0.0,0.0,0.0,0.0,0.0,0.0,0.0,0.0,0.0,0.0,0.0,0.0,0.0,0.0,0.0,0.0,-1.5414,-1.5466,-1.5575,0.0,-1.5764,-1.5784,-1.5784,-1.5784,-1.5784,-1.5784,-1.5784,-1.5784,-1.5784,-1.5547,-1.5445,-1.5445,-1.5445,-1.5445,-1.5493,-1.5737,-1.5999,-1.6192,0.0,0.0,-0.6223,-0.6289,0.0,0.0,0.0,0.0,0.0,0.0,0.0,0.0,0.0,0.0,0.0,-0.7691,-0.7524,-0.7398,-0.7398,-0.7154,-0.7154,-0.7493,-0.8013,-0.8504,-0.8985,-0.8797,-0.851,-0.8185,-0.9265,-0.9325,-0.8523,-0.9869,-1.0285,-0.9923,-1.0385,-1.0174,-0.9437,-0.8558,-0.8112,-0.7999,-0.7932,-0.7742,-0.745,-0.7068,-0.6607,0.0,0.0,0.0,0.0,0.0,0.0,0.0,-0.6028,-0.6236,-0.6398,-0.6947,-0.7328,-0.7659,-0.805,-0.8903,-0.9957,-1.11,-1.2968,-1.4359,-1.3814,-1.3026,-1.2368,-1.2116,-1.1025,-1.0151,0.0,0.0,0.0,0.0,0.0,0.0,0.0,0.0,0.0,0.0,0.0,0.0,0.0,0.0,0.0,0.0,0.0,0.0,0.0,0.0,0.0,0.0,0.0,-1.4995,-1.4819,-1.527,-1.5476,0.0,-1.5718,-1.5784,-1.5784,-1.5784,-1.5784,-1.5784,-1.5784,-1.5784,-1.5784,-1.5363,-1.5178,-1.5178,-1.5178,-1.5178,-1.5226,-1.5642,-1.5872,-1.5912,0.0,0.0,0.0,0.0,0.0,0.0,0.0,0.0,0.0,0.0,0.0,0.0,0.0,-0.7691,0.0,0.0,-0.7524,-0.7398,-0.7398,-0.7154,-0.72,-0.7669,-0.8263,-0.8591,-0.8597,-0.831,-0.8016,-0.7709,-0.8348,-0.8489,-0.819,-0.9548,-1.0003,-0.9735,-1.0332,-1.0067,-0.9184,-0.8725,-0.8372,-0.813,-0.7965,-0.7742,-0.7437,-0.6981,-0.6453,-0.5903,-0.5454,0.0,0.0,0.0,0.0,0.0,0.0,0.0,-0.6077,-0.664,-0.7027,-0.7393,-0.796,-0.9018,-1.0395,-1.202,-1.3007,-1.3508,-1.3292,-1.2036,-1.0801,-1.0556,-0.9702,-0.9244,0.0,0.0,0.0,0.0,0.0,0.0,0.0,0.0,0.0,0.0,0.0,0.0,0.0,0.0,0.0,0.0,0.0,0.0,0.0,0.0,0.0,0.0,-1.4922,-1.4929,-1.4777,-1.512,-1.5245,-1.519,-1.5344,-1.5418,-1.5424,-1.5705,-1.5784,-1.5784,-1.5784,-1.5784,-1.5784,-1.5267,-1.5172,-1.5267,-1.5124,-1.5172,-1.5315,-1.5689,-1.5784,-1.5784,0.0,0.0,0.0,0.0,0.0,0.0,0.0,0.0,0.0,0.0,0.0,0.0,0.0,-0.767,-0.767,0.0,0.0,0.0,-0.7356,-0.718,-0.7299,-0.7806,-0.8345,-0.8544,-0.8328,-0.8003,-0.7722,-0.7513,-0.7513,-0.7629,-0.7932,-0.9078,-0.9633,-0.9729,-1.0171,-0.99,-0.9124,-0.8971,-0.8597,-0.8074,-0.7832,-0.7562,-0.7231,-0.672,-0.6179,-0.5671,-0.54,-0.5293,-0.5306,-0.5353,0.0,0.0,0.0,0.0,-0.5801,-0.6378,-0.672,-0.7085,-0.7771,-0.9104,-1.0723,-1.2459,-1.2427,-1.2076,-1.2343,-1.1042,-0.9713,-0.9384,-0.8609,0.0,0.0,0.0,0.0,0.0,0.0,0.0,0.0,0.0,0.0,0.0,0.0,0.0,0.0,0.0,0.0,0.0,0.0,0.0,0.0,0.0,-1.5164,-1.4867,-1.4908,-1.4908,-1.4861,-1.4955,-1.4981,-1.4928,-1.4937,-1.4918,-1.4932,-1.5365,-1.5658,-1.5711,-1.5758,-1.5784,-1.5784,-1.5267,-1.5267,-1.5493,-1.522,-1.5267,-1.554,-1.573,-1.5784,-1.5784,0.0,0.0,0.0,0.0,0.0,0.0,0.0,0.0,0.0,0.0,-0.7691,-0.7691,-0.7691,-0.7593,-0.7523,-0.7523,-0.7349,-0.7237,-0.7237,0.0,0.0,-0.7544,-0.7862,-0.8005,-0.7965,-0.7689,-0.7531,-0.7513,-0.7513,-0.7629,-0.7925,-0.8845,-0.9439,-0.9708,-0.9471,-0.9184,-0.8811,-0.806,-0.739,-0.6847,-0.704,-0.682,-0.6364,-0.6283,-0.6023,-0.5671,-0.54,-0.5293,-0.5333,-0.5571,-0.5661,0.0,0.0,0.0,-0.5778,-0.6149,-0.6439,-0.6746,-0.7192,-0.8837,-1.0492,-1.1012,-1.1571,-1.1592,-0.9979,0.0,-0.9484,0.0,0.0,0.0,0.0,0.0,0.0,0.0,0.0,0.0,0.0,0.0,0.0,0.0,0.0,0.0,0.0,0.0,0.0,0.0,0.0,0.0,0.0,-1.5068,-1.4814,-1.4222,-1.4449,-1.4462,-1.4208,-1.4754,-1.4836,-1.4583,-1.4614,-1.4636,-1.4642,-1.4714,-1.5028,-1.5471,-1.5718,-1.5784,-1.5784,-1.5267,-1.5267,-1.5493,-1.522,-1.5267,-1.554,-1.573,-1.5784,-1.5784,0.0,0.0,0.0,0.0,0.0,0.0,0.0,0.0,0.0,0.0,0.0,-0.7621,-0.7691,-0.7538,-0.7397,-0.728,-0.7231,-0.7167,-0.7097,-0.7345,-0.7513,-0.7513,-0.7762,-0.7826,-0.7675,-0.7558,-0.7404,-0.7214,-0.7214,-0.7462,-0.7919,-0.8472,-0.8911,-0.9185,-0.9031,-0.8718,-0.8252,-0.7732,-0.7243,-0.6814,-0.662,-0.66,-0.6587,-0.611,-0.595,-0.5923,-0.5461,-0.5293,-0.534,-0.5618,-0.5825,-0.6003,-0.6156,0.0,0.0,0.0,-0.6283,-0.658,-0.7555,-0.8566,-0.9544,-1.0509,-1.0263,-0.9762,-0.9496,-0.8828,-0.8168,-0.7749,0.0,0.0,0.0,0.0,0.0,0.0,0.0,0.0,0.0,0.0,0.0,0.0,0.0,0.0,0.0,0.0,0.0,0.0,0.0,0.0,-1.5028,-1.4803,-1.4522,-1.4102,-1.4208,-1.4215,-1.4088,-1.4206,-1.4136,-1.3883,-1.392,-1.3935,-1.3941,-1.4102,-1.4597,-1.5404,-1.5531,-1.5678,-1.5784,-1.5452,-1.5452,-1.5635,-1.5404,-1.5452,-1.5683,-1.5784,-1.5784,-1.5784,0.0,0.0,0.0,0.0,0.0,0.0,0.0,0.0,0.0,0.0,0.0,-0.7544,-0.7642,0.0,0.0,0.0,-0.7044,-0.701,-0.6914,-0.7188,-0.7377,-0.7377,-0.7552,-0.7566,-0.7383,-0.7303,-0.7174,-0.7,-0.7,-0.7346,-0.8025,-0.827,-0.8571,-0.8891,-0.8838,-0.8524,-0.7992,-0.7651,-0.7276,-0.686,-0.6539,-0.6566,-0.6747,-0.6183,-0.6176,-0.6361,-0.5687,-0.5501,0.0,0.0,0.0,0.0,0.0,-0.625,0.0,0.0,0.0,-0.6341,-0.7589,-0.8143,-0.8651,-0.9627,-0.8978,-0.8263,0.0,0.0,-0.7071,0.0,0.0,0.0,0.0,0.0,0.0,0.0,0.0,0.0,0.0,0.0,0.0,0.0,0.0,0.0,0.0,0.0,0.0,0.0,0.0,0.0,-1.5022,-1.4683,-1.4389,-1.4095,-1.4015,-1.3966,-1.3997,-1.3737,-1.3487,-1.3206,-1.3206,-1.3248,-1.3296,-1.3506,-1.4171,-1.5177,-1.5257,-1.5451,-1.5671,-1.5482,-1.5522,-1.5784,-1.5588,-1.5635,-1.5784,-1.5784,-1.5784,-1.5784,0.0,0.0,0.0,0.0,0.0,0.0,0.0,0.0,0.0,0.0,0.0,-0.7502,-0.7502,-0.7447,-0.7231,-0.6852,-0.6712,-0.6633,-0.6633,-0.6887,-0.702,-0.702,-0.704,0.0,-0.702,-0.678,-0.676,-0.7,-0.7,-0.7482,-0.8375,-0.8395,-0.8677,-0.9178,-0.8904,-0.8637,-0.8335,-0.7739,-0.7156,-0.6633,-0.686,-0.6667,-0.6278,-0.6604,-0.6905,-0.7041,-0.6169,0.0,0.0,0.0,0.0,0.0,0.0,0.0,-0.6135,0.0,0.0,0.0,-0.6667,-0.7476,-0.8059,-0.773,-0.7877,-0.7937,0.0,0.0,0.0,0.0,0.0,0.0,0.0,0.0,0.0,0.0,0.0,0.0,0.0,0.0,0.0,0.0,0.0,0.0,0.0,0.0,0.0,0.0,0.0,0.0,-1.5022,-1.4683,-1.4389,-1.4095,-1.3773,-1.3677,-1.3737,-1.3525,-1.318,-1.2756,-1.2756,-1.2839,-1.3004,-1.3023,-1.3587,-1.4583,-1.4863,-1.515,-1.5418,-1.5133,-1.5338,-1.5784,-1.5588,-1.5635,-1.5784,-1.5784,-1.5784,-1.5784,0.0,0.0,0.0,0.0,0.0,0.0,0.0,0.0,0.0,0.0,0.0,0.0,0.0,-0.7259,-0.6963,-0.6518,-0.6201,-0.6106,-0.6337,-0.6425,-0.6566,-0.674,-0.6747,-0.6747,-0.6747,-0.664,-0.6566,-0.6486,-0.6653,-0.7101,-0.7826,-0.8214,-0.8584,-0.8918,-0.8657,-0.8496,-0.8348,-0.7522,-0.7061,-0.686,-0.696,-0.7113,-0.7295,-0.7264,-0.7566,0.0,0.0,0.0,0.0,0.0,0.0,0.0,0.0,0.0,0.0,-0.5595,-0.5832,-0.6327,-0.6487,-0.7179,-0.7865,-0.7976,-0.7507,-0.7174,-0.7792,-0.7078,0.0,0.0,0.0,0.0,0.0,0.0,0.0,0.0,0.0,0.0,0.0,0.0,0.0,0.0,0.0,0.0,0.0,0.0,0.0,0.0,0.0,0.0,-1.4507,-1.4316,-1.4195,-1.4088,-1.3981,-1.3763,-1.3463,-1.3328,-1.3056,-1.255,-1.2758,-1.2894,-1.2985,-1.3149,-1.3487,-1.3985,-1.4306,-1.472,-1.513,-1.5226,-1.5358,-1.5571,-1.5657,-1.573,-1.5784,-1.5784,-1.5784,-1.5784,0.0,0.0,0.0,0.0,0.0,-0.7691,-0.7691,-0.7649,-0.7579,-0.7502,0.0,0.0,0.0,0.0,-0.6982,-0.6455,-0.6075,-0.5963,-0.6182,-0.6196,-0.6283,-0.6452,-0.6466,-0.6466,-0.6466,-0.6466,-0.6372,-0.6196,-0.6466,-0.6908,-0.752,-0.7906,-0.8355,-0.8784,-0.8315,-0.8261,-0.8502,-0.7776,-0.7399,-0.7326,-0.7519,-0.7726,-0.7925,-0.8094,0.0,0.0,0.0,0.0,0.0,0.0,0.0,0.0,0.0,0.0,0.0,0.0,0.0,-0.6446,-0.635,-0.6967,-0.7737,-0.8127,-0.7501,-0.705,-0.81,0.0,0.0,0.0,0.0,0.0,0.0,0.0,0.0,0.0,0.0,0.0,0.0,0.0,0.0,0.0,0.0,0.0,0.0,0.0,0.0,0.0,0.0,0.0,-1.416,-1.3875,-1.37,-1.3641,-1.3693,-1.3484,-1.2986,-1.2975,-1.2758,-1.2386,-1.2543,-1.2737,-1.2967,-1.3089,-1.342,-1.3822,-1.3997,-1.4362,-1.4836,-1.513,-1.5311,-1.5424,-1.5718,-1.5784,-1.5784,-1.5784,-1.5784,-1.5784,0.0,-0.7691,-0.7691,-0.7691,-0.7691,-0.7691,-0.7691,-0.7524,-0.7433,-0.7496,0.0,0.0,0.0,0.0,0.0,-0.6687,-0.6377,-0.6203,-0.6182,-0.6176,-0.6176,-0.6176,-0.6189,-0.6196,-0.6196,-0.6196,-0.6189,-0.6176,-0.6445,-0.6881,-0.7486,-0.7493,-0.7953,-0.8744,-0.7893,-0.7986,-0.8758,-0.8489,-0.8183,-0.7972,-0.8571,-0.8445,-0.8048,0.0,0.0,0.0,-0.7711,-0.7257,0.0,-0.6148,0.0,0.0,0.0,0.0,0.0,0.0,0.0,0.0,0.0,0.0,0.0,-0.7987,-0.7779,0.0,-0.81,0.0,0.0,0.0,0.0,0.0,0.0,0.0,0.0,0.0,0.0,0.0,0.0,0.0,0.0,0.0,0.0,0.0,0.0,0.0,0.0,0.0,0.0,-1.3591,-1.4019,-1.3318,-1.287,-1.2811,-1.2844,-1.2739,-1.2421,-1.2484,-1.236,-1.21,-1.21,-1.2408,-1.2889,-1.2889,-1.3324,-1.4088,-1.4088,-1.4249,-1.4529,-1.4874,-1.5124,-1.5411,-1.5705,-1.5771,-1.5784,-1.5784,-1.5784,-1.5784,-0.7676,-0.7691,-0.7691,-0.7691,-0.7691,-0.767,-0.7572,-0.751,-0.7504,0.0,0.0,0.0,-0.7535,-0.7318,-0.7189,-0.7236,-0.678,-0.6305,-0.5865,-0.5832,-0.5832,-0.5832,-0.6075,-0.6196,-0.6196,-0.6196,-0.6088,-0.5832,-0.5912,-0.6259,-0.6861,-0.7047,-0.7493,-0.8139,-0.7892,-0.7919,-0.8112,-0.7592,-0.7729,-0.8283,-0.8657,-0.8758,0.0,0.0,0.0,0.0,0.0,-0.7549,-0.7708,0.0,-0.6993,-0.7481,0.0,0.0,0.0,0.0,0.0,0.0,-0.684,0.0,0.0,0.0,0.0,0.0,-0.7907,-0.7331,0.0,0.0,0.0,0.0,0.0,0.0,0.0,0.0,0.0,0.0,0.0,0.0,0.0,0.0,0.0,0.0,0.0,0.0,0.0,0.0,-1.275,-1.2678,-1.28,-1.2854,-1.289,-1.2883,-1.2829,-1.2794,-1.2676,-1.2467,-1.2324,-1.2239,-1.2239,-1.2553,-1.3134,-1.3134,-1.3493,-1.4088,-1.4088,-1.4135,-1.4229,-1.4522,-1.4816,-1.5156,-1.5404,-1.5645,-1.5784,-1.5784,-1.5784,-1.5784,-0.7669,-0.7758,-0.7831,-0.7895,-0.807,-0.8149,-0.7938,-0.7987,-0.7981,0.0,0.0,0.0,-0.7889,-0.7903,-0.7846,-0.7675,-0.7114,-0.6573,-0.6106,-0.5845,-0.5694,-0.5694,-0.5878,-0.605,-0.6189,-0.631,-0.6151,-0.5694,-0.5959,-0.6132,-0.6233,-0.6647,-0.7073,-0.7526,-0.7406,-0.7559,-0.7859,-0.7126,-0.7435,-0.8449,-0.8958,0.0,0.0,-0.9011,-0.8768,0.0,0.0,0.0,-0.7259,-0.6466,-0.6789,0.0,0.0,0.0,0.0,0.0,0.0,0.0,0.0,0.0,0.0,0.0,0.0,0.0,-0.8044,-0.7609,-0.7241,0.0,0.0,0.0,0.0,0.0,0.0,0.0,0.0,0.0,0.0,0.0,0.0,0.0,0.0,0.0,0.0,0.0,0.0,-1.2278,-1.2074,-1.1951,-1.1944,-1.2101,-1.2286,-1.2402,-1.2157,-1.2127,-1.2332,-1.2124,-1.2068,-1.2187,-1.2261,-1.2625,-1.3206,-1.3073,-1.3407,-1.4082,-1.3955,-1.3975,-1.4102,-1.4269,-1.4589,-1.5035,-1.5284,-1.5571,-1.5784,-1.5784,-1.5784,-1.5784,0.0,-0.7896,-0.8053,-0.8252,-0.8599,-0.882,-0.8637,-0.8697,-0.8658,0.0,-0.8445,-0.8569,-0.8636,-0.8958,-0.8865,-0.8119,-0.7466,-0.6966,-0.666,-0.6086,-0.5758,-0.5758,-0.5774,-0.5932,-0.6236,-0.6506,-0.6346,-0.5758,-0.6253,-0.6239,-0.5772,-0.6299,-0.67,-0.694,-0.6707,-0.7034,-0.7712,-0.7001,-0.7341,-0.8444,-0.9259,-0.9387,0.0,0.0,-0.8819,-0.8053,-0.7113,-0.6724,-0.6588,-0.6056,-0.6093,0.0,0.0,0.0,0.0,0.0,-0.7326,0.0,0.0,0.0,0.0,0.0,0.0,0.0,-0.8274,-0.8133,-0.8055,0.0,0.0,0.0,0.0,0.0,0.0,0.0,0.0,0.0,0.0,0.0,0.0,0.0,0.0,0.0,0.0,-1.2068,-1.2134,-1.2346,-1.1848,-1.1506,-1.1409,-1.1274,-1.1327,-1.1568,-1.1172,-1.1153,-1.1611,-1.1614,-1.1742,-1.1957,-1.2174,-1.2605,-1.3153,-1.2911,-1.3239,-1.3975,-1.37,-1.3753,-1.4041,-1.4075,-1.4416,-1.4988,-1.5237,-1.5524,-1.5738,-1.5771,-1.5784,-1.5784,-0.8099,-0.8055,-0.8166,-0.8673,-0.8746,-0.8839,-0.9178,-0.8849,-0.8833,-0.9601,-0.9561,-0.9635,-1.011,-0.9392,-0.8891,-0.8951,-0.8205,-0.7499,-0.6953,-0.6412,-0.6109,-0.6109,-0.6311,-0.6446,-0.6519,-0.6787,-0.6653,-0.6109,-0.5945,-0.5945,-0.6109,-0.6223,-0.6412,-0.6673,-0.6613,-0.6687,-0.6874,-0.7189,0.0,-0.8207,-0.8758,0.0,-0.9318,-0.9138,-0.8867,-0.8477,-0.7576,-0.7702,-0.8318,-0.8646,-0.8229,-0.7616,0.0,0.0,0.0,0.0,0.0,0.0,0.0,0.0,0.0,0.0,0.0,0.0,-0.8057,-0.8026,-0.8088,0.0,0.0,0.0,0.0,0.0,0.0,0.0,0.0,0.0,0.0,0.0,0.0,0.0,0.0,0.0,0.0,-1.3024,-1.2963,-1.2797,-1.2179,-1.1654,-1.1325,-1.0953,-1.0744,-1.0794,-1.1083,-1.116,-1.1045,-1.1614,-1.1833,-1.1664,-1.2118,-1.2492,-1.2878,-1.2811,-1.3018,-1.3394,-1.3527,-1.3633,-1.3706,-1.3988,-1.4295,-1.4636,-1.493,-1.5224,-1.5504,-1.5745,-1.5784,-1.5784,-0.8202,-0.8275,-0.8513,-0.9055,-0.9239,-0.9432,-0.98,-0.9746,-0.9811,-1.0291,-1.0341,-1.0311,-1.0171,-0.9726,-0.9311,-0.9024,-0.849,-0.7896,-0.7281,-0.6834,-0.6546,-0.6399,-0.6533,-0.6747,-0.7042,-0.7021,-0.6807,-0.6392,-0.6238,-0.6005,-0.5759,-0.6055,-0.6405,-0.6794,-0.6519,-0.672,-0.7248,-0.7115,-0.741,-0.8055,-0.881,0.0,-0.9354,-0.8983,-0.8737,-0.8484,-0.7679,-0.7674,-0.8124,-0.8517,-0.8467,0.0,0.0,-0.8503,-0.8762,0.0,-0.8476,-0.8722,0.0,0.0,0.0,-0.8591,0.0,0.0,0.0,-0.8063,-0.7963,-0.8197,0.0,0.0,0.0,0.0,0.0,0.0,0.0,0.0,0.0,0.0,0.0,0.0,0.0,0.0,0.0,-1.2543,-1.2746,-1.2615,-1.2297,-1.1881,-1.132,-1.0944,-1.0666,-1.0465,-1.0405,-1.0535,-1.0802,-1.1116,-1.1435,-1.1649,-1.1974,-1.2384,-1.2777,-1.263,-1.2779,-1.322,-1.3327,-1.3467,-1.3626,-1.3968,-1.4175,-1.4335,-1.4629,-1.501,-1.5398,-1.5398,-1.5578,-1.5758,-0.8202,-0.8421,-0.877,-0.9271,-0.9591,-0.988,-1.0204,-1.0404,-1.0516,-1.0598,-1.0894,-1.0828,-1.0174,-1.0214,-1.002,-0.9365,-0.8945,-0.8502,-0.7953,0.0,0.0,-0.6961,-0.6767,-0.6947,-0.7564,-0.7208,-0.6854,-0.6526,-0.6466,-0.6077,-0.5387,-0.5887,-0.6372,-0.684,-0.6499,-0.686,-0.7692,-0.7108,0.0,-0.82,0.0,-0.9351,-0.9332,-0.9005,-0.8803,-0.8623,-0.8021,-0.7809,-0.7839,-0.8041,-0.8414,-0.878,-0.8406,-0.8848,0.0,0.0,0.0,0.0,0.0,0.0,0.0,0.0,0.0,-0.8711,0.0,0.0,0.0,-0.8339,0.0,0.0,0.0,0.0,0.0,0.0,0.0,0.0,0.0,0.0,0.0,0.0,0.0,0.0,0.0,-1.1706,-1.2252,-1.2416,-1.2343,-1.1973,-1.137,-1.1022,-1.0612,-1.017,-0.9787,-0.9895,-1.0527,-1.0635,-1.1008,-1.163,-1.1866,-1.2239,-1.269,-1.2412,-1.2572,-1.3046,-1.316,-1.3307,-1.3547,-1.3941,-1.4088,-1.4115,-1.4409,-1.481,-1.5204,-1.5075,-1.5257,-1.5638,-0.8158,-0.8281,-0.8525,-0.9113,-0.9255,-0.9479,-1.0033,-0.9706,-0.9673,-1.0486,-1.1035,-1.1436,-1.1638,-1.1189,-1.0955,-1.1082,0.0,0.0,-0.9481,0.0,-0.7905,-0.8188,0.0,0.0,-0.7839,-0.7293,-0.6754,-0.6243,-0.5939,-0.5758,-0.5648,-0.5731,-0.5956,-0.631,-0.672,-0.6973,-0.7133,0.0,-0.8209,0.0,-0.9076,-0.9167,0.0,-0.9414,-0.9494,-0.9463,-0.9299,-0.9253,-0.9291,0.0,-0.9612,-0.9673,0.0,-0.9699,-0.9725,0.0,0.0,0.0,0.0,0.0,0.0,0.0,-0.9531,0.0,0.0,0.0,-0.8625,-0.8438,0.0,0.0,0.0,0.0,0.0,0.0,0.0,0.0,0.0,0.0,0.0,0.0,0.0,0.0,0.0,0.0,-1.2097,-1.2865,-1.2411,-1.1915,-1.15,-1.0887,-1.0264,-0.96,-0.9775,-0.9907,-0.9991,-1.0635,-1.1102,-1.1344,-1.1775,-1.2133,-1.2351,-1.2318,-1.2338,-1.2438,-1.2973,-1.3227,-1.33,-1.3854,-1.4088,-1.4115,-1.4409,-1.4563,-1.4649,-1.4877,-1.5055,-1.5142,-0.7959,-0.8262,-0.8553,-0.8802,-0.9038,0.0,0.0,-1.0203,-1.0609,-1.1015,-1.1423,-1.1663,-1.1617,0.0,0.0,0.0,0.0,-1.0107,0.0,0.0,-0.8492,0.0,0.0,0.0,0.0,-0.7313,-0.682,-0.6425,-0.5939,-0.5625,-0.5464,-0.5631,-0.6146,-0.6969,-0.7189,0.0,-0.8571,0.0,-0.8665,0.0,0.0,0.0,0.0,-0.9768,-0.9905,-0.9763,-0.956,-0.9516,-0.9516,0.0,-0.9772,0.0,0.0,0.0,0.0,0.0,0.0,0.0,0.0,0.0,0.0,0.0,0.0,0.0,-0.8964,0.0,-0.8571,0.0,0.0,0.0,0.0,0.0,0.0,0.0,0.0,0.0,0.0,0.0,0.0,0.0,0.0,0.0,0.0,0.0,0.0,0.0,0.0,-1.2423,-1.2547,-1.188,-1.115,-1.0445,-1.0073,-0.9979,-1.013,-1.0555,-1.1039,-1.1535,-1.1834,-1.2114,-1.2305,-1.2305,-1.2305,-1.2325,-1.2752,-1.3046,-1.324,-1.3661,-1.3928,-1.4095,-1.4222,-1.4369,-1.4516,-1.4476,-1.4821,-1.5211,-0.7732,-0.8087,-0.8345,-0.8451,-0.8742,-0.9098,0.0,0.0,-1.0849,-1.1016,-1.1323,0.0,-1.1657,-1.155,0.0,0.0,-1.1456,-1.0942,0.0,0.0,-0.921,0.0,0.0,0.0,0.0,0.0,0.0,-0.6606,-0.6086,-0.5765,-0.5655,-0.5772,-0.6439,-0.752,-0.7665,-0.8404,-0.9473,0.0,-0.9185,-0.9285,-0.9548,-0.9593,-0.9555,-1.0068,-1.0103,-0.9877,-0.9756,-0.9608,-0.9516,-0.9612,-0.9848,0.0,-0.9845,0.0,0.0,0.0,0.0,0.0,-0.9979,0.0,0.0,0.0,0.0,0.0,0.0,0.0,0.0,0.0,0.0,0.0,0.0,0.0,0.0,0.0,0.0,0.0,0.0,0.0,0.0,0.0,0.0,0.0,0.0,0.0,0.0,0.0,-1.2072,-1.223,-1.2648,-1.233,-1.1793,-1.105,-1.0515,-1.0327,-1.0458,-1.0532,-1.0945,-1.1592,-1.1775,-1.2041,-1.2305,-1.2305,-1.2305,-1.2318,-1.2656,-1.2911,-1.3113,-1.3447,-1.3726,-1.3975,-1.4055,-1.4215,-1.4376,-1.4168,-1.4543,-1.5137,-0.7453,-0.7578,-0.7732,-0.8048,-0.8295,0.0,0.0,0.0,0.0,0.0,0.0,0.0,0.0,0.0,0.0,0.0,0.0,-1.2859,-1.2245,0.0,-1.0234,0.0,0.0,-0.8199,0.0,0.0,0.0,0.0,-0.633,-0.6317,-0.6559,-0.6303,-0.6653,-0.7533,-0.8107,-0.858,-0.8957,-0.9521,-1.0028,-1.043,-1.0196,-1.0455,-1.0942,0.0,-1.0007,-0.994,-1.0095,0.0,0.0,-0.9862,-1.0199,0.0,0.0,0.0,0.0,0.0,0.0,0.0,0.0,0.0,0.0,-0.9937,0.0,0.0,0.0,0.0,-0.9486,0.0,0.0,0.0,0.0,0.0,0.0,-0.7952,0.0,0.0,0.0,0.0,0.0,0.0,0.0,0.0,0.0,0.0,0.0,-1.123,-1.0916,-1.0769,-1.1062,-1.167,-1.1639,-1.0821,-1.103,-1.1055,-1.0896,-1.0706,-1.0851,-1.1306,-1.152,-1.185,-1.2305,-1.2305,-1.2305,-1.2318,-1.2656,-1.279,-1.2844,-1.34,-1.3613,-1.3646,-1.3975,-1.4095,-1.4102,-1.4088,-1.4282,-1.4583,-0.7471,-0.7658,-0.7789,-0.7711,-0.8084,0.0,0.0,-0.9472,0.0,0.0,0.0,0.0,0.0,-1.3445,-1.3622,0.0,0.0,-1.3081,-1.2677,-1.1583,0.0,0.0,0.0,-0.9029,0.0,0.0,0.0,0.0,0.0,-0.678,-0.688,-0.6995,-0.7316,-0.7796,-0.8397,-0.9095,0.0,0.0,0.0,0.0,0.0,-1.058,-1.1249,0.0,0.0,-1.0346,-1.0236,-1.0001,0.0,-0.983,-1.014,-1.044,-1.0168,-1.0459,-1.0861,-1.071,-1.0638,0.0,0.0,0.0,-1.0763,-1.0235,0.0,0.0,0.0,0.0,0.0,0.0,0.0,0.0,0.0,0.0,0.0,-0.8243,0.0,0.0,0.0,0.0,0.0,0.0,0.0,0.0,0.0,0.0,0.0,-1.0181,-1.0513,-1.1048,0.0,-1.1862,-1.1853,-1.1988,-1.1549,-1.1304,-1.1238,-1.1314,-1.1376,-1.1508,-1.1692,-1.1981,-1.2305,-1.2305,-1.2305,-1.2311,-1.2412,-1.2685,-1.3066,-1.3273,-1.3587,-1.3948,-1.4048,-1.4088,-1.4088,-1.4088,-1.4269,-1.4563,-0.7812,-0.7862,-0.7879,-0.7832,0.0,0.0,0.0,0.0,0.0,0.0,-1.2058,0.0,-1.3955,0.0,-1.4183,0.0,-1.42,-1.3644,-1.2966,-1.2278,0.0,-1.1194,-1.0519,0.0,0.0,0.0,0.0,0.0,0.0,-0.7502,-0.7502,-0.7589,-0.7849,-0.8232,-0.8637,-0.9317,-1.0193,-1.0346,-1.0531,0.0,0.0,-1.0873,0.0,0.0,-1.091,-1.082,0.0,-1.0302,-1.0044,-1.0102,-1.0288,-1.0452,-1.0218,-1.0433,-1.0772,-1.0656,-1.0643,-1.0657,-1.082,-1.0915,0.0,-1.0529,-1.0346,0.0,-0.9495,0.0,0.0,0.0,0.0,0.0,0.0,0.0,0.0,-0.853,-0.819,0.0,0.0,-0.6794,0.0,0.0,0.0,0.0,0.0,0.0,-0.8818,-0.9692,-0.9949,-1.0573,0.0,0.0,-1.1789,-1.214,-1.1736,-1.1418,-1.1249,-1.1392,-1.1465,-1.1471,-1.1753,-1.206,-1.2305,-1.2305,-1.2305,-1.2305,-1.2305,-1.2774,-1.3521,-1.3285,-1.3655,-1.4386,-1.4168,-1.4088,-1.4088,-1.4088,-1.4335,-1.4736,-0.8402,-0.817,-0.8059,0.0,-0.8851,0.0,0.0,0.0,-1.0821,0.0,-1.2024,-1.2846,-1.4041,-1.4416,-1.4696,-1.5028,-1.5042,-1.4509,-1.3394,-1.3025,0.0,0.0,-1.1419,-1.1062,-1.1127,0.0,0.0,0.0,0.0,0.0,-0.8435,-0.8092,-0.8245,-0.8804,-0.8804,0.0,-1.0034,-1.0294,-1.0757,-1.1409,-1.1409,-1.1298,-1.1149,-1.1335,0.0,-1.1316,-1.1168,-1.0857,-1.0552,-1.0685,-1.0664,-1.0556,-1.0598,-1.0449,-1.0328,-1.0616,-1.0521,-1.0458,-1.0885,-1.1139,-1.122,-1.084,0.0,0.0,0.0,0.0,-1.0392,0.0,0.0,0.0,0.0,0.0,0.0,-0.8811,-0.8292,0.0,0.0,0.0,0.0,0.0,0.0,0.0,0.0,-0.8082,-0.8366,-0.9713,-0.9255,-0.9382,0.0,0.0,0.0,-1.1303,-1.1571,-1.1496,-1.1042,-1.1122,-1.1176,-1.125,-1.1702,-1.206,-1.2305,-1.2305,-1.2305,-1.2305,-1.2305,-1.3,-1.4087,-1.3517,-1.3933,-1.4922,-1.4421,-1.4257,-1.4228,-1.4151,-1.4482,-1.5109,-0.8442,-0.8664,-0.8898,0.0,-0.8784,-0.8891,0.0,0.0,0.0,0.0,-1.326,-1.4075,-1.5251,-1.5312,-1.5338,-1.5551,-1.5219,0.0,0.0,0.0,0.0,-1.3335,-1.2277,-1.1607,-1.1468,-1.0506,0.0,-0.975,0.0,0.0,-0.8984,-0.8691,-0.8664,-0.8804,-0.8804,-0.9345,-1.0212,-1.0123,-1.0514,-1.1186,-1.1484,-1.1595,0.0,0.0,-1.192,-1.2005,-1.1608,-1.1292,-1.1017,-1.1051,-1.1188,-1.1233,-1.0751,-1.0939,-1.1232,-1.0809,-1.0773,-1.0924,-1.1027,-1.123,-1.1333,-1.1166,-1.1097,-1.0994,0.0,0.0,0.0,0.0,0.0,0.0,0.0,0.0,0.0,0.0,0.0,0.0,0.0,0.0,0.0,0.0,0.0,0.0,0.0,-0.7717,-0.8177,-0.8543,-0.8818,0.0,0.0,0.0,0.0,-1.1413,-1.1771,-1.1862,-1.175,-1.1746,-1.1763,-1.1722,-1.183,-1.206,-1.2305,-1.2305,-1.2305,-1.2305,-1.2305,-1.3081,-1.4396,-1.4212,-1.4996,-1.6205,-1.6093,-1.6236,-1.6323,-1.4905,-1.4783,-1.5304,-0.8784,-0.9191,0.0,-0.9597,0.0,0.0,-1.0556,0.0,0.0,-1.3013,-1.3721,0.0,-1.517,-1.5458,-1.5683,-1.5778,-1.553,0.0,-1.5037,0.0,0.0,-1.3741,-1.318,-1.2681,-1.2309,-1.1474,0.0,-1.0307,0.0,0.0,-0.9024,-0.8884,-0.8738,-0.8624,-0.8751,-0.92,-0.9938,-1.0464,-1.0852,-1.1095,-1.1619,0.0,0.0,-1.1892,-1.2003,-1.202,-1.182,-1.1657,-1.1519,-1.1519,-1.1475,-1.137,-1.0965,-1.1026,-1.1169,-1.0876,-1.0845,-1.0966,-1.1193,-1.1298,-1.1372,-1.1363,-1.1429,-1.1416,-1.1107,-1.1242,-1.1263,0.0,0.0,0.0,0.0,0.0,0.0,0.0,0.0,0.0,0.0,0.0,0.0,0.0,0.0,0.0,0.0,0.0,-0.817,0.0,0.0,0.0,0.0,0.0,0.0,-1.0972,-1.1992,-1.2214,-1.1579,-1.2673,-1.2794,-1.1906,-1.2385,-1.2501,-1.2305,-1.2305,-1.2482,-1.2806,-1.2806,-1.3866,-1.555,-1.5173,-1.5921,-1.7229,-1.6862,-1.7,-1.736,-1.6299,-1.6226,-1.6629,-0.9217,-0.9717,0.0,0.0,0.0,0.0,0.0,-1.1688,0.0,-1.324,0.0,-1.4416,-1.4619,-1.5371,-1.5784,-1.5784,0.0,-1.5458,-1.4743,-1.5097,-1.4883,-1.382,-1.3955,-1.3774,-1.322,-1.2572,0.0,0.0,0.0,0.0,-0.8804,-0.8804,-0.8651,-0.8415,-0.8677,0.0,0.0,-1.1,-1.1388,-1.1117,-1.1758,-1.1781,-1.1484,-1.1892,-1.1929,-1.1781,-1.1966,-1.1956,-1.1924,-1.1924,-1.1651,-1.1329,-1.1261,-1.1032,-1.0807,-1.0909,-1.0887,-1.0931,-1.1347,-1.1446,-1.1446,-1.1446,-1.1706,-1.1872,-1.1342,-1.1363,-1.1396,-1.0928,-1.0521,0.0,0.0,0.0,0.0,0.0,0.0,0.0,0.0,0.0,0.0,0.0,0.0,0.0,0.0,0.0,0.0,0.0,0.0,0.0,0.0,0.0,0.0,0.0,-1.2073,0.0,-1.1169,0.0,-1.3752,-1.2163,-1.3064,-1.3135,-1.2445,-1.2342,-1.2666,-1.3353,-1.3506,-1.4832,-1.6788,-1.6182,-1.6826,-1.8078,-1.735,-1.7438,-1.7986,-1.7986,-1.828,-1.8535,-0.9257,0.0,0.0,0.0,0.0,-1.2044,-1.2786,-1.3313,-1.3781,-1.4235,-1.501,-1.5545,-1.5591,-1.5691,-1.5784,-1.5784,-1.5784,0.0,0.0,0.0,0.0,-1.4743,-1.4082,-1.352,-1.322,-1.2378,-1.1638,0.0,0.0,0.0,-0.8804,-0.8804,-0.8651,-0.8415,0.0,0.0,-1.0203,-1.1055,0.0,-1.1378,-1.1983,-1.2003,-1.1706,-1.2077,-1.2224,-1.2187,-1.204,-1.2007,-1.1968,-1.1968,-1.2045,-1.2032,-1.165,-1.1634,-1.1698,-1.1323,-1.1384,-1.1532,-1.162,-1.1632,-1.1632,-1.1632,-1.1818,-1.1977,-1.1879,-1.2005,-1.2118,-1.2017,-1.157,-1.1102,-1.0955,0.0,0.0,0.0,0.0,0.0,0.0,0.0,0.0,0.0,0.0,0.0,0.0,0.0,0.0,0.0,0.0,0.0,0.0,0.0,0.0,0.0,0.0,0.0,0.0,0.0,0.0,-1.3546,-1.3521,-1.3426,-1.328,-1.2592,-1.2378,-1.2569,-1.3569,-1.4758,-1.6065,-1.6909,-1.7966,-1.9054,-1.8895,-1.9102,-1.9522,-1.9522,-1.9969,-2.0272,0.0,0.0,0.0,0.0,0.0,0.0,0.0,-1.4516,0.0,-1.4563,-1.489,-1.515,-1.515,-1.5511,-1.5784,-1.5784,-1.5784,-1.5784,-1.5784,-1.5424,-1.5169,-1.5015,-1.4409,0.0,-1.3407,-1.2859,-1.2051,-1.0995,0.0,0.0,0.0,0.0,-0.8424,-0.8176,0.0,-0.9601,0.0,0.0,0.0,-1.1559,-1.2256,-1.2289,-1.1911,-1.2397,-1.2394,-1.214,-1.211,-1.199,-1.1855,-1.1855,-1.1892,-1.1951,-1.167,-1.1702,-1.1803,-1.1664,-1.1636,-1.1706,-1.1818,-1.1781,-1.1669,-1.1558,-1.1706,-1.1855,-1.1855,-1.2003,-1.2148,-1.2111,-1.185,-1.1516,-1.1076,-1.0401,0.0,0.0,0.0,0.0,0.0,0.0,0.0,0.0,0.0,0.0,0.0,0.0,0.0,0.0,0.0,0.0,0.0,0.0,0.0,0.0,0.0,0.0,0.0,0.0,0.0,-1.3689,-1.4364,-1.4466,-1.4034,-1.328,-1.3135,-1.3542,-1.4326,-1.5348,-1.6547,-1.79,-1.8813,-1.9301,-1.9301,-1.9687,-2.0195,-2.0195,-2.0698,-2.112,0.0,-1.1283,0.0,0.0,-1.2999,0.0,-1.4416,-1.5218,-1.5531,-1.489,-1.4803,-1.4803,-1.4803,-1.5371,-1.5784,-1.5784,-1.5784,-1.5758,-1.5745,-1.5464,-1.5177,-1.4928,-1.4583,-1.4182,-1.3613,-1.338,-1.2639,0.0,0.0,0.0,0.0,0.0,0.0,0.0,0.0,0.0,0.0,0.0,-1.2061,-1.1862,-1.2545,-1.2553,-1.218,-1.2682,-1.2623,-1.2255,-1.2241,-1.2081,-1.187,-1.1688,-1.1669,-1.1705,-1.1633,-1.1644,-1.1736,-1.1886,-1.187,-1.1818,-1.2003,-1.1929,-1.1744,-1.1558,-1.1595,-1.1706,-1.1744,-1.1892,-1.2018,-1.1975,-1.1946,-1.169,-1.1069,-1.0629,0.0,0.0,0.0,0.0,0.0,0.0,0.0,0.0,0.0,0.0,0.0,0.0,0.0,0.0,0.0,0.0,0.0,0.0,0.0,0.0,0.0,-1.3344,-1.2183,0.0,-1.5356,0.0,-1.5256,-1.5471,-1.4824,-1.407,-1.4109,-1.478,-1.5323,-1.6292,-1.7567,-1.8801,-1.9301,-1.9271,-1.9145,-1.9611,-2.036,-2.0232,-2.0755,-2.1424,0.0,0.0,0.0,0.0,0.0,0.0,0.0,-1.5218,-1.5751,-1.5671,-1.5658,-1.5658,-1.5658,-1.5731,-1.5784,-1.5784,-1.5784,-1.5718,-1.5451,-1.5209,-1.487,-1.4576,-1.4282,-1.3975,-1.3613,-1.358,-1.3094,0.0,0.0,0.0,0.0,0.0,0.0,0.0,0.0,0.0,0.0,-1.2044,-1.2202,-1.2536,-1.2791,-1.2752,-1.2574,-1.2995,-1.3114,-1.3014,-1.2608,-1.2433,-1.2305,-1.1652,-1.1558,-1.1706,-1.1675,-1.1681,-1.1737,-1.1933,-1.1983,-1.2003,-1.2231,-1.212,-1.1966,-1.1966,-1.1818,-1.1744,-1.1929,-1.2003,-1.2033,-1.2234,-1.2051,-1.1655,-1.0869,-1.1028,-1.0995,0.0,0.0,0.0,0.0,0.0,0.0,0.0,0.0,0.0,0.0,0.0,0.0,0.0,0.0,0.0,0.0,0.0,0.0,-1.1671,0.0,-1.202,-1.307,-1.421,0.0,-1.5959,-1.5854,-1.5762,-1.5657,-1.4859,-1.4748,-1.5229,-1.6342,-1.7675,-1.9113,-1.9234,-1.9301,-1.9259,-1.8693,-1.91,-1.9902,-1.9415,-2.0058,-2.1163,0.0,0.0,0.0,0.0,0.0,0.0,0.0,-1.5558,-1.5784,-1.5784,-1.5784,-1.5784,-1.5784,-1.5784,-1.5784,-1.5784,-1.5784,-1.5705,-1.5418,-1.5169,-1.483,-1.4492,-1.4242,-1.4035,-1.3915,-1.3693,-1.3287,0.0,0.0,0.0,0.0,0.0,0.0,0.0,0.0,-1.1686,-1.2173,-1.2738,-1.2877,-1.281,-1.3015,-1.2969,-1.281,-1.3094,-1.3093,-1.2939,-1.2804,-1.2524,-1.2135,-1.1714,-1.1558,-1.1521,-1.1521,-1.1595,-1.1706,-1.1781,-1.2003,-1.215,-1.212,-1.215,-1.215,-1.204,-1.1929,-1.1855,-1.1818,-1.1892,-1.2003,-1.1966,-1.1948,-1.1913,-1.1717,-1.1514,-1.1307,0.0,0.0,0.0,0.0,0.0,0.0,0.0,0.0,0.0,0.0,0.0,0.0,0.0,0.0,0.0,0.0,0.0,0.0,-1.1142,0.0,-1.2863,-1.374,-1.4737,-1.5614,-1.631,-1.6678,-1.6696,-1.6438,-1.5683,-1.5655,-1.6275,-1.6489,-1.7322,-1.8527,-1.8527,-1.8527,-1.8563,-1.9091,-1.9682,-2.0245,-2.0296,-2.0779,-2.144,-1.3952,0.0,-1.3571,0.0,-1.4506,-1.4602,-1.5651,-1.5784,-1.5784,-1.5784,-1.5784,-1.5784,-1.5784,-1.5784,-1.5784,-1.5784,-1.5784,-1.5705,-1.5418,-1.5204,-1.4923,-1.4536,-1.4322,0.0,-1.4088,-1.3881,-1.3567,-1.3179,-1.2251,0.0,0.0,0.0,0.0,0.0,-1.1975,-1.2403,-1.2538,-1.3304,-1.3443,-1.3137,-1.3299,-1.3258,-1.3137,-1.3386,-1.3333,-1.3186,-1.3035,-1.27,-1.2313,-1.1913,-1.1706,-1.1558,-1.1521,-1.1595,-1.1706,-1.1781,-1.2003,-1.2194,-1.2114,-1.2194,-1.2268,-1.2114,-1.204,-1.1966,-1.1892,-1.1892,-1.1892,-1.1818,-1.1966,-1.2114,-1.2187,-1.1921,-1.1618,0.0,0.0,0.0,0.0,0.0,0.0,0.0,-1.1797,-1.1432,-1.0623,0.0,0.0,0.0,0.0,0.0,0.0,0.0,0.0,0.0,0.0,0.0,0.0,-1.4721,-1.5568,-1.6347,-1.6785,-1.7017,-1.7057,-1.6777,-1.6965,-1.7471,-1.701,-1.7279,-1.7997,-1.7715,-1.7823,-1.8252,-1.8979,-1.9835,-2.0698,-2.0831,-2.1201,-2.1696,-1.4467,-1.436,-1.4448,-1.5334,-1.5473,-1.5575,-1.5778,-1.5784,-1.5784,-1.5784,-1.5784,-1.5784,-1.5784,-1.5784,-1.5784,-1.5784,-1.5784,-1.5705,-1.5418,-1.5391,-1.513,0.0,0.0,-1.4382,-1.4095,-1.4082,-1.4082,-1.4075,0.0,0.0,-1.273,0.0,-1.1563,-1.2401,-1.2408,-1.2882,-1.3675,-1.3682,-1.3688,-1.3682,-1.3682,-1.3682,-1.3724,-1.399,-1.4075,-1.3995,-1.342,-1.3206,-1.3067,-1.228,-1.2003,-1.1966,-1.1744,-1.1706,-1.1744,-1.1929,-1.2003,-1.204,-1.2224,-1.2305,-1.2305,-1.2305,-1.215,-1.204,-1.2268,-1.2003,-1.1744,-1.1966,-1.2157,-1.2224,-1.204,-1.215,-1.2088,-1.1409,0.0,0.0,0.0,0.0,0.0,0.0,-1.0923,-1.0916,-1.0908,0.0,0.0,0.0,0.0,0.0,0.0,0.0,0.0,-1.3228,-1.2535,0.0,-1.3189,-1.369,-1.468,-1.6201,-1.5942,-1.6431,-1.7513,-1.832,-1.8658,-1.8647,-1.8193,-1.7997,-1.7917,-1.7066,-1.745,-1.853,-1.7956,-1.909,-2.1014,-2.0516,-2.0898,-2.1696,-1.4965,-1.4863,-1.492,-1.5188,-1.522,-1.5363,-1.573,-1.5784,-1.5784,-1.5784,-1.5784,-1.5784,-1.5784,-1.5784,-1.5784,0.0,-1.5784,-1.5705,0.0,-1.5398,-1.5224,-1.4836,-1.4629,-1.4476,-1.4382,-1.4188,-1.4088,-1.4088,0.0,0.0,0.0,-1.2696,-1.2811,-1.3285,-1.3462,-1.3614,-1.3695,-1.3913,-1.387,-1.3717,-1.3653,-1.3651,-1.3711,-1.3736,-1.3661,-1.3494,-1.3467,-1.3074,-1.2592,-1.2561,-1.2397,-1.215,-1.1966,-1.1892,-1.1892,-1.1818,-1.2003,-1.2194,-1.2114,-1.2187,-1.2305,-1.2305,-1.2268,-1.2194,-1.2114,-1.1892,-1.1781,-1.212,-1.215,-1.2114,-1.2194,-1.2261,-1.2138,-1.1595,0.0,0.0,0.0,0.0,0.0,0.0,-1.3345,-1.3168,0.0,-1.2067,0.0,0.0,0.0,0.0,0.0,0.0,0.0,0.0,-1.3404,0.0,-1.5279,-1.5654,-1.6236,-1.7005,-1.7546,-1.7832,-1.7944,-1.8476,-1.8715,-1.8656,-1.8201,-1.7674,-1.7123,-1.6986,-1.6867,-1.6862,-1.8442,-1.9502,-2.0237,-2.0989,-2.1454,-2.1696,-1.5178,-1.5035,-1.4987,-1.5083,-1.5083,-1.5267,-1.5737,-1.5784,-1.5784,-1.5784,-1.5784,-1.5784,-1.5784,-1.5784,0.0,-1.5784,-1.5784,-1.5752,-1.5571,-1.5558,-1.5431,-1.5137,-1.495,-1.4796,-1.4689,0.0,0.0,-1.4249,-1.3774,-1.354,-1.354,-1.3412,-1.348,-1.3695,-1.387,-1.387,-1.3737,-1.3997,-1.3997,-1.3851,-1.3798,-1.3796,-1.3851,-1.3798,-1.3701,-1.3547,-1.358,-1.3174,-1.2652,-1.2757,-1.2589,-1.2268,-1.215,-1.2192,-1.2221,-1.1924,-1.204,-1.2268,-1.215,-1.2187,-1.2325,-1.2445,-1.2509,-1.2434,-1.2241,-1.2219,-1.2239,-1.2203,-1.2243,-1.2282,-1.2281,-1.2305,-1.2168,-1.1774,0.0,-1.2276,-1.2428,0.0,0.0,0.0,0.0,0.0,0.0,-1.2683,0.0,0.0,0.0,0.0,0.0,0.0,0.0,-1.3747,-1.4615,0.0,-1.6301,-1.6477,-1.6837,-1.741,-1.8273,-1.8586,-1.8319,-1.8837,-1.9022,-1.8992,-1.8382,-1.7868,-1.7399,-1.7095,-1.697,-1.7128,-1.8665,-1.967,-2.0351,-2.1181,-2.1559,-2.1696,-1.5172,-1.4933,0.0,0.0,-1.5131,0.0,-1.5737,-1.5784,-1.5784,-1.5784,-1.5784,-1.5784,-1.5784,-1.5784,-1.5784,-1.5784,0.0,0.0,0.0,-1.5784,-1.5698,-1.5411,-1.5398,0.0,-1.4988,-1.4663,-1.4509,-1.4489,-1.4222,-1.4088,-1.4088,-1.3822,-1.3737,-1.3737,-1.3737,-1.3737,-1.3737,-1.3997,-1.4088,-1.4088,-1.4088,-1.4088,-1.4088,-1.4088,-1.4075,-1.4021,-1.3726,-1.3433,-1.3166,-1.2938,-1.265,-1.2365,-1.2365,-1.2559,-1.2712,-1.2168,-1.2183,-1.2358,-1.2338,-1.2351,-1.2432,-1.2744,-1.2817,-1.2779,-1.2587,-1.2869,-1.2987,-1.221,-1.2439,-1.2677,-1.2378,-1.2318,-1.2198,-1.1926,-1.1715,-1.1685,-1.1931,0.0,0.0,0.0,0.0,0.0,0.0,-1.2461,-1.3058,0.0,0.0,0.0,0.0,0.0,-1.3739,-1.5186,-1.591,-1.6317,-1.642,-1.642,-1.6776,-1.7531,-1.8357,-1.8751,-1.877,-1.9303,-1.9597,-1.9557,-1.8758,-1.847,-1.8519,-1.7335,-1.7639,-1.8813,-1.8731,-1.9655,-2.1058,-2.1101,-2.1401,-2.1696,0.0,0.0,-1.5309,-1.5404,-1.5404,-1.5493,-1.5784,-1.5784,-1.5784,-1.5784,-1.5784,-1.5784,-1.5784,-1.5784,-1.5784,-1.5784,-1.5784,-1.5784,-1.5784,-1.5784,-1.5698,-1.5411,-1.5398,-1.5157,-1.4636,-1.4556,-1.4409,-1.4188,-1.4122,-1.4088,-1.4088,-1.4046,-1.3997,-1.3997,-1.3997,-1.3997,-1.3997,-1.4088,-1.3997,-1.3779,-1.3779,-1.3779,-1.3779,-1.3779,-1.3774,-1.3726,-1.3928,-1.3647,-1.3233,-1.334,-1.3233,-1.296,-1.2798,-1.2929,-1.2999,-1.2384,-1.2594,-1.2939,-1.2744,-1.2812,-1.3013,-1.308,-1.31,-1.31,-1.306,-1.2973,-1.2886,-1.2895,-1.2641,-1.2452,-1.265,-1.2452,-1.2131,-1.161,-1.1682,-1.1791,-1.1628,-1.2112,0.0,0.0,-1.3516,-1.4123,-1.4071,-1.3364,-1.3404,0.0,0.0,0.0,0.0,0.0,-1.4498,-1.5629,-1.596,-1.6628,-1.758,-1.7588,-1.8028,-1.884,-1.9046,-1.9164,-1.9164,-1.9304,-1.9429,-1.9597,-1.939,-1.9015,-1.8585,-1.8551,-1.8439,-1.8376,-1.9307,-2.0018,-2.0578,-2.1309,-2.1604,-2.1696,-1.554,-1.5493,-1.5493,-1.5493,-1.5493,-1.5588,-1.5784,-1.5784,-1.5784,-1.5784,-1.5784,-1.5784,-1.5784,-1.5784,-1.5784,-1.5784,-1.5784,-1.5784,-1.5784,-1.5784,-1.5758,-1.5605,-1.5591,-1.5444,-1.5078,-1.499,-1.471,-1.4282,-1.4282,-1.4215,-1.4088,-1.4088,-1.4088,-1.4088,-1.4088,-1.4088,-1.4088,-1.4088,-1.3997,-1.3864,-1.3864,-1.3864,-1.3864,-1.3864,-1.3856,-1.3868,-1.4028,-1.3794,-1.3393,-1.3547,-1.3413,-1.3174,-1.3088,-1.318,-1.328,-1.2852,-1.2953,-1.3173,-1.3006,-1.308,-1.324,-1.3333,-1.3514,-1.3574,-1.344,-1.3387,-1.3373,-1.3233,-1.3053,-1.2879,-1.2804,-1.265,-1.2265,-1.1509,-1.1563,-1.1539,-1.1132,-1.1758,0.0,-1.2818,-1.3895,-1.4764,-1.5171,-1.4657,-1.453,-1.5104,0.0,0.0,-1.4863,-1.4596,-1.4899,-1.5982,-1.6635,-1.7313,-1.7997,-1.8407,-1.8816,-1.9301,-1.9301,-1.9301,-1.9301,-1.939,-1.9548,-1.9754,-1.9754,-1.9657,-1.9499,-1.937,-1.9181,-1.8963,-1.9466,-1.9844,-2.0217,-2.0891,-2.1248,-2.1431,-1.5588,-1.554,-1.554,-1.554,-1.554,-1.5588,-1.5784,-1.5784,-1.5784,-1.5784,-1.5784,-1.5784,-1.5784,-1.5784,-1.5784,-1.5784,-1.5784,-1.5784,-1.5784,-1.5784,-1.5764,-1.5718,-1.5758,-1.5744,-1.5698,-1.5458,-1.5064,-1.4522,-1.4522,-1.4369,-1.4088,-1.4088,-1.4088,-1.4088,-1.4088,-1.4088,-1.4088,-1.4088,-1.4088,-1.4046,-1.4046,-1.4046,-1.4046,-1.4046,-1.4046,-1.4088,-1.4088,-1.3928,-1.3666,-1.3666,-1.3507,-1.334,-1.334,-1.3473,-1.362,-1.3414,-1.334,-1.3333,-1.3287,-1.3307,-1.34,-1.3606,-1.3901,-1.4035,-1.378,-1.3935,-1.3961,-1.35,-1.3493,-1.3474,-1.3106,-1.3002,-1.2675,-1.1743,-1.1635,-1.1418,-1.074,0.0,-1.2198,-1.2665,-1.3986,-1.513,-1.5859,-1.5902,-1.6009,-1.6206,-1.5442,0.0,0.0,-1.5211,-1.5408,-1.6597,-1.7429,-1.7976,-1.8198,-1.8935,-1.9301,-1.9301,-1.9301,-1.9301,-1.9301,-1.9478,-1.9676,-1.9902,-1.9902,-2.0177,-2.0566,-1.9951,-1.9831,-1.9957,-1.9601,-1.965,-2.0031,-2.0457,-2.0824,-2.1172,-1.5778,-1.5737,-1.5737,-1.5737,-1.5737,-1.5778,-1.5784,-1.5784,-1.5784,-1.5784,-1.5784,-1.5784,-1.5784,-1.5784,-1.5784,-1.5784,-1.5784,-1.5784,-1.5784,-1.5784,-1.5718,-1.5478,-1.5698,-1.5598,-1.511,-1.5102,-1.4863,-1.4522,-1.4522,-1.4369,-1.4088,-1.4088,-1.4088,-1.4088,-1.4088,-1.4088,-1.4088,-1.4088,-1.3955,-1.3779,-1.3779,-1.3779,-1.3779,-1.3779,-1.3913,-1.4088,-1.4088,-1.4055,-1.4015,-1.4015,-1.3988,-1.3955,-1.3955,-1.3981,-1.4008,-1.3961,-1.3955,-1.3895,-1.3606,-1.3761,-1.3961,-1.4008,-1.4055,-1.4142,-1.4335,-1.4229,-1.4128,-1.4282,-1.3919,-1.3689,-1.4024,-1.3892,-1.3439,-1.2555,-1.2586,-1.2336,-1.1108,0.0,-1.2387,-1.2723,-1.4705,-1.6053,-1.6061,-1.6576,-1.7273,-1.8185,-1.6626,-1.6536,-1.8551,-1.7188,-1.6956,-1.8194,-1.7613,-1.7862,-1.9103,-1.9222,-1.9301,-1.9301,-1.9301,-1.9301,-1.9301,-1.9341,-1.9548,-1.9902,-1.9902,-2.0177,-2.0566,-2.0303,-2.0318,-2.0472,-2.0189,-2.0195,-2.0475,-2.0869,-2.1053,-2.1172,-1.5784,-1.5784,-1.5784,-1.5784,-1.5784,-1.5784,-1.5784,-1.5784,-1.5784,-1.5784,-1.5784,-1.5784,-1.5784,-1.5784,-1.5784,-1.5784,-1.5784,-1.5784,-1.5784,-1.5784,-1.5718,-1.5631,-1.5711,-1.5705,-1.5438,-1.5431,-1.5284,-1.499,-1.4836,-1.4609,-1.4315,-1.4162,-1.4168,-1.4322,-1.4322,-1.4409,-1.4599,-1.4599,-1.4419,-1.4144,-1.4144,-1.4051,-1.3913,-1.3913,-1.3997,-1.4088,-1.4088,-1.4088,-1.4088,-1.4088,-1.4088,-1.4088,-1.4088,-1.4088,-1.4088,-1.4088,-1.4088,-1.4055,-1.3921,-1.3981,-1.4088,-1.4088,-1.4088,-1.4249,-1.4838,-1.4638,-1.4566,-1.5494,-1.481,-1.4219,-1.4572,-1.4328,-1.3951,-1.3498,-1.3535,0.0,0.0,-1.3143,-1.3744,-1.5273,-1.6261,-1.7261,-1.8372,-1.8144,-1.8061,-1.839,-1.7104,-1.6913,-1.8289,-1.7465,-1.7639,-1.925,-1.8404,-1.8341,-1.9301,-1.9301,-1.9301,-1.9301,-1.9301,-1.9301,-1.9301,-1.9301,-1.9499,-1.9902,-1.9902,-2.0177,-2.0566,-2.0372,-2.0262,-2.0195,-1.9956,-2.0005,-2.0214,-2.0649,-2.0924,-2.1172,-1.5784,-1.5784,-1.5784,-1.5784,-1.5784,-1.5784,-1.5784,-1.5784,-1.5784,-1.5784,-1.5784,-1.5784,-1.5784,-1.5784,-1.5784,-1.5784,-1.5784,-1.5784,-1.5784,-1.5784,-1.5784,-1.5784,-1.5784,-1.5784,-1.5784,-1.5784,-1.5691,-1.5398,-1.5149,-1.481,-1.4466,-1.4222,-1.4242,-1.4522,-1.4522,-1.4689,-1.5008,-1.5008,-1.4796,-1.4522,-1.4522,-1.4349,-1.4088,-1.4088,-1.4088,-1.4088,-1.4088,-1.4088,-1.4088,-1.4088,-1.4088,-1.4088,-1.4088,-1.4088,-1.4102,-1.4168,-1.4235,-1.4262,-1.4122,-1.4088,-1.4088,-1.4088,-1.4135,-1.4457,-1.5388,-1.5311,-1.5423,-1.6783,-1.6111,-1.5297,-1.5397,-1.5033,-1.4654,-1.4501,0.0,0.0,0.0,-1.4479,-1.5009,-1.7166,-1.7489,-1.8293,-2.0146,-1.9609,-1.9057,-1.8746,-1.8009,-1.7768,-1.8259,-1.7928,-1.8404,-1.9787,-1.9247,-1.9023,-1.9301,-1.9402,-1.9402,-1.9301,-1.9402,-1.9393,-1.9301,-1.9301,-1.9499,-1.9824,-1.9863,-2.0137,-2.0527,-2.0342,-2.0186,-2.0,-1.9818,-1.9811,-2.003,-2.0475,-2.0842,-2.1172,-1.5784,-1.5784,-1.5784,-1.5784,-1.5784,-1.5784,-1.5784,-1.5784,-1.5784,-1.5784,-1.5784,-1.5784,-1.5784,-1.5784,-1.5784,-1.5784,-1.5784,-1.5784,-1.5784,-1.5784,-1.5784,-1.5784,-1.5784,-1.5784,-1.5784,-1.5784,-1.5691,-1.5398,-1.5149,-1.481,-1.4466,-1.4222,-1.4242,-1.4522,-1.4522,-1.4689,-1.5008,-1.5008,-1.4796,-1.4522,-1.4522,-1.4349,-1.4088,-1.4088,-1.4088,-1.4088,-1.4088,-1.4088,-1.4088,-1.4088,-1.4088,-1.4088,-1.4088,-1.4088,-1.4142,-1.4409,-1.4683,-1.4827,-1.4235,-1.4088,-1.4088,-1.4088,-1.4289,-1.481,-1.6031,-1.6521,-1.7018,-1.7974,-1.781,-1.7349,-1.6988,-1.6392,-1.5882,-1.5613,0.0,0.0,-1.4633,-1.4977,-1.5602,-1.6409,-1.7513,-1.8645,-1.9658,-2.0471,-2.0765,-2.0373,-2.0252,-2.0243,-2.03,-1.9925,-1.967,-1.9622,-1.9732,-1.9642,-1.9301,-1.9687,-1.9687,-1.9301,-1.9696,-1.9677,-1.9301,-1.9301,-1.9429,-1.9645,-1.9824,-2.0059,-2.0303,-2.0303,-2.0303,-2.0264,-2.0167,-2.0173,-2.0253,-2.082,-2.108,-2.1172,-1.5784,-1.5784,-1.5784,-1.5784,-1.5784,-1.5784,-1.5784,-1.5784,-1.5784,-1.5784,-1.5784,-1.5784,-1.5784,-1.5784,-1.5784,-1.5784,-1.5784,-1.5784,-1.5784,-1.5784,-1.5784,-1.5784,-1.5784,-1.5784,-1.5784,-1.5784,-1.5724,-1.5665,-1.5378,-1.5084,-1.479,-1.4496,-1.4416,-1.4529,-1.471,-1.4957,-1.5244,-1.5424,-1.5331,-1.5044,-1.487,-1.4616,-1.4335,-1.4155,-1.4088,-1.4088,-1.4088,-1.4088,-1.4088,-1.4088,-1.4088,-1.4122,-1.4302,-1.4355,-1.4416,-1.471,-1.4921,-1.4961,-1.4733,-1.4673,-1.4673,-1.4673,-1.4716,-1.5082,-1.6103,-1.6159,-1.6323,-1.7588,-1.7515,-1.7239,-1.7439,-1.7579,-1.7688,-1.7861,0.0,-1.7063,-1.7318,-1.6472,-1.6242,-1.7397,-1.7614,-1.8323,-1.9909,-2.0192,-2.0393,-2.0854,-2.0659,-2.0521,-2.0521,-2.0104,-1.9861,-1.9786,-1.9635,-1.9506,-1.9478,-1.9506,-1.9457,-1.9301,-1.9467,-1.9595,-1.9696,-1.9857,-2.0018,-2.0238,-2.0716,-2.0656,-2.0323,-2.0583,-2.049,-2.0228,-2.0217,-2.0426,-2.0771,-2.1041,-2.1273,-2.1476,-1.5784,-1.5784,-1.5784,-1.5784,-1.5784,-1.5784,-1.5784,-1.5784,-1.5784,-1.5784,-1.5784,-1.5784,-1.5784,-1.5784,-1.5784,-1.5784,-1.5784,-1.5784,-1.5784,-1.5784,-1.5784,-1.5784,-1.5784,-1.5784,-1.5784,-1.5784,-1.5784,-1.5784,-1.5538,-1.5297,-1.5142,-1.4796,-1.471,-1.4803,-1.4917,-1.5169,-1.5411,-1.5611,-1.5471,-1.511,-1.5048,-1.473,-1.4362,-1.4162,-1.4088,-1.4088,-1.4088,-1.4088,-1.4088,-1.4088,-1.4148,-1.4255,-1.4456,-1.4649,-1.4816,-1.4975,-1.5142,-1.5217,-1.5169,-1.5209,-1.519,-1.5055,-1.5075,-1.5361,-1.6283,-1.6218,-1.638,-1.772,-1.764,-1.7379,-1.7526,-1.7751,-1.8022,-1.8374,-1.7788,-1.7576,-1.827,-1.7165,-1.6668,-1.7773,-1.7557,-1.8102,-2.0113,-2.0071,-2.028,-2.1213,-2.101,-2.0799,-2.0714,-2.0448,-2.0182,-2.0016,-1.969,-1.9623,-1.9912,-1.9743,-1.9598,-1.9499,-1.9848,-1.997,-2.0016,-2.0391,-2.0611,-2.0702,-2.1256,-2.1101,-2.0535,-2.0909,-2.0812,-2.0442,-2.0531,-2.0842,-2.1213,-2.1264,-2.1449,-2.1696,-1.5784,-1.5784,-1.5784,-1.5784,-1.5784,-1.5784,-1.5784,-1.5784,-1.5784,-1.5784,-1.5784,-1.5784,-1.5784,-1.5784,-1.5784,-1.5784,-1.5784,-1.5784,-1.5784,-1.5784,-1.5784,-1.5784,-1.5784,-1.5784,-1.5784,-1.5784,-1.5784,-1.5784,-1.5538,-1.5398,-1.5391,-1.5149,-1.5117,-1.5384,-1.5142,-1.5169,-1.5398,-1.5398,-1.5064,-1.4556,-1.485,-1.466,-1.4095,-1.4088,-1.4088,-1.4095,-1.4088,-1.4088,-1.4088,-1.4095,-1.4282,-1.4522,-1.4522,-1.493,-1.5344,-1.5102,-1.5378,-1.5718,-1.5478,-1.5611,-1.5691,-1.5162,-1.519,-1.5667,-1.6646,-1.7084,-1.7552,-1.8565,-1.848,-1.8029,-1.7407,-1.6753,-1.6418,-1.6686,-1.6475,-1.6425,-1.6693,-1.6737,-1.6861,-1.7242,-1.7326,-1.811,-2.0113,-2.0294,-2.0664,-2.1642,-2.1696,-2.1513,-2.1135,-2.1108,-2.0826,-2.0238,-2.0016,-2.0138,-2.0616,-2.0518,-2.0314,-1.9931,-2.1001,-2.1034,-2.0229,-2.0919,-2.1108,-2.095,-2.1349,-2.1274,-2.0918,-2.1329,-2.1262,-2.0933,-2.1292,-2.1395,-2.1441,-2.1629,-2.1696,-2.1696,-1.5872,-1.5784,-1.5784,-1.5784,-1.5784,-1.5784,-1.5784,-1.5784,-1.5784,-1.5784,-1.5784,-1.5784,-1.5784,-1.5784,-1.5784,-1.5784,-1.5784,-1.5784,-1.5784,-1.5784,-1.5784,-1.5784,-1.5784,-1.5784,-1.5784,-1.5784,-1.5784,-1.5784,-1.5745,-1.5591,-1.5391,-1.5304,-1.5204,-1.5142,-1.5217,-1.5317,-1.5411,-1.5611,-1.5598,-1.5385,-1.5311,-1.5164,-1.4963,-1.4549,-1.4522,-1.472,-1.4462,-1.4389,-1.4422,-1.4629,-1.4623,-1.4546,-1.5003,-1.5391,-1.5678,-1.5591,-1.5691,-1.5764,-1.5678,-1.5718,-1.5738,-1.5611,-1.5631,-1.5745,-1.6067,-1.6183,-1.6339,-1.6615,-1.7152,-1.7487,-1.7311,-1.7712,-1.8055,-1.8156,-1.8094,-1.8063,-1.8164,-1.8171,-1.8218,-1.8319,-1.8334,-1.888,-2.0158,-2.0294,-2.0664,-2.1642,-2.1696,-2.1641,-2.1513,-2.1273,-2.1041,-2.0845,-2.0694,-2.0721,-2.1043,-2.0595,-2.0497,-2.0813,-2.115,-2.1306,-2.133,-2.1707,-2.1859,-2.1835,-2.2413,-2.2123,-2.1351,-2.1583,-2.157,-2.1297,-2.1241,-2.1344,-2.1611,-2.1695,-2.183,-2.1963,-1.6213,-1.6079,-1.6005,-1.6005,-1.5905,-1.5784,-1.5784,-1.5784,-1.5784,-1.5784,-1.5784,-1.5784,-1.5784,-1.5784,-1.5784,-1.5784,-1.5784,-1.5784,-1.5784,-1.5784,-1.5784,-1.5784,-1.5784,-1.5784,-1.5784,-1.5784,-1.5784,-1.5784,-1.5784,-1.5738,-1.5565,-1.5565,-1.5478,-1.5311,-1.5364,-1.5398,-1.5404,-1.5585,-1.5591,-1.5484,-1.5424,-1.5331,-1.5184,-1.483,-1.481,-1.4988,-1.4763,-1.4696,-1.4723,-1.4948,-1.4923,-1.495,-1.5418,-1.5691,-1.5784,-1.5784,-1.5784,-1.5784,-1.5784,-1.5784,-1.5784,-1.5784,-1.5784,-1.5784,-1.5784,-1.5784,-1.5784,-1.5784,-1.6298,-1.6723,-1.6723,-1.7178,-1.7731,-1.8149,-1.8195,-1.8334,-1.875,-1.8788,-1.8788,-1.8788,-1.8788,-1.9201,-2.0204,-2.0294,-2.0664,-2.1642,-2.1696,-2.1696,-2.1696,-2.1449,-2.1282,-2.1117,-2.1007,-2.109,-2.1302,-2.0983,-2.1023,-2.1492,-2.1744,-2.1859,-2.1974,-2.2385,-2.2505,-2.2438,-2.2897,-2.2658,-2.1878,-2.1978,-2.1881,-2.1611,-2.1422,-2.1511,-2.1696,-2.1696,-2.1785,-2.1919,-1.6707,-1.6473,-1.6321,-1.6321,-1.6025,-1.5791,-1.5818,-1.5824,-1.5831,-1.5858,-1.5838,-1.5824,-1.5824,-1.5798,-1.5784,-1.5784,-1.5784,-1.5784,-1.5784,-1.5784,-1.5784,-1.5784,-1.5784,-1.5784,-1.5784,-1.5784,-1.5784,-1.5784,-1.5784,-1.5784,-1.5784,-1.5784,-1.5784,-1.5771,-1.5551,-1.5438,-1.5438,-1.5438,-1.5284,-1.5109,-1.5331,-1.5277,-1.5082,-1.5055,-1.5062,-1.5082,-1.5055,-1.5048,-1.5048,-1.5048,-1.5197,-1.5484,-1.5698,-1.5784,-1.5784,-1.5784,-1.5784,-1.5784,-1.5784,-1.5784,-1.5784,-1.5784,-1.5784,-1.5784,-1.5784,-1.5784,-1.5784,-1.5784,-1.5784,-1.5784,-1.5784,-1.5784,-1.6109,-1.7145,-1.7372,-1.7785,-1.8788,-1.9026,-1.9063,-1.9063,-1.9063,-1.943,-2.0348,-2.0439,-2.0763,-2.1642,-2.1696,-2.1696,-2.1696,-2.1696,-2.1513,-2.1172,-2.1163,-2.1293,-2.1562,-2.1562,-2.1684,-2.197,-2.2481,-2.2558,-2.2246,-2.2795,-2.2969,-2.2794,-2.3013,-2.2886,-2.2512,-2.2465,-2.217,-2.1834,-2.1771,-2.1741,-2.1696,-2.1696,-2.1741,-2.1741,-1.6747,-1.6473,-1.6321,-1.6321,-1.6025,-1.5905,-1.6139,-1.6179,-1.6259,-1.6486,-1.6319,-1.6179,-1.6179,-1.5972,-1.5784,-1.5784,-1.5784,-1.5784,-1.5784,-1.5784,-1.5784,-1.5784,-1.5784,-1.5784,-1.5784,-1.5784,-1.5784,-1.5784,-1.5784,-1.5784,-1.5784,-1.5784,-1.5784,-1.5778,-1.5718,-1.5684,-1.5684,-1.5684,-1.5698,-1.5645,-1.5712,-1.5698,-1.5618,-1.5391,-1.5444,-1.5611,-1.5384,-1.5304,-1.5304,-1.5304,-1.5491,-1.5698,-1.5764,-1.5784,-1.5784,-1.5784,-1.5784,-1.5784,-1.5784,-1.5784,-1.5784,-1.5784,-1.5784,-1.5784,-1.5784,-1.5784,-1.5784,-1.5784,-1.5784,-1.5784,-1.5784,-1.5784,-1.6109,-1.7145,-1.7971,-1.8842,-1.984,-2.0628,-2.1087,-2.1087,-2.1087,-2.1141,-2.1365,-2.141,-2.1454,-2.1696,-2.1696,-2.1696,-2.1696,-2.1696,-2.165,-2.1559,-2.178,-2.1913,-2.1957,-2.2133,-2.2218,-2.2307,-2.2444,-2.2438,-2.2353,-2.2711,-2.2838,-2.2803,-2.2847,-2.2833,-2.2712,-2.2492,-2.2262,-2.2019,-2.2015,-2.1874,-2.1696,-2.1696,-2.183,-2.2008,-1.7154,-1.6894,-1.6737,-1.6737,-1.6446,-1.6299,-1.6453,-1.648,-1.6533,-1.6687,-1.6453,-1.6321,-1.6321,-1.6005,-1.5784,-1.5784,-1.5784,-1.5784,-1.5784,-1.5784,-1.5784,-1.5784,-1.5784,-1.5784,-1.5784,-1.5784,-1.5784,-1.5784,-1.5784,-1.5784,-1.5784,-1.5784,-1.5784,-1.5784,-1.5784,-1.5784,-1.5784,-1.5784,-1.5784,-1.5784,-1.5784,-1.5784,-1.5764,-1.5658,-1.5698,-1.5758,-1.5658,-1.5605,-1.5605,-1.5605,-1.5705,-1.5784,-1.5784,-1.5784,-1.5784,-1.5784,-1.5784,-1.5784,-1.5784,-1.5784,-1.5784,-1.5784,-1.5784,-1.5784,-1.5784,-1.5784,-1.5872,-1.6012,-1.6039,-1.6086,-1.6219,-1.6246,-1.6677,-1.7993,-1.866,-1.9442,-2.0789,-2.141,-2.1696,-2.1696,-2.1696,-2.1696,-2.1696,-2.1696,-2.1696,-2.1696,-2.1696,-2.1696,-2.1696,-2.1696,-2.1696,-2.1696,-2.183,-2.1919,-2.1919,-2.1998,-2.2087,-2.2087,-2.2309,-2.2397,-2.2397,-2.253,-2.2618,-2.2618,-2.2618,-2.2618,-2.2574,-2.2353,-2.2185,-2.2097,-2.1963,-2.183,-2.1696,-2.1696,-2.1785,-2.1919,-1.7582,-1.74,-1.7199,-1.7199,-1.6901,-1.6727,-1.6774,-1.678,-1.68,-1.6847,-1.66,-1.6455,-1.6353,-1.6039,-1.5784,-1.5784,-1.5784,-1.5784,-1.5784,-1.5784,-1.5784,-1.5784,-1.5784,-1.5784,-1.5784,-1.5784,-1.5784,-1.5784,-1.5784,-1.5784,-1.5784,-1.5784,-1.5784,-1.5784,-1.5784,-1.5784,-1.5784,-1.5784,-1.592,-1.6062,-1.6062,-1.6157,-1.6292,-1.6109,-1.6157,-1.6244,-1.592,-1.5784,-1.5784,-1.5784,-1.5784,-1.5784,-1.5784,-1.5784,-1.5784,-1.5784,-1.5784,-1.5784,-1.5784,-1.5784,-1.5784,-1.5784,-1.5818,-1.5892,-1.5791,-1.5784,-1.5912,-1.6213,-1.6321,-1.6359,-1.6653,-1.685,-1.7499,-1.9057,-1.9486,-2.0143,-2.1717,-2.1897,-2.187,-2.1797,-2.1733,-2.1696,-2.1696,-2.1696,-2.1696,-2.1696,-2.1696,-2.1696,-2.1696,-2.1696,-2.1696,-2.1696,-2.1696,-2.1696,-2.1696,-2.1696,-2.1696,-2.1696,-2.2087,-2.2264,-2.2264,-2.2353,-2.2353,-2.2353,-2.2353,-2.2353,-2.2353,-2.2185,-2.2052,-2.2008,-2.183,-2.1741,-2.1696,-2.1696,-2.1696,-2.1696,-1.7582,-1.74,-1.7199,-1.7199,-1.6901,-1.6794,-1.7099,-1.7139,-1.7233,-1.7428,-1.7259,-1.6985,-1.6673,-1.6159,-1.5784,-1.5784,-1.5784,-1.5784,-1.5784,-1.5784,-1.5784,-1.5784,-1.5784,-1.5784,-1.5784,-1.5784,-1.5784,-1.5784,-1.5784,-1.5784,-1.5784,-1.5784,-1.5784,-1.5784,-1.5784,-1.5784,-1.5784,-1.5784,-1.6298,-1.7091,-1.7091,-1.7598,-1.828,-1.7419,-1.7645,-1.8187,-1.6433,-1.5784,-1.5784,-1.5784,-1.5784,-1.5784,-1.5784,-1.5784,-1.5784,-1.5784,-1.5784,-1.5784,-1.5784,-1.5784,-1.5784,-1.5784,-1.6019,-1.6146,-1.5885,-1.5784,-1.5912,-1.6213,-1.6321,-1.6359,-1.6653,-1.7491,-1.8508,-1.9555,-2.0528,-2.154,-2.2608,-2.2748,-2.2611,-2.2245,-2.1897,-2.1696,-2.1696,-2.1696,-2.1696,-2.1696,-2.1696,-2.1696,-2.1696,-2.1696,-2.1696,-2.1696,-2.1696,-2.1696,-2.1696,-2.1696,-2.1696,-2.1696,-2.1776,-2.1776,-2.1776,-2.2052,-2.2141,-2.2141,-2.2141,-2.2141,-2.2141,-2.2097,-2.1963,-2.1776,-2.1963,-2.1919,-2.1696,-2.1696,-2.1696,-2.1696,-1.7582,-1.7475,-1.744,-1.744,-1.7281,-1.7241,-1.7427,-1.744,-1.7494,-1.7562,-1.738,-1.7146,-1.7018,-1.6426,-1.6079,-1.6079,-1.5925,-1.5784,-1.5784,-1.5784,-1.5784,-1.5784,-1.5784,-1.5784,-1.5784,-1.5784,-1.5784,-1.5784,-1.5784,-1.5784,-1.5784,-1.5784,-1.5784,-1.5784,-1.5784,-1.5784,-1.5784,-1.5784,-1.6062,-1.644,-1.644,-1.7044,-1.7924,-1.7466,-1.7606,-1.7785,-1.6339,-1.6157,-1.6534,-1.5967,-1.5784,-1.5784,-1.5784,-1.6204,-1.6534,-1.5967,-1.6204,-1.6534,-1.5967,-1.5952,-1.6079,-1.6079,-1.6299,-1.648,-1.6346,-1.6319,-1.6353,-1.6486,-1.6513,-1.6653,-1.7114,-1.8105,-1.9099,-1.9941,-2.0997,-2.2014,-2.279,-2.2904,-2.284,-2.2648,-2.241,-2.2206,-2.2071,-2.1824,-2.1696,-2.1696,-2.1696,-2.1696,-2.1696,-2.1696,-2.1696,-2.1696,-2.1696,-2.1696,-2.1696,-2.1696,-2.1696,-2.1696,-2.1696,-2.1696,-2.1696,-2.183,-2.1874,-2.1874,-2.1874,-2.1874,-2.1874,-2.1874,-2.183,-2.1687,-2.183,-2.1785,-2.1696,-2.1696,-2.1696,-2.1696]},{"header":{"parameterUnit":"m.s-1","parameterCategory":1,"la1":30.6,"la2":28.766,"lo1":-90.7593,"lo2":-88.6598,"dy":0.0162,"dx":0.0183,"nx":116,"ny":114,"refTime":"2024-03-02T18:00:00:Z","depth":0,"parameterNumber":3,"parameterNumberName":"V-component_of_WINDS"},"data":[0.0,0.0,0.0,0.0,0.0,0.0,0.0,0.0,0.0,0.0,0.0,0.0,0.0,0.0,0.0,0.0,0.0,0.0,0.0,0.0,0.0,0.0,0.0,0.0,0.0,0.0,0.0,0.0,0.0,0.0,0.0,0.0,0.0,0.0,0.0,0.0,0.0,0.0,0.0,0.0,0.0,0.0,0.0,0.0,0.0,0.0,0.0,0.0,0.0,0.0,0.0,0.0,0.0,0.0,0.0,0.0,0.0,0.0,0.0,0.0,0.0,0.0,0.0,0.0,0.0,0.0,0.0,0.0,0.0,0.0,0.0,0.0,0.0,0.0,0.0,0.0,0.0,0.0,0.0,0.0,0.0,0.0,0.0,0.0,0.0,0.0,0.0,0.0,0.0,0.0,0.0,0.0,0.0,0.0,0.0,0.0,0.0,0.0,0.0,0.0,0.0,0.0,0.0,0.0,0.0,0.0,0.0,0.0,0.0,0.0,0.0,0.0,0.0,0.0,0.0,0.0,0.0,0.0,0.0,0.0,0.0,0.0,0.0,0.0,0.0,0.0,0.0,0.0,0.0,0.0,0.0,0.0,0.0,0.0,0.0,0.0,0.0,0.0,0.0,0.0,0.0,0.0,0.0,0.0,0.0,0.0,0.0,0.0,0.0,0.0,0.0,0.0,0.0,0.0,0.0,0.0,0.0,0.0,0.0,0.0,0.0,0.0,0.0,0.0,0.0,0.0,0.0,0.0,0.0,0.0,0.0,0.0,0.0,0.0,0.0,0.0,0.0,0.0,0.0,0.0,0.0,0.0,0.0,0.0,0.0,0.0,0.0,0.0,0.0,0.0,0.0,0.0,0.0,0.0,0.0,0.0,0.0,0.0,0.0,0.0,0.0,0.0,0.0,0.0,0.0,0.0,0.0,0.0,0.0,0.0,0.0,0.0,0.0,0.0,0.0,0.0,0.0,0.0,0.0,0.0,0.0,0.0,0.0,0.0,0.0,0.0,0.0,0.0,0.0,0.0,0.0,0.0,0.0,0.0,0.0,0.0,0.0,0.0,0.0,0.0,0.0,0.0,0.0,0.0,0.0,0.0,0.0,0.0,0.0,0.0,0.0,0.0,0.0,0.0,0.0,0.0,0.0,0.0,0.0,0.0,0.0,0.0,0.0,0.0,0.0,0.0,0.0,0.0,0.0,0.0,0.0,0.0,0.0,0.0,0.0,0.0,0.0,0.0,0.0,0.0,0.0,0.0,0.0,0.0,0.0,0.0,0.0,0.0,0.0,0.0,0.0,0.0,0.0,0.0,0.0,0.0,0.0,0.0,0.0,0.0,0.0,0.0,0.0,0.0,0.0,0.0,0.0,0.0,0.0,0.0,0.0,0.0,0.0,0.0,0.0,0.0,0.0,0.0,0.0,0.0,0.0,0.0,0.0,0.0,0.0,0.0,0.0,0.0,0.0,0.0,0.0,0.0,0.0,0.0,0.0,0.0,0.0,0.0,0.0,0.0,0.0,0.0,0.0,0.0,0.0,0.0,0.0,0.0,0.0,0.0,0.0,0.0,0.0,0.0,0.0,0.0,0.0,0.0,0.0,0.0,0.0,0.0,0.0,0.0,0.0,0.0,0.0,0.0,0.0,0.0,0.0,0.0,0.0,0.0,0.0,0.0,0.0,0.0,0.0,0.0,0.0,0.0,0.0,0.0,0.0,0.0,0.0,0.0,0.0,0.0,0.0,0.0,0.0,0.0,0.0,0.0,0.0,0.0,0.0,0.0,0.0,0.0,0.0,0.0,0.0,0.0,0.0,0.0,0.0,0.0,0.0,0.0,0.0,0.0,0.0,0.0,0.0,0.0,0.0,0.0,0.0,0.0,0.0,0.0,0.0,0.0,0.0,0.0,0.0,0.0,0.0,0.0,0.0,0.0,0.0,0.0,0.0,0.0,0.0,0.0,0.0,0.0,0.0,0.0,0.0,0.0,0.0,0.0,0.0,0.0,0.0,0.0,0.0,0.0,0.0,0.0,0.0,0.0,0.0,0.0,0.0,0.0,0.0,0.0,0.0,0.0,0.0,0.0,0.0,0.0,0.0,0.0,0.0,0.0,0.0,0.0,0.0,0.0,0.0,0.0,0.0,0.0,0.0,0.0,0.0,0.0,0.0,0.0,0.0,0.0,0.0,0.0,0.0,0.0,0.0,0.0,0.0,0.0,0.0,0.0,0.0,0.0,0.0,0.0,0.0,0.0,0.0,0.0,0.0,0.0,0.0,0.0,0.0,0.0,0.0,0.0,0.0,0.0,0.0,0.0,0.0,0.0,0.0,0.0,0.0,0.0,0.0,0.0,0.0,0.0,0.0,0.0,0.0,0.0,0.0,0.0,0.0,0.0,0.0,0.0,0.0,0.0,0.0,0.0,0.0,0.0,0.0,0.0,0.0,0.0,0.0,0.0,0.0,0.0,0.0,0.0,0.0,0.0,0.0,0.0,0.0,0.0,0.0,0.0,0.0,0.0,0.0,0.0,0.0,0.0,0.0,0.0,0.0,0.0,0.0,0.0,0.0,0.0,0.0,0.0,0.0,0.0,0.0,0.0,0.0,0.0,0.0,0.0,0.0,0.0,0.0,0.0,0.0,0.0,0.0,0.0,0.0,0.0,0.0,0.0,0.0,0.0,0.0,0.0,0.0,0.0,0.0,0.0,0.0,0.0,0.0,0.0,0.0,0.0,0.0,0.0,0.0,0.0,0.0,0.0,0.0,0.0,0.0,0.0,0.0,0.0,0.0,0.0,0.0,0.0,0.0,0.0,0.0,0.0,0.0,0.0,0.0,0.0,0.0,0.0,0.0,0.0,0.0,0.0,0.0,0.0,0.0,0.0,0.0,0.0,0.0,0.0,0.0,0.0,0.0,0.0,0.0,0.0,0.0,0.0,0.0,0.0,0.0,0.0,0.0,0.0,0.0,0.0,0.0,0.0,0.0,0.0,0.0,0.0,0.0,0.0,0.0,0.0,0.0,0.0,0.0,0.0,0.0,0.0,0.0,0.0,0.0,0.0,0.0,0.0,0.0,0.0,0.0,0.0,0.0,0.0,0.0,0.0,0.0,0.0,0.0,0.0,0.0,0.0,0.0,0.0,0.0,0.0,0.0,0.0,0.0,0.0,0.0,0.0,0.0,0.0,0.0,0.0,0.0,0.0,0.0,0.0,0.0,0.0,0.0,0.0,0.0,0.0,0.0,0.0,0.0,0.0,0.0,0.0,0.0,0.0,0.0,0.0,0.0,0.0,0.0,0.0,0.0,0.0,0.0,0.0,0.0,0.0,0.0,0.0,0.0,0.0,0.0,0.0,0.0,0.0,0.0,0.0,0.0,0.0,0.0,0.0,0.0,0.0,0.0,0.0,0.0,0.0,0.0,0.0,0.0,0.0,0.0,0.0,0.0,0.0,0.0,0.0,0.0,0.0,0.0,0.0,0.0,0.0,0.0,0.0,0.0,0.0,0.0,0.0,0.0,0.0,0.0,0.0,0.0,0.0,0.0,0.0,0.0,0.0,0.0,0.0,0.0,0.0,0.0,0.0,0.0,0.0,0.0,0.0,0.0,0.0,0.0,0.0,0.0,0.0,0.0,0.0,0.0,0.0,0.0,0.0,0.0,0.0,0.0,0.0,0.0,0.0,0.0,0.0,0.0,0.0,0.0,0.0,0.0,0.0,0.0,0.0,0.0,0.0,0.0,0.0,0.0,0.0,0.0,0.0,0.0,0.0,0.0,0.0,0.0,0.0,0.0,0.0,0.0,0.0,0.0,0.0,0.0,0.0,0.0,0.0,0.0,0.0,0.0,0.0,0.0,0.0,0.0,0.0,0.0,0.0,0.0,0.0,0.0,0.0,0.0,0.0,0.0,0.0,0.0,0.0,0.0,0.0,0.0,0.0,0.0,0.0,0.0,0.0,0.0,0.0,0.0,0.0,0.0,0.0,0.0,0.0,0.0,0.0,0.0,0.0,0.0,0.0,0.0,0.0,0.0,0.0,0.0,0.0,0.0,0.0,0.0,0.0,0.0,0.0,0.0,0.0,0.0,0.0,0.0,0.0,0.0,0.0,0.0,0.0,0.0,0.0,0.0,0.0,0.0,0.0,0.0,0.0,0.0,0.0,0.0,0.0,0.0,0.0,0.0,0.0,0.0,0.0,0.0,0.0,0.0,0.0,0.0,0.0,0.0,0.0,0.0,0.0,0.0,0.0,0.0,0.0,0.0,0.0,0.0,0.0,0.0,0.0,0.0,0.0,0.0,0.0,0.0,0.0,0.0,0.0,0.0,0.0,0.0,0.0,0.0,0.0,0.0,0.0,0.0,0.0,0.0,0.0,0.0,0.0,0.0,0.0,0.0,0.0,0.0,0.0,0.0,0.0,0.0,0.0,0.0,0.0,0.0,0.0,0.0,0.0,0.0,0.0,0.0,0.0,0.0,0.0,0.0,0.0,0.0,0.0,0.0,0.0,0.0,0.0,0.0,0.0,0.0,0.0,0.0,0.0,0.0,0.0,0.0,0.0,0.0,0.0,0.0,0.0,0.0,0.0,0.0,0.0,0.0,0.0,0.0,0.0,0.0,0.0,0.0,0.0,0.0,0.0,0.0,0.0,0.0,0.0,0.0,0.0,0.0,0.0,0.0,0.0,0.0,0.0,0.0,0.0,0.0,0.0,0.0,0.0,0.0,0.0,0.0,0.0,0.0,0.0,0.0,0.0,0.0,0.0,0.0,0.0,0.0,0.0,0.0,0.0,0.0,0.0,0.0,0.0,0.0,0.0,0.0,0.0,0.0,0.0,0.0,0.0,0.0,0.0,0.0,0.0,0.0,0.0,0.0,0.0,0.0,0.0,0.0,0.0,0.0,0.0,0.0,0.0,0.0,0.0,0.0,0.0,0.0,0.0,0.0,0.0,0.0,0.0,0.0,0.0,0.0,0.0,0.0,0.0,0.0,0.0,0.0,0.0,0.0,0.0,0.0,0.0,0.0,0.0,0.0,0.0,0.0,0.0,0.0,0.0,0.0,0.0,0.0,0.0,0.0,0.0,0.0,0.0,0.0,0.0,0.0,0.0,0.0,0.0,0.0,0.0,0.0,0.0,0.0,0.0,0.0,0.0,0.0,0.0,0.0,0.0,0.0,0.0,0.0,0.0,0.0,0.0,0.0,0.0,0.0,0.0,0.0,0.0,0.0,0.0,0.0,0.0,0.0,0.0,0.0,0.0,0.0,0.0,0.0,0.0,0.0,0.0,0.0,0.0,0.0,0.0,0.0,0.0,0.0,0.0,0.0,0.0,0.0,0.0,0.0,0.0,0.0,0.0,0.0,0.0,0.0,0.0,0.0,0.0,0.0,0.0,0.0,0.0,0.0,0.0,0.0,0.0,0.0,0.0,0.0,0.0,0.0,0.0,0.0,0.0,0.0,0.0,0.0,0.0,0.0,0.0,0.0,0.0,0.0,0.0,0.0,0.0,0.0,0.0,0.0,0.0,0.0,0.0,0.0,0.0,0.0,0.0,0.0,0.0,0.0,0.0,0.0,0.0,0.0,0.0,0.0,0.0,0.0,0.0,0.0,0.0,0.0,0.0,0.0,0.0,0.0,0.0,0.0,0.0,0.0,0.0,0.0,0.0,0.0,0.0,0.0,0.0,0.0,0.0,0.0,0.0,0.0,0.0,0.0,0.0,0.0,0.0,0.0,0.0,0.0,0.0,0.0,0.0,0.0,0.0,0.0,0.0,0.0,0.0,0.0,0.0,0.0,0.0,0.0,0.0,0.0,0.0,0.0,0.0,0.0,0.0,0.0,0.0,0.0,0.0,0.0,0.0,0.0,0.0,0.0,0.0,0.0,0.0,0.0,0.0,0.0,0.0,0.0,0.0,0.0,0.0,0.0,0.0,0.0,0.0,0.0,0.0,0.0,0.0,0.0,0.0,0.0,0.0,0.0,0.0,0.0,0.0,0.0,0.0,0.0,0.0,0.0,0.0,0.0,0.0,0.0,0.0,0.0,0.0,0.0,0.0,0.0,0.0,0.0,0.0,0.0,0.0,0.0,0.0,0.0,0.0,0.0,0.0,0.0,0.0,0.0,0.0,1.8694,0.0,0.0,0.0,0.0,0.0,0.0,0.0,0.0,0.0,0.0,0.0,0.0,0.0,0.0,0.0,0.0,0.0,0.0,0.0,0.0,0.0,0.0,0.0,0.0,0.0,0.0,0.0,0.9427,0.9427,0.9427,0.9095,0.0,0.0,0.0,0.0,0.9054,0.9486,1.0119,1.0918,1.1824,1.3487,1.5806,1.5056,1.3859,1.237,0.0,0.0,0.0,0.0,0.0,0.0,0.0,0.0,0.0,0.0,0.0,0.0,0.0,0.0,0.0,0.0,0.0,0.0,0.0,0.0,0.0,0.0,0.0,0.0,0.0,0.0,0.0,0.0,0.0,0.0,0.0,0.0,0.0,0.0,0.0,0.0,0.0,0.0,0.0,0.0,0.0,0.0,0.0,0.0,0.0,0.0,0.0,0.0,0.0,0.0,0.0,0.0,0.0,0.0,0.0,0.0,0.0,0.0,0.0,0.0,0.0,0.0,0.0,0.0,0.0,0.0,0.0,0.0,0.0,0.0,0.0,2.0164,0.0,0.0,0.0,0.0,0.0,0.0,0.0,0.0,0.0,0.0,0.0,0.0,0.0,0.0,0.0,0.0,0.0,0.0,0.0,0.0,0.0,0.0,0.0,0.9946,1.0517,1.0835,1.0601,1.0499,1.0655,0.9707,0.9129,0.9095,0.9075,0.9177,0.9384,1.0403,1.171,1.3263,1.5063,1.7524,2.0554,2.1369,2.04,1.792,1.6146,0.0,0.0,0.0,0.0,0.0,0.0,0.0,0.0,0.0,0.0,0.0,0.0,0.0,0.0,0.0,0.0,0.0,0.0,0.0,0.0,0.0,0.0,0.0,0.0,0.0,0.0,0.0,0.0,0.0,0.0,0.0,0.0,0.0,0.0,0.0,0.0,0.0,0.0,0.0,0.0,0.0,0.0,0.0,0.0,0.0,0.0,0.0,0.0,0.0,0.0,0.0,0.0,0.0,0.0,0.0,0.0,0.0,0.0,0.0,0.0,0.0,0.0,0.0,0.0,2.9404,3.0741,3.0741,3.1284,3.1917,2.6773,2.4586,2.4512,0.0,0.0,0.0,0.0,0.0,0.0,0.0,0.0,0.0,0.0,0.0,0.0,0.0,0.0,0.0,0.0,0.0,0.0,0.0,0.0,0.0,0.0,1.1519,1.2618,1.4127,1.2981,1.2497,1.3243,1.1304,1.0042,0.9861,0.9259,0.9315,1.0134,1.1589,1.2845,1.3872,1.965,2.3783,2.6319,2.7133,2.764,2.7665,2.2021,1.9847,2.0155,0.0,0.0,0.0,0.0,0.0,0.0,0.0,0.0,0.0,0.0,0.0,0.0,0.0,0.0,0.0,0.0,0.0,0.0,0.0,0.0,0.0,0.0,0.0,0.0,0.0,0.0,0.0,0.0,0.0,0.0,0.0,0.0,0.0,0.0,0.0,0.0,0.0,0.0,0.0,0.0,0.0,2.0839,2.1734,0.0,0.0,0.0,0.0,0.0,0.0,0.0,0.0,0.0,0.0,0.0,0.0,0.0,0.0,2.7519,2.9946,3.1324,3.1688,3.3355,3.4271,3.45,3.45,3.4958,3.5738,3.4165,0.0,2.7939,2.6253,0.0,0.0,0.0,0.0,0.0,0.0,0.0,0.0,0.0,0.0,0.0,0.0,0.0,0.0,0.0,0.0,0.0,0.0,0.0,0.0,0.0,1.4924,1.6807,1.7638,1.9582,1.9371,1.6085,1.5682,1.3979,1.0371,1.0272,1.058,1.1134,1.3097,1.611,2.0182,2.5743,2.9261,3.079,3.1586,3.2162,3.2379,2.959,2.653,2.3288,2.0653,0.0,0.0,0.0,0.0,0.0,0.0,0.0,0.0,0.0,0.0,0.0,0.0,0.0,0.0,0.0,0.0,0.0,0.0,0.0,0.0,0.0,0.0,0.0,0.0,0.0,0.0,0.0,0.0,0.0,0.0,0.0,0.0,0.0,0.0,0.0,0.0,0.0,0.0,0.0,2.19,2.3771,2.3651,2.3495,2.2791,0.0,0.0,0.0,0.0,0.0,0.0,0.0,0.0,0.0,2.8544,2.9867,3.1119,3.2332,3.438,3.5702,3.6252,3.7941,3.8992,3.947,3.947,3.968,3.9986,3.9126,3.7399,3.4905,3.0792,2.8089,2.639,0.0,0.0,0.0,0.0,0.0,2.3514,0.0,0.0,0.0,0.0,0.0,0.0,0.0,0.0,0.0,0.0,0.0,0.0,1.5418,1.892,2.1545,2.264,2.5377,2.5039,2.0318,1.9312,1.6806,1.2099,1.1625,1.1852,1.2693,1.6059,2.0897,2.7198,3.1202,3.3782,3.4963,3.5561,3.596,3.6141,3.5709,3.2632,2.758,2.478,2.1984,1.9113,0.0,0.0,0.0,0.0,0.0,0.0,0.0,0.0,0.0,0.0,0.0,0.0,0.0,0.0,0.0,0.0,0.0,0.0,0.0,0.0,0.0,0.0,0.0,0.0,0.0,0.0,0.0,0.0,0.0,0.0,0.0,0.0,0.0,0.0,0.0,0.0,0.0,2.4313,2.6272,2.5053,2.627,2.61,0.0,0.0,0.0,0.0,0.0,0.0,2.893,3.0486,3.2094,3.3786,3.4986,3.5993,3.6795,3.8266,3.9431,4.0291,4.1533,4.2603,4.3443,4.3443,4.3443,4.3386,4.2526,4.18,4.0817,3.524,3.2287,3.1124,2.9558,2.8388,2.7743,2.9049,2.8801,2.807,0.0,0.0,0.0,0.0,0.0,0.0,0.0,0.0,0.0,0.0,0.0,1.6474,2.0315,2.3252,2.6403,3.0129,2.8116,2.6675,2.679,2.049,1.6535,1.6028,1.3178,1.2738,1.5162,2.1397,2.7421,3.3177,3.4881,3.6924,3.9196,3.9232,3.9669,4.0324,3.8732,3.6997,3.4844,2.8654,2.6349,2.6246,1.9313,0.0,0.0,0.0,0.0,0.0,0.0,0.0,0.0,0.0,0.0,0.0,0.0,0.0,0.0,0.0,0.0,0.0,0.0,0.0,0.0,0.0,0.0,0.0,0.0,0.0,0.0,0.0,0.0,0.0,0.0,0.0,0.0,0.0,0.0,0.0,0.0,0.0,0.0,2.5206,2.7927,0.0,0.0,0.0,0.0,2.8567,3.0064,3.177,3.357,3.4475,3.5717,3.7379,3.9079,4.0368,4.117,4.2087,4.2947,4.3758,4.3834,4.4341,4.5173,4.5173,4.5173,4.5125,4.4246,4.3854,4.3472,3.9155,3.6344,3.4659,3.3748,3.2777,3.1921,3.2207,3.2239,3.2226,0.0,0.0,0.0,0.0,0.0,0.0,0.0,0.0,1.1809,1.3049,1.6667,2.0354,2.3582,2.85,3.2379,3.4373,3.5974,3.5113,3.0917,2.6626,2.3128,2.059,1.7295,1.774,2.2436,2.68,3.1034,3.513,3.721,3.894,4.0336,4.0303,4.0432,4.0669,4.0089,3.9439,3.8501,3.3665,3.0305,2.7822,2.3204,1.9815,0.0,0.0,0.0,0.0,0.0,0.0,0.0,0.0,0.0,0.0,0.0,0.0,0.0,0.0,0.0,0.0,0.0,0.0,0.0,0.0,0.0,0.0,0.0,0.0,0.0,0.0,0.0,0.0,0.0,0.0,0.0,0.0,0.0,0.0,0.0,0.0,0.0,3.0037,3.2943,0.0,3.1866,3.2905,3.3737,3.3788,3.5329,3.6771,3.799,3.882,4.0024,4.1695,4.2364,4.31,4.395,4.4246,4.4551,4.4838,4.4838,4.4991,4.5307,4.5307,4.5307,4.5288,4.4972,4.4838,4.4685,4.2622,4.074,3.9099,3.827,3.7385,3.6662,3.7279,3.6802,3.5933,0.0,0.0,0.0,0.0,0.0,0.0,0.0,0.0,1.3,1.484,1.9591,2.4062,2.7335,3.3022,3.7153,3.8479,4.0325,3.9235,3.4078,3.0017,2.6441,2.3348,2.1325,2.2607,2.7643,3.1099,3.4442,3.7726,3.9529,4.0844,4.1679,4.1628,4.1611,4.1593,4.1267,4.1104,4.0887,3.8057,3.447,3.0394,2.7031,2.4475,2.2258,0.0,0.0,0.0,0.0,0.0,0.0,0.0,0.0,0.0,0.0,0.0,0.0,0.0,0.0,0.0,0.0,0.0,0.0,0.0,0.0,0.0,0.0,0.0,0.0,0.0,0.0,0.0,0.0,0.0,0.0,0.0,0.0,0.0,0.0,0.0,3.417,3.3616,3.6757,3.8094,3.5851,3.7169,3.8066,3.7799,3.9336,4.0654,4.1504,4.2049,4.2985,4.4399,4.4437,4.4723,4.5288,4.5307,4.5307,4.5307,4.5307,4.5307,4.5307,4.5307,4.5307,4.5307,4.5307,4.5307,4.5269,4.4685,4.3787,4.266,4.1571,4.0788,4.0348,4.0941,4.0234,3.903,0.0,0.0,0.0,0.0,0.0,0.0,0.0,1.2181,1.419,1.6744,2.2256,2.752,3.1635,3.666,4.0528,4.2538,4.0514,3.8294,3.6369,3.0131,2.5787,2.4172,2.5008,2.7075,3.0375,3.4215,3.7821,4.1148,4.187,4.2607,4.3412,4.3394,4.3394,4.3394,4.2465,4.2136,4.2221,4.1601,3.8799,3.4489,3.0875,2.9429,2.8895,0.0,0.0,0.0,0.0,0.0,0.0,0.0,0.0,0.0,0.0,0.0,0.0,0.0,0.0,0.0,0.0,0.0,0.0,0.0,0.0,0.0,0.0,0.0,0.0,0.0,0.0,0.0,0.0,0.0,0.0,0.0,0.0,0.0,2.914,3.414,3.7196,3.563,3.9126,4.0387,3.713,3.9775,4.1361,4.0549,4.2011,4.3252,4.4006,4.4045,4.4437,4.5269,4.5307,4.5307,4.5307,4.5307,4.5307,4.5307,4.5307,4.5307,4.5307,4.5307,4.5307,4.5307,4.5307,4.5307,4.5307,4.5307,4.5307,4.5154,4.3501,4.2889,4.2889,4.2889,4.2335,4.1457,0.0,0.0,0.0,0.0,0.0,0.0,1.145,1.3496,1.5874,1.8468,2.4923,3.0536,3.3828,3.9169,4.2655,4.3038,4.0858,3.8811,3.7232,3.0448,2.6389,2.6107,2.9175,3.2504,3.5995,3.7511,3.9581,4.2248,4.2226,4.2642,4.3463,4.3411,4.3705,4.4236,4.3395,4.3304,4.3707,4.2476,4.0851,3.8822,3.5781,3.3523,3.1571,0.0,0.0,0.0,0.0,0.0,0.0,0.0,0.0,0.0,0.0,0.0,0.0,0.0,0.0,0.0,0.0,0.0,0.0,0.0,0.0,0.0,0.0,0.0,0.0,0.0,0.0,0.0,0.0,0.0,0.0,0.0,0.0,3.5076,3.4495,3.7398,3.9871,4.0616,4.3329,4.4762,4.3845,4.5163,4.5717,4.4857,4.522,4.5316,4.4953,4.4934,4.5048,4.5288,4.5307,4.5307,4.5307,4.5307,4.5307,4.5307,4.5307,4.5307,4.5307,4.5307,4.5307,4.5307,4.5307,4.5307,4.5307,4.5307,4.5307,4.525,4.4781,4.4609,4.4609,4.4609,4.4055,4.3109,0.0,0.0,0.0,0.0,0.0,0.0,1.2229,1.4229,1.6566,1.9236,2.6116,3.1742,3.4302,3.9258,4.2045,4.1218,3.9331,3.7106,3.4619,3.0224,2.8098,2.8958,3.2678,3.6166,3.9274,4.03,4.1614,4.324,4.3063,4.314,4.3515,4.3445,4.3886,4.4619,4.3813,4.3851,4.4455,4.3515,4.267,4.178,4.0057,3.8301,3.6372,3.3074,3.1864,3.1562,2.8742,2.8771,2.9603,2.5987,0.0,0.0,0.0,0.0,0.0,0.0,0.0,0.0,0.0,0.0,0.0,0.0,0.0,0.0,0.0,0.0,0.0,0.0,0.0,0.0,0.0,0.0,0.0,0.0,3.6604,3.9623,4.0549,4.1351,4.2459,4.415,4.5621,4.6653,4.7005,4.7502,4.7578,4.7092,4.7043,4.6691,4.5851,4.5793,4.564,4.5307,4.5307,4.5449,4.5793,4.5468,4.5468,4.5793,4.5449,4.5307,4.5307,4.5307,4.5307,0.0,4.5307,4.5307,4.5307,4.5307,4.5307,0.0,0.0,0.0,0.0,0.0,4.4227,4.331,0.0,0.0,0.0,0.0,0.0,0.0,1.2899,1.4605,1.6723,1.9464,2.6158,3.1481,3.3603,3.7629,3.9614,3.8265,3.6639,3.4142,3.0448,2.992,3.0557,3.237,3.5747,3.8686,4.1011,4.2639,4.3643,4.4005,4.4005,4.3867,4.3626,4.3551,4.403,4.4929,4.403,4.4085,4.4818,4.4538,4.407,4.3474,4.3301,4.2669,4.1539,3.8614,3.8527,3.9475,3.5597,3.396,3.3204,3.0548,0.0,0.0,0.0,0.0,0.0,0.0,0.0,0.0,0.0,0.0,0.0,0.0,0.0,0.0,0.0,0.0,0.0,0.0,0.0,0.0,0.0,0.0,0.0,0.0,4.0845,4.3138,4.6214,4.5362,4.498,4.6481,4.6729,4.7111,4.7865,4.8017,4.8036,4.7941,4.7865,4.7406,4.6557,0.0,0.0,0.0,0.0,4.5774,4.65,4.5793,4.5793,4.65,4.5679,4.5307,4.5307,4.5307,4.5307,4.5307,4.5307,4.5307,4.5307,4.5307,4.5307,4.5307,4.5307,4.5307,4.5201,4.4437,4.3692,0.0,0.0,0.0,0.0,0.0,0.0,0.0,1.3127,1.5121,1.7541,2.0222,2.5361,2.9784,3.2484,3.5208,3.6942,3.7234,3.4433,3.1952,3.0313,3.1323,3.3112,3.5659,3.8899,4.1278,4.2643,4.4294,4.477,4.4005,4.4005,4.4163,4.4452,4.3791,4.4617,4.6562,4.5131,4.4911,4.5608,4.4923,4.4188,4.3496,4.3465,4.2665,4.1434,4.0783,4.0245,3.973,3.8888,3.9937,4.1225,3.7859,3.7024,3.6787,3.3375,2.9422,0.0,0.0,0.0,0.0,0.0,0.0,0.0,0.0,0.0,0.0,0.0,0.0,0.0,0.0,0.0,0.0,0.0,0.0,0.0,4.0578,4.3558,4.6003,4.7349,4.7272,4.7196,4.7502,4.8162,4.8659,4.8831,4.9442,4.9557,4.8888,4.82,4.7406,4.6557,4.587,0.0,4.5307,4.5927,4.6347,4.65,4.6347,4.6347,4.65,0.0,0.0,4.5307,4.5307,4.5307,4.5307,4.5307,4.5307,4.5307,4.5307,4.5307,4.5307,4.5307,4.5307,4.5288,4.5105,4.4953,4.4685,0.0,0.0,0.0,0.0,0.0,0.0,1.369,1.5139,1.7154,1.9806,2.375,2.7351,3.0136,3.173,3.2403,3.1933,2.9479,2.8581,3.0057,3.2201,3.4747,3.7766,4.1097,4.3165,4.375,4.4974,4.5279,4.4599,4.4209,4.4538,4.5521,4.4558,4.5053,4.6722,4.5735,4.5296,4.5278,4.5048,4.4386,4.3496,4.3682,4.3331,4.2727,4.2853,4.257,4.207,4.1957,4.2721,4.3417,4.0936,4.0147,3.9729,3.7053,3.3873,3.0551,0.0,0.0,0.0,0.0,0.0,0.0,0.0,0.0,0.0,0.0,0.0,0.0,0.0,0.0,3.286,3.5392,0.0,4.1227,4.4169,4.6424,4.8086,4.8926,4.906,4.8907,4.8506,4.8831,4.9263,4.9652,5.0054,5.013,4.9729,4.9308,4.8697,4.7857,4.7016,4.6557,4.6557,4.6519,4.692,4.778,4.694,4.6729,4.7139,4.5889,4.5307,4.5307,4.5307,4.5307,4.5307,4.5307,4.5307,4.5307,4.5307,4.5307,4.5307,4.5307,4.5307,4.5307,4.5307,4.501,4.459,0.0,0.0,0.0,0.0,0.0,0.0,0.0,1.5053,1.6478,1.8902,2.1798,2.4581,2.7115,2.7633,2.7328,2.6134,2.5148,2.6324,3.0399,3.3142,3.6153,3.9644,4.2901,4.4636,4.4684,4.5533,4.5771,4.534,4.4737,4.518,4.6505,4.5507,4.5688,4.6828,4.6261,4.5624,4.5034,4.509,4.4521,4.3615,4.3894,4.4017,4.4091,4.4318,4.4397,4.4377,4.4197,4.3604,4.2739,4.1998,4.1113,4.011,3.903,3.7573,3.5437,3.1173,2.9978,0.0,0.0,0.0,0.0,0.0,0.0,0.0,0.0,0.0,3.0128,3.2688,3.4407,3.6604,4.032,4.182,4.3692,4.7436,4.8774,4.9557,5.0206,5.0302,5.0054,4.9404,4.9328,4.9519,5.0015,5.0206,5.0245,5.0073,5.0073,4.971,4.8888,4.8181,4.7712,4.754,4.7188,4.7685,4.9091,4.7532,4.7111,4.7769,4.6099,4.5307,4.5307,4.5307,4.5307,4.5307,4.5307,4.5256,4.5213,4.5267,4.5307,4.5307,4.5307,4.5307,4.5307,4.5307,4.4807,4.4154,0.0,0.0,0.0,0.0,0.0,0.0,0.0,0.0,1.6246,1.802,1.9782,2.1608,2.3578,2.2995,2.2666,2.3188,2.5122,2.8135,3.2395,3.4803,3.7925,4.2102,4.4507,4.5733,4.5733,4.6805,4.6879,4.5809,4.6032,4.644,4.7003,4.6457,4.7036,4.8464,4.6999,4.6294,4.6166,4.5177,4.4437,4.3958,4.3989,4.4151,4.436,4.4402,4.4397,4.4425,4.4644,4.2768,4.046,4.2103,4.1609,4.053,4.182,4.1562,4.0024,3.6182,3.3061,3.0038,2.6236,2.4606,2.486,2.8559,2.9044,3.0178,0.0,0.0,3.6233,3.8792,4.0024,4.1266,4.3223,4.4866,4.6596,4.8621,4.9633,5.0206,5.0283,5.0302,5.0264,5.0187,5.0168,4.992,4.9289,4.9882,4.9996,4.9289,4.9243,4.885,4.7979,4.7845,4.7444,4.6672,4.8048,4.8899,4.911,4.8143,4.7693,4.7769,4.6099,4.5307,4.5307,4.5307,4.5307,4.5307,4.5307,4.5121,4.4879,4.5173,4.5307,4.5307,4.5307,4.5307,4.5307,4.5307,4.5052,4.4759,0.0,0.0,0.0,0.0,0.0,0.0,0.0,0.0,0.0,1.7125,1.788,1.8932,2.0682,2.0018,1.9996,2.1332,2.34,2.6772,3.1844,3.4887,3.8093,4.1739,4.4022,4.5204,4.5204,4.6119,4.6598,4.6599,4.6267,4.6779,4.8069,4.7221,4.7272,4.8091,4.768,4.7,4.6097,4.6103,4.5546,4.4676,4.4484,4.4497,4.4542,4.3727,4.266,4.1682,4.226,4.0841,0.0,3.9433,3.9517,3.9499,4.0339,3.9595,3.7976,3.579,3.3921,3.2152,3.0242,2.9711,3.0013,3.1336,3.286,3.477,3.7597,3.8094,3.8686,4.1227,4.2393,4.3482,4.5152,4.6432,4.7665,0.0,4.9786,5.0149,4.9671,4.9595,4.9404,4.8907,4.885,4.8907,4.9091,4.9404,4.9461,4.9129,4.9519,4.9633,4.927,4.8812,4.8602,4.8716,4.8965,4.9308,4.9786,4.8965,4.8296,4.7788,4.6577,4.5755,4.5307,4.5307,4.5307,4.5307,4.5307,4.5224,4.5109,4.5246,4.5307,4.5307,4.5307,4.5184,4.5034,4.5235,4.5205,4.5109,0.0,0.0,0.0,0.0,0.0,0.0,0.0,0.0,0.0,0.0,1.6409,1.6831,1.806,1.7642,1.7971,1.9701,2.1443,2.48,3.0357,3.371,3.7036,4.054,4.2811,4.4215,4.4673,4.57,4.6526,4.7094,4.6746,4.7279,4.864,4.7923,4.77,4.7943,4.8105,4.7536,4.6484,4.68,4.6326,4.5367,4.5016,4.4561,4.3925,4.2287,4.0169,3.8227,3.9363,3.7941,3.5534,3.5612,3.5884,3.633,3.6948,3.6511,3.558,3.4488,3.325,3.2179,3.1987,3.2592,3.3375,3.3673,3.6099,3.8534,3.8992,3.9775,4.0979,4.3061,4.3959,4.48,4.6252,4.7016,4.7818,4.8919,4.9595,4.9767,4.9186,4.911,4.8678,4.7559,4.7264,4.736,4.8001,4.8468,4.8735,4.8735,4.95,4.9977,4.9977,4.9633,4.9595,4.9958,4.9614,4.971,5.0283,4.95,4.8659,4.7788,4.692,4.608,4.5307,4.5307,4.5246,4.5173,4.5256,4.5246,4.5173,4.5256,4.5307,4.5307,4.5307,4.5143,4.4969,4.5205,4.5246,4.5173,0.0,0.0,0.0,0.0,0.0,0.0,0.0,0.0,0.0,0.0,0.0,0.0,0.0,1.5681,1.6342,1.8024,1.9659,2.2831,2.8155,3.1087,3.4567,3.8994,4.1167,4.3008,4.4583,4.6213,4.7076,4.7094,4.7846,4.8251,4.8325,4.8604,4.8761,4.8742,4.8166,4.7893,4.778,4.6892,4.6258,4.5827,4.5451,4.4116,4.2134,3.9871,3.7039,3.4531,3.6494,3.3922,2.9731,3.0819,3.0647,3.0262,3.1977,3.3554,3.4523,3.3459,3.0914,2.8697,2.9715,3.0753,3.2344,3.5583,3.8315,4.0645,4.2278,4.3261,4.4102,4.5029,4.525,4.5507,4.6347,4.6519,4.7092,4.8812,4.9129,4.9129,4.911,4.911,4.8449,4.6748,4.5851,4.5403,0.0,4.6901,4.7845,4.7845,4.864,4.9148,4.9148,4.9843,4.992,4.9167,4.9862,5.0283,5.0302,4.95,4.8659,4.7788,4.692,4.608,4.5307,4.5307,4.5121,4.4825,4.5162,4.5109,4.4843,4.5173,4.5307,4.5307,4.5307,4.5297,4.5297,4.5297,4.5098,4.4868,0.0,0.0,0.0,0.0,0.0,0.0,0.0,0.0,0.0,0.0,0.0,0.0,0.0,0.0,0.0,0.0,1.8899,2.1797,2.6256,2.9407,3.249,3.5584,3.779,3.9705,4.1313,4.239,4.3486,4.4656,4.4912,4.5352,4.592,4.6028,4.6357,4.6873,4.6615,4.6522,4.6486,4.6066,4.5338,4.4324,4.2938,4.1872,4.081,3.8034,3.4781,3.1693,0.0,2.9768,2.7371,2.7372,2.7559,2.8063,2.9325,2.9636,2.9373,2.8558,2.9606,3.1126,3.1613,3.4072,3.7005,3.926,4.1304,4.3051,4.4208,4.4666,4.4953,4.5239,4.4418,4.3711,4.3997,4.4494,4.5019,4.5621,4.7608,4.8708,4.7532,4.8372,4.8028,4.5171,4.5583,0.0,0.0,0.0,0.0,4.7712,4.8602,4.9328,4.9862,5.0149,5.0187,4.9901,5.0168,5.0302,5.0302,5.0034,4.948,4.864,4.7188,4.608,4.5307,4.5307,4.5235,4.5151,4.5246,4.5235,4.5132,4.5246,4.5307,4.5307,4.5307,4.5307,4.5307,4.5307,4.5235,4.5151,0.0,0.0,0.0,0.0,0.0,0.0,0.0,0.0,0.0,0.0,0.0,0.0,0.0,0.0,0.0,0.0,0.0,2.0118,2.3589,2.624,2.8909,3.1667,3.3369,3.5024,3.6641,3.7426,3.8647,4.0359,4.065,4.1362,4.2493,4.2493,4.2915,4.3703,4.372,4.3867,4.4124,4.4122,4.3354,4.1967,4.0336,3.8752,3.7026,3.405,3.093,0.0,2.633,2.5095,2.417,2.3824,2.4506,2.557,2.5919,2.6218,2.6469,2.6727,2.924,3.2403,3.4416,3.7368,4.0368,4.2354,4.3883,4.4972,4.5239,4.5307,4.5135,4.4532,4.325,4.2045,4.1454,4.1501,4.1919,4.2721,4.4992,4.6618,4.6428,4.7342,4.7137,4.4751,4.543,4.566,0.0,0.0,0.0,4.7693,4.8315,4.9251,5.0684,5.0474,5.0436,5.076,5.0455,5.0302,5.0302,5.0302,4.9901,4.9091,4.7322,4.6233,4.5717,4.543,4.5307,4.5307,4.5307,4.5307,4.5307,4.5307,4.5307,4.5307,4.5307,4.5307,4.5307,4.5307,4.5307,4.5307,0.0,0.0,0.0,0.0,0.0,0.0,0.0,0.0,0.0,0.0,0.0,0.0,0.0,0.0,0.0,0.0,0.0,0.0,2.0243,2.1779,2.4072,2.7336,2.817,2.9301,3.0901,3.178,3.3017,3.4574,3.5393,3.6599,3.8136,3.8172,3.8613,3.9414,3.9588,4.0052,4.0733,4.0977,4.0239,3.8766,3.753,3.4808,3.1165,2.8354,2.5805,2.3461,2.1224,2.0354,2.0279,2.0491,2.1723,2.3088,2.2362,2.3858,2.6255,2.8123,3.0095,3.2769,3.7772,4.0444,4.2393,4.4819,4.5965,4.6309,4.5545,4.5269,4.4685,4.2994,4.1708,4.0376,0.0,0.0,3.8062,4.0266,4.1695,4.3383,4.5866,4.6271,4.609,0.0,0.0,0.0,0.0,0.0,0.0,4.7865,0.0,4.9011,5.1544,5.0837,5.076,5.1582,5.076,5.0302,5.0302,5.0302,4.9901,4.9091,4.7417,4.6596,4.6481,4.5706,4.5324,4.5267,4.5256,4.5256,4.5286,4.5324,4.5354,4.5383,4.5411,4.5403,4.5364,4.5364,4.5345,4.5307,0.0,0.0,0.0,0.0,0.0,0.0,0.0,0.0,0.0,0.0,0.0,0.0,0.0,0.0,0.0,0.0,0.0,0.0,1.7759,1.9216,2.0952,2.302,2.4369,2.5832,2.7441,2.8276,2.9233,3.0279,3.1099,3.2055,3.3145,3.3752,3.4447,3.5228,3.5181,3.5257,3.544,3.5473,3.457,3.2985,3.1477,2.9921,2.8299,2.6352,2.4523,2.2894,2.2305,2.0998,1.9736,2.0852,2.3327,2.5996,2.6559,2.811,3.0103,3.1848,3.5028,3.8403,4.0339,4.3463,4.6347,4.6997,4.6825,4.6462,4.6233,4.4762,4.2917,4.109,3.8518,3.6027,3.4188,0.0,0.0,3.8131,4.2332,0.0,4.6328,4.8044,0.0,4.6432,0.0,4.7608,4.6328,4.6978,0.0,0.0,4.9671,5.0493,5.2384,5.1716,5.136,5.1589,5.076,5.0302,5.0302,5.0302,4.9901,4.9091,4.8651,4.7761,4.6489,4.6073,4.5535,4.4922,4.472,4.4745,4.4972,4.563,4.6001,4.6252,4.692,4.6768,4.6194,4.6194,4.5812,4.5307,0.0,0.0,0.0,0.0,0.0,0.0,0.0,0.0,0.0,0.0,0.0,0.0,0.0,0.0,0.0,0.0,0.0,0.0,0.0,1.71,1.8271,1.9889,2.0427,2.1297,2.2567,2.3353,2.3997,2.4486,2.5648,2.6488,2.7018,2.7826,2.8609,2.9368,2.9652,2.9958,3.0303,3.0277,2.9569,0.0,0.0,2.5578,2.4671,2.3029,2.1869,2.1125,2.1143,2.1093,2.1332,2.3321,2.5353,2.7389,2.9437,3.1087,3.2855,3.5647,3.8547,4.1323,4.3634,4.6271,4.8277,4.7903,4.7425,4.6459,4.4173,4.2579,4.0614,3.726,3.4727,3.2562,3.0744,3.226,3.428,0.0,0.0,0.0,4.6108,4.7879,4.8677,0.0,4.8812,0.0,4.8258,4.9289,5.055,0.0,5.0932,5.12,5.3263,5.2575,5.2136,5.2136,5.1314,5.0684,5.0302,5.0302,5.0073,4.9614,4.9282,4.8506,4.7386,4.6486,4.595,4.5623,0.0,4.4686,4.5197,4.5668,4.5981,4.6145,4.6638,4.6752,4.655,4.5835,4.5603,4.559,0.0,0.0,0.0,0.0,0.0,0.0,0.0,0.0,0.0,0.0,0.0,0.0,0.0,0.0,0.0,0.0,0.0,0.0,0.0,0.0,1.6089,1.7606,1.6933,1.6951,1.7813,1.8449,1.8787,1.8787,2.0282,2.1025,2.1043,2.1848,2.2564,2.3208,2.3904,2.461,2.5262,2.531,2.4878,2.4031,2.2689,2.1734,2.0961,0.0,1.9016,1.9134,1.9302,2.0878,2.3332,2.6355,2.7687,2.8628,3.191,3.3752,3.5513,3.9536,4.1397,4.3004,4.692,4.8602,4.9041,4.82,4.7788,4.6334,4.1315,3.981,3.8049,3.2902,3.0958,2.9658,2.7902,2.92,3.136,3.3911,0.0,4.2162,4.5645,4.6998,4.7997,4.8991,4.9901,5.0474,5.0474,5.1888,5.3148,5.4027,5.2059,5.183,5.4142,5.3454,5.2919,5.2805,5.2021,5.1238,5.0474,5.0474,5.0417,5.0283,4.9656,4.9105,4.8545,4.701,4.6463,4.6682,0.0,0.0,4.5708,4.5817,4.5917,4.6008,4.6058,4.6471,4.6838,4.5298,4.5343,4.6051,0.0,0.0,0.0,0.0,0.0,0.0,0.0,0.0,0.0,0.0,1.6526,1.5289,0.0,0.0,0.0,0.0,0.0,0.0,0.0,0.0,0.0,1.5889,1.5791,1.6088,1.6907,1.7045,1.7128,1.7128,1.8063,1.8516,1.8534,1.9349,1.9793,1.9929,2.0056,2.0192,2.0318,2.0336,1.9874,1.913,1.8858,1.8667,1.8522,1.8273,0.0,0.0,2.0022,2.0686,2.1947,2.668,3.0179,3.3047,3.586,3.8317,4.0702,4.3547,4.498,4.6118,4.8277,4.9461,4.9901,4.9079,4.7799,4.5742,4.1943,3.8897,3.5552,3.0931,2.8679,2.7018,2.5206,2.7481,3.0696,3.3933,3.8217,4.2367,4.5867,4.7762,4.8892,0.0,5.0455,5.136,5.136,5.2231,0.0,0.0,0.0,5.3951,5.5116,5.4352,5.3531,5.2824,5.2021,5.1544,5.1391,5.136,5.1009,5.0302,5.0615,4.9995,4.857,4.774,4.7031,4.6434,0.0,0.0,4.6301,4.6985,4.7578,4.811,4.8524,4.8512,4.8148,4.6925,4.6557,4.6473,0.0,0.0,0.0,0.0,0.0,0.0,0.0,1.8397,1.9729,2.1342,2.0536,1.9196,1.7548,1.628,1.5569,0.0,0.0,0.0,0.0,0.0,0.0,0.0,1.4879,1.506,1.5429,1.6276,1.6294,1.5454,0.0,1.6849,1.6045,1.6859,1.724,1.7232,1.7664,1.7845,1.7845,1.7845,1.7636,1.7273,1.7306,1.7586,1.7957,0.0,0.0,0.0,2.0201,2.119,2.2626,2.6054,2.9809,3.3774,3.7782,4.0482,4.266,4.5182,4.6519,4.736,4.82,4.9347,4.9882,4.8162,4.6806,4.4461,3.9083,3.5912,3.2713,2.7763,2.6088,2.5226,2.4365,2.6641,2.9522,3.2094,3.592,3.9916,4.3821,4.5966,4.7619,4.8938,5.0951,5.2212,0.0,5.3397,0.0,0.0,0.0,5.4486,5.5345,5.4581,5.3702,5.2824,5.2422,5.1811,5.0932,5.1792,5.1582,5.0321,5.1008,5.0516,4.8947,4.8193,4.7692,4.7333,4.6323,0.0,4.676,4.6723,4.7151,4.7807,4.7603,4.7897,4.8292,4.6896,4.6743,4.7058,0.0,0.0,0.0,0.0,0.0,0.0,0.0,2.021,2.1894,2.4266,2.4411,2.3306,2.0644,1.8624,1.7255,0.0,0.0,0.0,0.0,0.0,0.0,0.0,0.0,0.0,0.0,0.0,0.0,1.4553,1.5809,0.0,0.0,0.0,0.0,0.0,1.6153,1.6349,1.6186,1.6186,1.6294,0.0,0.0,1.7118,0.0,0.0,0.0,0.0,0.0,2.134,2.2803,2.5145,2.8223,3.1941,3.6976,3.9967,4.2133,4.4643,4.5998,4.6838,4.7586,4.8774,4.9251,4.7054,4.5621,4.3,3.6241,3.326,3.0471,2.5281,2.419,2.419,2.419,2.5971,2.8153,3.0307,3.3354,3.7041,4.154,4.3784,4.5922,0.0,5.0856,0.0,5.2766,0.0,0.0,0.0,0.0,0.0,5.4968,5.4529,5.3938,5.3251,5.2952,5.2251,5.1123,5.2231,5.2136,5.0837,5.1574,5.1106,4.9562,4.8768,4.837,4.8233,4.6966,0.0,0.0,4.6673,4.6838,4.739,4.6691,4.7242,4.8218,4.6709,4.6837,4.7602,0.0,0.0,0.0,0.0,0.0,0.0,0.0,2.1595,2.4339,2.6753,2.6427,2.5588,2.4574,2.1767,1.9095,0.0,0.0,0.0,0.0,0.0,0.0,0.0,0.0,0.0,0.0,0.0,0.0,1.5397,0.0,0.0,0.0,0.0,0.0,0.0,0.0,1.5205,1.4517,1.4517,0.0,0.0,0.0,0.0,0.0,0.0,0.0,0.0,0.0,2.0142,2.0294,2.4356,2.6035,2.7171,3.1563,3.523,3.8411,4.0999,4.2349,4.3683,4.6915,4.7903,4.7769,4.6768,4.4743,4.156,3.5976,3.2845,2.9805,2.5161,2.419,2.419,2.419,2.498,2.6706,2.9987,3.2121,3.5184,4.0416,4.2701,4.4851,4.7586,0.0,0.0,5.2652,0.0,0.0,0.0,0.0,0.0,0.0,5.4343,5.4703,5.4609,5.3441,5.311,5.3741,5.311,5.2709,5.2575,5.2828,5.2086,5.0447,4.9786,4.9044,4.8306,0.0,0.0,0.0,4.8122,4.8292,4.86,4.8236,4.8348,4.8618,4.7445,4.7517,4.8014,0.0,0.0,0.0,0.0,0.0,0.0,2.0155,2.2021,2.4328,2.7676,2.7839,2.7152,2.586,2.4176,2.1785,1.8443,0.0,0.0,0.0,0.0,0.0,0.0,0.0,0.0,0.0,0.0,1.5907,1.6215,1.6215,0.0,0.0,0.0,0.0,0.0,0.0,0.0,1.43,1.43,0.0,0.0,0.0,0.0,0.0,0.0,0.0,0.0,0.0,0.0,2.0221,2.1532,2.2994,2.4499,2.5697,2.8042,3.161,3.7934,4.0731,4.2332,4.4834,4.6623,4.7463,4.6118,4.3429,3.9991,3.5681,3.1872,2.8297,2.4901,2.419,2.419,2.419,2.4456,2.5431,2.7774,2.8833,3.0816,3.4936,3.7637,4.053,4.4184,4.7094,0.0,0.0,0.0,0.0,0.0,0.0,0.0,0.0,5.3486,5.3627,5.2589,5.2525,5.2526,5.2582,5.3244,5.332,5.2805,5.3168,5.2382,5.0576,5.006,4.927,4.8306,0.0,0.0,0.0,4.7773,4.7941,4.844,4.783,4.796,4.844,4.7996,4.8031,4.8214,0.0,0.0,0.0,0.0,0.0,1.77,2.0699,2.222,2.4273,2.7785,2.8038,2.755,2.6645,2.5009,2.2944,2.0391,1.8987,0.0,0.0,0.0,0.0,0.0,0.0,0.0,0.0,0.0,1.6929,1.7418,1.7418,1.7527,0.0,0.0,0.0,0.0,0.0,0.0,0.0,0.0,0.0,0.0,0.0,0.0,0.0,0.0,0.0,0.0,0.0,0.0,0.0,0.0,0.0,2.2415,2.2052,2.3301,2.6377,3.3827,3.7599,3.9863,4.2197,4.4711,4.6394,4.5201,4.2072,3.839,3.5094,3.0921,2.7064,2.4688,2.419,2.419,2.419,2.419,2.4649,2.6025,2.6554,2.8084,3.1744,3.4212,3.7213,4.1495,0.0,0.0,0.0,0.0,0.0,0.0,0.0,0.0,0.0,5.2363,5.2126,5.119,5.167,5.1863,5.1667,5.3035,5.3359,5.2654,5.3153,5.2394,5.0576,5.0095,4.9307,4.8306,0.0,0.0,0.0,4.7681,4.7791,4.8251,4.7681,4.7791,4.8306,4.8306,4.8306,4.8306,0.0,0.0,0.0,0.0,0.0,0.0,1.9938,2.2292,2.4664,2.7079,2.6717,2.653,2.7296,2.3893,2.183,2.259,2.0463,0.0,0.0,0.0,0.0,0.0,0.0,0.0,0.0,0.0,1.7491,1.9077,1.9077,1.9467,2.0264,2.0264,1.9421,0.0,0.0,0.0,0.0,0.0,0.0,0.0,0.0,0.0,0.0,0.0,0.0,0.0,0.0,0.0,0.0,0.0,0.0,0.0,0.0,2.2382,2.387,2.822,3.2011,3.5536,3.9085,4.2006,4.4045,4.4025,4.0738,3.6824,3.413,3.0096,2.6405,2.4578,2.419,2.419,2.419,2.419,2.4475,2.5283,2.608,2.812,3.2486,3.3794,3.5953,0.0,0.0,0.0,0.0,0.0,0.0,0.0,0.0,0.0,0.0,5.0987,5.0485,5.1267,5.1167,5.1324,5.1791,5.2471,5.2641,5.2319,5.2856,5.2226,5.0579,4.9917,4.9133,0.0,0.0,0.0,0.0,4.8306,4.8306,4.8306,4.8306,4.8306,4.8306,4.8306,4.8306,4.8306,0.0,0.0,0.0,0.0,0.0,0.0,0.0,2.021,2.2075,2.3948,2.3966,2.4092,2.4864,2.289,2.1595,2.1848,2.0173,0.0,0.0,0.0,0.0,0.0,0.0,0.0,0.0,0.0,1.9421,1.992,2.0463,2.088,2.1115,2.0554,1.9721,1.8679,1.7881,0.0,0.0,0.0,0.0,0.0,0.0,0.0,0.0,0.0,0.0,0.0,0.0,0.0,0.0,0.0,0.0,0.0,0.0,0.0,0.0,2.4284,2.7931,3.1785,3.4754,3.6584,3.7648,3.7648,3.5235,3.2492,3.108,2.8238,2.5547,2.4429,2.419,2.419,2.419,2.419,2.4814,2.6733,2.7236,2.8088,0.0,0.0,0.0,3.8916,4.5005,0.0,0.0,0.0,0.0,0.0,0.0,0.0,0.0,5.0158,4.9954,5.0395,4.9838,5.0109,5.1305,5.129,5.175,5.2641,5.2127,5.1415,5.0579,4.9843,0.0,0.0,0.0,0.0,0.0,4.8306,4.8306,4.8306,4.8306,4.8306,4.8306,4.8306,4.8306,4.8306,0.0,0.0,0.0,0.0,0.0,0.0,0.0,1.8805,2.0318,2.1613,2.1794,2.231,2.365,2.1876,2.097,2.1866,2.0192,0.0,0.0,0.0,0.0,0.0,0.0,0.0,1.9095,1.9594,2.0282,2.1206,2.2002,2.2383,2.2365,2.2165,2.1161,1.9511,1.8705,1.7923,0.0,0.0,0.0,0.0,0.0,0.0,1.8875,0.0,0.0,0.0,0.0,0.0,0.0,0.0,0.0,0.0,0.0,0.0,0.0,0.0,2.4219,2.7382,3.0978,3.307,3.4242,3.4242,3.2237,3.0034,2.9212,2.6904,2.4805,2.43,2.419,2.419,2.419,2.419,2.4685,2.619,2.6696,2.7518,0.0,0.0,0.0,3.9908,0.0,0.0,0.0,0.0,0.0,0.0,0.0,0.0,0.0,0.0,4.969,4.9843,4.9174,4.9211,5.0027,5.041,5.0825,5.1282,5.1,5.0367,4.9466,4.9178,0.0,0.0,0.0,0.0,0.0,4.8306,4.8306,4.8306,4.8306,4.8306,4.8306,4.8306,4.8306,4.8306,0.0,0.0,0.0,0.0,0.0,0.0,0.0,1.7936,1.9222,2.001,2.0137,2.097,2.3216,2.0853,1.9992,2.2246,0.0,0.0,0.0,0.0,0.0,0.0,0.0,0.0,1.9095,1.9222,2.0373,2.2608,2.3588,2.4023,2.3987,2.4748,2.3464,2.0535,1.9665,1.88,1.7968,0.0,0.0,0.0,1.7859,1.8185,0.0,0.0,0.0,0.0,0.0,0.0,0.0,0.0,0.0,0.0,0.0,0.0,0.0,0.0,0.0,0.0,0.0,3.0752,3.2769,3.2826,3.0959,2.8903,2.81,2.5986,0.0,2.419,2.419,2.4208,2.4263,2.4245,2.4263,2.4428,2.5081,2.6774,0.0,3.3161,0.0,0.0,0.0,0.0,0.0,0.0,0.0,0.0,0.0,0.0,0.0,0.0,4.9519,4.9519,4.9011,4.8623,4.8344,4.9732,4.9898,4.885,4.9614,4.9168,4.7701,4.8108,0.0,0.0,0.0,0.0,0.0,4.8306,4.8269,4.8233,4.8288,4.8269,4.8233,4.8288,4.8306,4.8306,0.0,0.0,0.0,0.0,0.0,0.0,0.0,0.0,0.0,0.0,1.8461,1.8914,2.0074,1.9548,1.9331,0.0,0.0,0.0,0.0,0.0,0.0,0.0,0.0,0.0,1.9095,2.03,2.1206,2.1776,2.4393,2.5676,2.5732,2.5914,2.4972,2.3075,2.1653,1.9921,1.8107,1.8525,0.0,0.0,1.8695,1.9014,0.0,0.0,0.0,0.0,1.9297,1.9822,0.0,0.0,0.0,0.0,0.0,0.0,0.0,0.0,2.0658,2.1215,2.3086,0.0,2.5616,2.6227,2.592,2.5382,0.0,2.4652,2.419,2.419,2.419,2.4392,2.5007,2.4622,2.4795,2.6649,2.7119,2.8238,3.112,0.0,0.0,0.0,0.0,0.0,0.0,0.0,0.0,0.0,0.0,0.0,0.0,0.0,4.8618,4.8618,4.8493,4.8495,4.8694,4.879,4.8949,4.9177,4.8879,4.8642,4.8501,4.8366,0.0,0.0,0.0,0.0,4.8306,4.8306,4.7938,4.7443,4.8067,4.7921,4.7461,4.8086,4.8306,4.8306,0.0,0.0,0.0,0.0,0.0,0.0,0.0,0.0,0.0,0.0,0.0,0.0,0.0,0.0,0.0,0.0,0.0,0.0,0.0,0.0,0.0,0.0,0.0,1.9095,1.9095,2.0318,2.1487,2.2603,2.502,2.6431,2.6898,2.6852,2.5849,2.3963,2.199,2.0189,1.8679,1.9123,1.8834,1.817,1.8985,0.0,0.0,0.0,0.0,0.0,1.8886,1.9502,0.0,2.0951,2.1657,2.2208,0.0,0.0,0.0,0.0,1.995,2.0134,2.0978,2.207,2.3098,2.3547,2.3933,2.419,2.419,2.419,2.419,2.419,2.419,2.4318,2.4768,2.4805,2.5172,2.6494,2.8046,0.0,0.0,0.0,0.0,0.0,0.0,0.0,0.0,0.0,0.0,0.0,0.0,0.0,0.0,0.0,4.871,4.8324,4.8691,4.8787,4.8587,4.8383,4.8477,4.8849,4.8477,4.8199,4.8033,4.8217,0.0,0.0,0.0,0.0,4.8306,4.8306,4.8049,4.7681,4.8141,4.8031,4.77,4.8141,4.8306,4.8306,0.0,0.0,0.0,0.0,0.0,0.0,0.0,0.0,0.0,0.0,0.0,0.0,0.0,0.0,0.0,0.0,0.0,0.0,0.0,0.0,0.0,0.0,1.9095,1.9222,1.9458,2.0128,2.1606,2.3896,2.5832,2.7131,2.7818,2.8124,2.6781,2.4022,2.1723,2.0183,1.9298,1.93,1.8911,1.8335,1.904,0.0,0.0,0.0,0.0,0.0,0.0,0.0,0.0,2.1206,2.2116,2.2804,2.1757,0.0,0.0,0.0,0.0,0.0,2.0437,2.1905,2.3153,2.3024,2.3602,2.419,2.419,2.419,2.419,2.419,2.419,2.4281,2.452,2.5117,0.0,0.0,0.0,0.0,0.0,0.0,0.0,0.0,0.0,0.0,0.0,0.0,0.0,0.0,0.0,0.0,0.0,0.0,0.0,4.8324,4.9022,4.8985,4.8141,4.8251,4.8251,4.8122,4.8122,4.77,4.6929,4.7627,4.7626,0.0,0.0,0.0,4.8122,4.8122,4.7976,4.7774,4.8031,4.8049,4.7957,4.8214,4.8306,4.8306,0.0,0.0,0.0,0.0,0.0,0.0,0.0,0.0,0.0,0.0,0.0,0.0,0.0,0.0,0.0,0.0,0.0,0.0,0.0,0.0,0.0,1.9095,1.9095,1.9739,2.1097,2.1261,2.2161,2.3896,2.7596,2.9168,2.8747,3.077,2.9033,2.4107,2.2373,2.0739,1.9308,1.9297,1.9224,1.9132,1.9242,0.0,0.0,0.0,0.0,0.0,0.0,0.0,0.0,1.9858,2.1161,2.2602,2.038,0.0,0.0,0.0,0.0,0.0,2.1188,2.2776,2.3859,2.3171,2.3602,2.419,2.419,2.419,2.419,2.419,2.419,2.4612,2.5988,2.6337,2.709,0.0,0.0,0.0,0.0,0.0,0.0,0.0,0.0,0.0,0.0,0.0,0.0,0.0,0.0,0.0,0.0,0.0,0.0,4.8306,4.8434,4.8122,4.7278,4.7957,4.7957,4.7278,4.7278,4.6856,4.6085,4.6214,4.6581,0.0,0.0,4.7278,4.7278,4.7278,4.647,4.5388,4.6746,4.6856,4.6434,4.781,4.8306,4.8306,0.0,0.0,0.0,0.0,0.0,0.0,0.0,0.0,0.0,0.0,0.0,0.0,0.0,0.0,0.0,0.0,0.0,0.0,0.0,0.0,1.9494,2.0355,1.9974,2.03,2.1468,2.2805,2.4491,2.6545,2.9302,3.0953,3.153,3.09,2.8072,2.3511,2.2326,2.0876,1.9297,1.9297,1.9297,1.9297,0.0,0.0,0.0,0.0,0.0,0.0,0.0,0.0,0.0,0.0,2.0656,2.2061,2.0464,0.0,0.0,0.0,0.0,0.0,2.0233,2.1647,2.3024,2.3529,2.4905,2.6153,2.6153,2.6153,2.6153,2.6153,2.6153,2.6374,2.7108,0.0,3.06,3.4947,0.0,0.0,0.0,0.0,0.0,0.0,0.0,0.0,0.0,0.0,0.0,0.0,0.0,0.0,0.0,0.0,0.0,0.0,4.7921,4.7517,4.7206,4.7058,4.6819,4.6452,4.6452,4.6269,4.5902,4.5902,4.6104,4.6452,0.0,4.6452,4.6452,4.6452,4.603,4.5424,4.6159,4.6232,4.6049,4.7223,4.792,4.8306,0.0,0.0,0.0,0.0,0.0,0.0,0.0,0.0,0.0,0.0,0.0,0.0,0.0,0.0,0.0,0.0,0.0,0.0,0.0,1.9095,1.9721,2.1169,2.0988,2.1505,2.2874,2.4608,2.6847,2.9667,3.13,3.2687,3.3733,3.0509,2.695,2.3244,2.2235,2.0876,1.9297,1.9297,1.9297,1.9297,0.0,0.0,0.0,0.0,0.0,0.0,0.0,0.0,0.0,0.0,0.0,0.0,0.0,0.0,0.0,2.0252,1.9738,1.9675,2.006,2.1243,2.2694,2.4126,2.5742,2.7236,2.8385,2.8356,2.8282,2.9053,2.92,2.9145,2.8962,3.0919,0.0,3.9367,0.0,0.0,0.0,0.0,0.0,0.0,0.0,0.0,0.0,0.0,0.0,0.0,0.0,0.0,0.0,0.0,0.0,0.0,4.7224,4.682,4.669,4.5975,4.5626,4.5626,4.5626,4.5516,4.5333,4.5333,4.5443,4.5626,4.5626,4.5626,4.5626,4.5626,4.5516,4.5351,4.5553,4.5736,4.5975,4.6581,4.7223,4.7774,0.0,0.0,0.0,0.0,0.0,0.0,0.0,0.0,0.0,0.0,0.0,0.0,0.0,0.0,0.0,0.0,0.0,0.0,0.0,1.9095,1.9485,2.0355,2.1757,2.3943,2.7004,2.6563,2.8273,3.2229,3.3899,3.4403,3.3733,3.0509,2.7244,2.4043,2.2492,2.0876,1.9297,1.9297,1.9297,1.9297,1.9297,0.0,0.0,0.0,0.0,0.0,0.0,0.0,0.0,0.0,0.0,0.0,0.0,0.0,2.1776,2.1666,2.1051,2.0749,2.2309,2.3364,2.4226,2.5099,2.4879,2.5621,3.013,2.9989,2.9757,3.2742,3.3366,3.3146,3.2381,3.4284,3.6813,3.9488,0.0,0.0,0.0,0.0,0.0,0.0,0.0,0.0,0.0,0.0,0.0,0.0,0.0,0.0,0.0,0.0,0.0,0.0,0.0,4.5753,4.4892,4.4819,4.4783,4.4783,4.4783,4.4397,4.368,4.368,4.4066,4.4783,4.4783,4.4783,4.4783,4.4783,4.436,4.3736,4.4488,4.5241,4.5902,4.5975,4.6012,4.6177,0.0,0.0,0.0,0.0,0.0,0.0,0.0,0.0,0.0,0.0,0.0,0.0,0.0,0.0,0.0,0.0,0.0,0.0,0.0,1.9102,1.9918,2.1715,2.1905,2.3725,2.7545,2.8779,3.1154,3.4788,3.5485,3.5128,3.3733,3.0509,2.7281,2.4135,2.2528,2.1151,2.0016,1.9517,1.9583,1.9997,1.9499,1.8519,0.0,0.0,0.0,0.0,0.0,0.0,0.0,0.0,1.8805,2.0079,2.0197,2.129,2.2336,2.1308,2.0768,2.0639,2.1281,2.2786,2.4263,2.4585,2.5558,2.7438,3.1274,3.1678,3.2014,3.4798,3.5734,3.6024,3.5697,0.0,4.0188,0.0,0.0,0.0,0.0,0.0,0.0,0.0,0.0,0.0,0.0,0.0,0.0,0.0,0.0,0.0,0.0,0.0,0.0,0.0,0.0,4.5109,4.4902,4.4266,4.3956,4.3956,4.3956,4.3791,4.3515,4.3515,4.3663,4.3956,4.3956,4.3956,4.3956,4.3956,4.3754,4.3533,4.3828,4.4452,4.5149,4.5149,4.548,4.5938,0.0,0.0,0.0,0.0,0.0,0.0,0.0,0.0,0.0,0.0,0.0,0.0,0.0,0.0,0.0,0.0,0.0,0.0,1.9102,1.9117,1.9979,2.1889,2.1934,2.3611,2.7247,2.9893,3.2605,3.5453,3.5738,3.478,3.2596,2.9629,2.706,2.4869,2.2749,2.1749,2.1575,2.0244,2.0005,2.0437,1.962,1.8482,0.0,0.0,0.0,0.0,0.0,0.0,0.0,0.0,1.8009,1.9447,1.994,2.1253,2.2446,2.1557,2.13,2.1226,2.097,2.2336,2.3878,2.4135,2.6007,2.8778,3.2509,3.3573,3.4747,3.8248,3.8854,3.8837,3.9091,0.0,0.0,0.0,0.0,0.0,0.0,0.0,0.0,0.0,0.0,0.0,0.0,0.0,0.0,0.0,0.0,0.0,0.0,0.0,0.0,0.0,0.0,4.4464,4.4566,4.3876,4.3513,4.3515,4.3515,4.3515,4.3515,4.3515,4.3515,4.3515,4.3515,4.3515,4.3515,4.3515,4.3515,4.3515,4.3515,4.3828,4.4323,4.4323,4.4837,4.5516,0.0,0.0,0.0,0.0,0.0,0.0,0.0,0.0,0.0,0.0,0.0,0.0,0.0,0.0,0.0,0.0,0.0,0.0,1.9107,1.9158,1.9549,2.0368,2.1935,2.3943,2.6417,2.96,3.2091,3.3807,3.4582,3.3335,3.0136,2.7732,2.6602,2.6447,2.3245,2.2712,2.4025,2.1557,2.0511,2.0456,1.9638,1.8831,1.8016,0.0,0.0,0.0,0.0,0.0,0.0,0.0,1.689,1.7477,2.0747,2.1794,2.1959,2.2749,2.2988,2.2804,2.2014,2.2391,2.3208,2.4025,2.6043,2.9108,3.394,3.5697,3.79,4.3534,4.2994,4.1761,4.2552,4.1637,0.0,0.0,0.0,0.0,0.0,0.0,0.0,0.0,0.0,0.0,0.0,0.0,0.0,0.0,0.0,0.0,0.0,0.0,0.0,0.0,0.0,0.0,4.3599,4.3599,4.3565,4.3515,4.3515,4.3515,4.3515,4.3515,4.3515,4.3515,4.3515,4.3515,4.3515,4.3515,4.3515,4.3515,4.3515,4.3515,4.3515,4.3515,4.3993,4.4691,0.0,0.0,0.0,0.0,0.0,0.0,0.0,0.0,0.0,0.0,0.0,0.0,0.0,0.0,0.0,0.0,0.0,0.0,1.9107,1.9208,1.9632,2.0445,2.1478,2.2667,2.4014,2.6635,2.9892,3.3807,3.3463,3.1959,2.9335,2.8044,2.6539,2.4887,2.4511,2.3979,2.3226,2.1318,2.119,2.2125,2.0713,1.9656,1.8856,0.0,0.0,0.0,0.0,0.0,0.0,0.0,0.0,0.0,1.9389,2.0839,2.1849,2.2088,2.2161,2.2106,2.1867,2.2804,2.4171,2.5548,2.8546,3.2173,3.5899,3.6523,3.782,4.3185,4.3471,4.2835,4.3069,0.0,0.0,0.0,0.0,0.0,0.0,0.0,0.0,0.0,0.0,0.0,0.0,0.0,0.0,0.0,0.0,0.0,0.0,0.0,0.0,0.0,0.0,0.0,4.3736,4.3651,4.3565,4.3515,4.3515,4.3515,4.3515,4.3515,4.3515,4.3515,4.3515,4.3515,4.3496,4.3548,4.3565,4.3565,4.3565,4.3565,4.3565,4.3532,4.3662,4.3864,0.0,0.0,0.0,0.0,0.0,0.0,0.0,0.0,0.0,0.0,1.9095,1.9095,0.0,0.0,0.0,0.0,0.0,0.0,1.9142,1.9248,1.9662,2.0468,2.1292,2.2584,2.4382,2.585,2.7879,3.0448,3.0613,2.9457,2.7097,2.7585,2.7181,2.6135,2.6612,2.63,2.5244,2.3281,2.2657,2.2878,2.1538,2.0519,1.9656,0.0,0.0,0.0,0.0,0.0,0.0,0.0,0.0,0.0,1.795,1.9253,2.0472,2.1088,2.1537,2.1867,2.2198,2.3676,2.5548,2.7152,3.0583,3.4504,3.8128,3.9426,4.0826,4.4302,4.4435,4.4039,4.4398,4.4715,0.0,0.0,0.0,0.0,0.0,0.0,0.0,0.0,0.0,0.0,0.0,0.0,0.0,0.0,0.0,0.0,0.0,0.0,0.0,0.0,0.0,0.0,4.3719,4.3651,4.3565,4.3515,4.3515,4.3515,4.3515,4.3515,4.3515,4.3515,4.3515,4.3515,4.3515,4.3565,4.3599,4.3599,4.3599,4.3599,4.3582,4.3513,4.3699,4.392,0.0,0.0,1.4644,1.5361,0.0,0.0,0.0,0.0,0.0,0.0,1.9095,1.9095,0.0,0.0,0.0,1.9095,1.9162,1.9211,1.9211,1.9261,1.9656,2.0448,2.14,2.3309,2.6319,2.6308,2.5878,2.5062,2.6825,2.6447,2.4153,2.6704,2.8227,2.8785,2.8932,2.8877,2.851,2.6109,2.4236,2.2822,2.2088,2.1272,2.0327,1.8786,0.0,0.0,0.0,0.0,0.0,0.0,0.0,0.0,1.6615,1.7403,1.8309,1.9924,2.0996,2.1886,2.2776,2.4777,2.7042,2.8877,3.2472,3.6574,4.0446,4.3311,4.5348,4.6097,0.0,4.5182,4.605,0.0,0.0,0.0,0.0,0.0,0.0,0.0,0.0,0.0,0.0,0.0,0.0,0.0,0.0,0.0,0.0,0.0,0.0,0.0,0.0,0.0,0.0,0.0,4.3378,4.3525,4.3528,0.0,4.346,4.3515,4.3515,4.3515,4.3515,4.3515,4.3515,4.3515,4.3515,4.36,4.3615,4.3615,4.3615,4.3615,4.3599,4.3532,4.3956,4.4488,0.0,0.0,1.5307,1.547,0.0,0.0,0.0,0.0,0.0,0.0,0.0,0.0,0.0,0.0,0.0,1.9095,1.9162,1.9211,1.9211,1.9261,1.9656,2.0448,2.1942,2.3364,2.4685,2.4088,2.3382,2.2565,2.5456,2.5621,2.3336,2.7024,2.8161,2.717,2.8436,2.7952,2.6017,2.3593,2.2363,2.2051,2.1867,2.1272,2.0401,1.9418,1.8151,0.0,0.0,0.0,0.0,0.0,0.0,0.0,1.645,1.7018,1.7458,1.9087,2.0134,2.1115,2.2655,2.4798,2.7449,3.1023,3.5872,4.027,4.2047,4.3624,4.4788,4.5019,4.5057,4.5322,0.0,0.0,0.0,0.0,0.0,0.0,0.0,0.0,0.0,0.0,0.0,0.0,0.0,0.0,0.0,0.0,0.0,0.0,0.0,0.0,0.0,0.0,0.0,4.2345,4.1703,4.2973,4.3252,0.0,4.3185,4.3515,4.3515,4.3515,4.3515,4.3515,4.3515,4.3515,4.3515,4.3686,4.3771,4.3771,4.3771,4.3771,4.3754,4.3566,4.3608,4.3718,0.0,0.0,0.0,0.0,0.0,0.0,0.0,0.0,0.0,0.0,0.0,0.0,0.0,1.9095,0.0,0.0,1.9162,1.9211,1.9211,1.9261,1.9848,2.107,2.2703,2.3602,2.3621,2.2832,2.2024,2.118,2.2859,2.3244,2.2501,2.6143,2.7391,2.6657,2.829,2.7658,2.5319,2.4052,2.3079,2.2336,2.1959,2.1272,2.0364,1.9179,1.7729,1.6163,1.4934,0.0,0.0,0.0,0.0,0.0,0.0,0.0,1.664,1.8243,1.9308,2.038,2.248,2.5379,2.8952,3.3826,3.764,4.0667,4.2481,4.3583,4.4348,4.4829,4.5161,4.5436,0.0,0.0,0.0,0.0,0.0,0.0,0.0,0.0,0.0,0.0,0.0,0.0,0.0,0.0,0.0,0.0,0.0,0.0,0.0,0.0,0.0,0.0,4.1562,4.1581,4.1158,4.1969,4.2173,4.1735,4.2158,4.2359,4.2378,4.3149,4.3515,4.3515,4.3515,4.3515,4.3515,4.3719,4.3753,4.3719,4.3769,4.3753,4.3703,4.3549,4.3515,4.3515,0.0,0.0,0.0,0.0,0.0,0.0,0.0,0.0,0.0,0.0,0.0,0.0,0.0,1.9104,1.9104,0.0,0.0,0.0,1.9227,1.9397,2.0123,2.1519,2.3006,2.3474,2.2804,2.1987,2.1216,2.0503,2.0503,2.096,2.1867,2.4942,2.6465,2.6638,2.7849,2.72,2.5154,2.4732,2.3621,2.2107,2.1592,2.0776,1.9732,1.8401,1.6977,1.5582,1.4787,1.4493,1.453,1.4658,0.0,0.0,0.0,0.0,1.5992,1.7465,1.8463,1.9599,2.1946,2.5887,3.0597,3.5928,3.8247,3.981,4.2176,4.3281,4.4039,4.4869,4.5342,0.0,0.0,0.0,0.0,0.0,0.0,0.0,0.0,0.0,0.0,0.0,0.0,0.0,0.0,0.0,0.0,0.0,0.0,0.0,0.0,0.0,4.1662,4.071,4.082,4.082,4.0691,4.0948,4.1022,4.0875,4.1038,4.1128,4.1164,4.2503,4.3166,4.3313,4.3441,4.3515,4.3515,4.3719,4.3719,4.3599,4.3736,4.3719,4.3582,4.3513,4.3515,4.3515,0.0,0.0,0.0,0.0,0.0,0.0,0.0,0.0,0.0,0.0,1.9095,1.9095,1.9095,1.9092,1.9099,1.9099,1.9208,1.9293,1.9293,0.0,0.0,2.0658,2.1602,2.2069,2.1959,2.1125,2.0621,2.0503,2.0503,2.096,2.1849,2.4383,2.5933,2.6583,2.6109,2.5319,2.4208,2.207,2.0236,1.8812,1.9407,1.8739,1.7367,1.7147,1.6493,1.5582,1.4787,1.4493,1.4603,1.5307,1.5607,0.0,0.0,0.0,1.5876,1.678,1.7631,1.8662,2.0452,2.5484,3.1131,3.4926,3.7555,3.9608,4.1171,0.0,4.3909,0.0,0.0,0.0,0.0,0.0,0.0,0.0,0.0,0.0,0.0,0.0,0.0,0.0,0.0,0.0,0.0,0.0,0.0,0.0,0.0,0.0,0.0,4.126,4.0563,3.9074,3.9698,3.9735,3.9038,4.0398,4.0763,4.0065,4.0843,4.1188,4.1206,4.1409,4.1856,4.2506,4.3185,4.3515,4.3515,4.3719,4.3719,4.3599,4.3736,4.3719,4.3582,4.3513,4.3515,4.3515,0.0,0.0,0.0,0.0,0.0,0.0,0.0,0.0,0.0,0.0,0.0,1.9102,1.9095,1.9135,1.896,1.8481,1.8961,1.9298,1.9303,2.0044,2.0503,2.0503,2.1327,2.1574,2.1088,2.0694,2.0272,1.9822,1.9822,2.0501,2.1831,2.3355,2.4483,2.5236,2.4897,2.4034,2.2749,2.1171,1.9832,1.872,1.8188,1.8071,1.8096,1.6732,1.6291,1.6218,1.4952,1.4493,1.4622,1.5435,1.6004,1.6438,1.6798,0.0,0.0,0.0,1.7147,1.8203,2.1711,2.5143,2.8627,3.2462,3.4787,3.6753,3.9178,4.0874,4.2265,4.3395,0.0,0.0,0.0,0.0,0.0,0.0,0.0,0.0,0.0,0.0,0.0,0.0,0.0,0.0,0.0,0.0,0.0,0.0,0.0,0.0,4.115,4.0671,3.99,3.8744,3.9038,3.9056,3.8707,3.9433,3.9645,3.9341,3.9721,3.9902,3.9921,4.0382,4.1222,4.2323,4.2671,4.3075,4.3515,4.3634,4.3634,4.3548,4.3651,4.3634,4.3531,4.3515,4.3515,4.3515,0.0,0.0,0.0,0.0,0.0,0.0,0.0,0.0,0.0,0.0,0.0,1.9091,1.9094,0.0,0.0,0.0,1.8593,1.9002,1.8996,1.9748,2.0199,2.0199,2.0821,2.0858,2.0217,1.9997,1.9711,1.9297,1.9297,2.0252,2.2125,2.2721,2.3547,2.4511,2.4281,2.3419,2.2033,2.0951,1.9924,1.8911,1.7906,1.7979,1.8537,1.7162,1.7144,1.7596,1.5784,1.527,0.0,0.0,0.0,0.0,0.0,1.7055,0.0,0.0,0.0,1.7541,2.1885,2.3988,2.5857,2.9628,3.1966,3.4091,0.0,0.0,4.0362,0.0,0.0,0.0,0.0,0.0,0.0,0.0,0.0,0.0,0.0,0.0,0.0,0.0,0.0,0.0,0.0,0.0,0.0,0.0,0.0,0.0,4.1132,4.0341,3.9533,3.8726,3.8505,3.8502,3.8719,3.8792,3.8755,3.8625,3.8625,3.8611,3.8615,3.9224,4.0296,4.1699,4.1919,4.2451,4.3203,4.327,4.3381,4.3515,4.3565,4.3548,4.3515,4.3515,4.3515,4.3515,0.0,0.0,0.0,0.0,0.0,0.0,0.0,0.0,0.0,0.0,0.0,1.9107,1.9107,1.915,1.8898,1.8144,1.8133,1.8163,1.8163,1.8922,1.9352,1.9352,1.9407,0.0,1.9352,1.8629,1.8574,1.9297,1.9297,2.0556,2.2933,2.2988,2.3841,2.5301,2.4548,2.3731,2.2822,2.119,1.9594,1.8225,1.8911,1.8317,1.719,1.865,1.9704,2.0091,1.7727,0.0,0.0,0.0,0.0,0.0,0.0,0.0,1.6743,0.0,0.0,0.0,1.8959,2.1408,2.3913,2.6737,2.9918,3.2904,0.0,0.0,0.0,0.0,0.0,0.0,0.0,0.0,0.0,0.0,0.0,0.0,0.0,0.0,0.0,0.0,0.0,0.0,0.0,0.0,0.0,0.0,0.0,0.0,4.1132,4.0341,3.9533,3.8726,3.797,3.7963,3.8792,3.8866,3.8551,3.785,3.785,3.7822,3.7765,3.7821,3.8637,4.0065,4.0836,4.1625,4.2359,4.2441,4.2866,4.3515,4.3565,4.3548,4.3515,4.3515,4.3515,4.3515,0.0,0.0,0.0,0.0,0.0,0.0,0.0,0.0,0.0,0.0,0.0,0.0,0.0,1.9222,1.8749,1.7435,1.6865,1.6775,1.7293,1.7594,1.7979,1.8519,1.8537,1.8537,1.8537,1.8243,1.7979,1.7759,1.828,1.951,2.1428,2.2492,2.3584,2.4585,2.3786,2.3263,2.2859,2.0666,1.9399,1.8911,1.9187,1.9609,2.0042,2.0094,2.1293,0.0,0.0,0.0,0.0,0.0,0.0,0.0,0.0,0.0,0.0,1.5319,1.6022,1.7443,1.8381,2.0415,2.2761,2.4824,2.6841,2.8908,3.1109,3.3658,0.0,0.0,0.0,0.0,0.0,0.0,0.0,0.0,0.0,0.0,0.0,0.0,0.0,0.0,0.0,0.0,0.0,0.0,0.0,0.0,0.0,0.0,4.0404,3.9601,3.9001,3.8707,3.8414,3.8202,3.8019,3.7507,3.7127,3.6971,3.692,3.7183,3.771,3.7653,3.8217,3.9222,3.9439,4.0306,4.157,4.2117,4.2485,4.2782,4.3311,4.3513,4.3515,4.3515,4.3515,4.3515,0.0,0.0,0.0,0.0,0.0,1.9095,1.9095,1.9112,1.9119,1.9107,0.0,0.0,0.0,0.0,1.9054,1.7437,1.6578,1.6328,1.6872,1.6908,1.7147,1.7667,1.7704,1.7704,1.7704,1.7704,1.7447,1.6908,1.7704,1.8915,2.0521,2.1648,2.2878,2.4135,2.2767,2.2621,2.3281,2.1363,2.0399,2.0197,2.0729,2.1298,2.1849,2.239,0.0,0.0,0.0,0.0,0.0,0.0,0.0,0.0,0.0,0.0,0.0,0.0,0.0,1.7711,1.7746,1.9537,2.1772,2.3436,2.4727,2.6197,2.8602,0.0,0.0,0.0,0.0,0.0,0.0,0.0,0.0,0.0,0.0,0.0,0.0,0.0,0.0,0.0,0.0,0.0,0.0,0.0,0.0,0.0,0.0,0.0,3.9574,3.8514,3.7768,3.7477,3.7749,3.7555,3.6799,3.6513,3.6279,3.6098,3.6044,3.6473,3.7261,3.7219,3.7765,3.8762,3.8719,3.946,4.0763,4.157,4.2066,4.2378,4.3185,4.3515,4.3515,4.3515,4.3515,4.3515,0.0,1.9095,1.9095,1.9095,1.9095,1.9095,1.9095,1.9162,1.9176,1.9152,0.0,0.0,0.0,0.0,0.0,1.8309,1.7403,1.6927,1.6872,1.6853,1.6853,1.6853,1.689,1.6908,1.6908,1.6908,1.689,1.6853,1.7649,1.8841,2.0429,2.0448,2.1777,2.4025,2.1612,2.1868,2.4061,2.3244,2.2483,2.1978,2.3547,2.3281,2.2262,0.0,0.0,0.0,2.4928,2.4698,0.0,2.399,0.0,0.0,0.0,0.0,0.0,0.0,0.0,0.0,0.0,0.0,0.0,2.2553,2.3677,0.0,2.7565,0.0,0.0,0.0,0.0,0.0,0.0,0.0,0.0,0.0,0.0,0.0,0.0,0.0,0.0,0.0,0.0,0.0,0.0,0.0,0.0,0.0,0.0,3.8781,3.8649,3.722,3.597,3.5078,3.5896,3.5975,3.5197,3.6002,3.6024,3.5267,3.5267,3.5657,3.6398,3.6398,3.7239,3.8707,3.8707,3.9148,3.9918,4.0728,4.1552,4.2341,4.3149,4.3478,4.3515,4.3515,4.3515,4.3515,1.9059,1.9095,1.9095,1.9095,1.9095,1.9104,1.9101,1.9125,1.9358,0.0,0.0,0.0,2.0494,1.9971,1.9685,1.9814,1.8566,1.7264,1.6114,1.6022,1.6022,1.6022,1.6578,1.6908,1.6908,1.6908,1.6615,1.6022,1.6243,1.7197,1.8786,1.9363,2.0656,2.2437,2.1757,2.1831,2.2363,2.0931,2.1235,2.2758,2.3786,2.431,0.0,0.0,0.0,0.0,0.0,2.6992,2.6337,0.0,2.4794,2.2438,0.0,0.0,0.0,0.0,0.0,0.0,1.8794,0.0,0.0,0.0,0.0,0.0,2.4066,2.5673,0.0,0.0,0.0,0.0,0.0,0.0,0.0,0.0,0.0,0.0,0.0,0.0,0.0,0.0,0.0,0.0,0.0,0.0,0.0,0.0,3.7831,3.7216,3.7174,3.668,3.6274,3.6007,3.5611,3.5271,3.5064,3.4724,3.4444,3.4204,3.4204,3.4963,3.6332,3.6332,3.7199,3.8707,3.8707,3.8836,3.9093,3.99,4.0708,4.1499,4.2323,4.2983,4.3515,4.3515,4.3515,4.3515,1.9041,1.9384,1.9628,1.9603,2.0164,2.049,2.0153,2.0407,2.0723,0.0,0.0,0.0,2.153,2.1712,2.1629,2.1088,1.9546,1.806,1.6775,1.6059,1.5698,1.5698,1.6151,1.6566,1.689,1.722,1.6842,1.5698,1.6371,1.6848,1.7124,1.8262,1.9499,2.0747,2.0417,2.0839,2.1666,1.9646,2.0427,2.3134,2.4612,0.0,0.0,2.7836,2.8567,0.0,0.0,0.0,2.8323,2.8574,2.6488,0.0,0.0,0.0,0.0,0.0,0.0,0.0,0.0,0.0,0.0,0.0,0.0,0.0,2.3196,2.4224,2.5252,0.0,0.0,0.0,0.0,0.0,0.0,0.0,0.0,0.0,0.0,0.0,0.0,0.0,0.0,0.0,0.0,0.0,0.0,3.7371,3.6615,3.5977,3.5568,3.5143,3.5058,3.539,3.4213,3.3892,3.4586,3.3768,3.3498,3.3829,3.3802,3.4688,3.6285,3.5917,3.6835,3.8689,3.834,3.8395,3.8744,3.9203,4.0084,4.1168,4.1992,4.2782,4.3515,4.3515,4.3515,4.3515,0.0,1.9855,2.0444,2.0554,2.1761,2.2535,2.1998,2.2436,2.2702,0.0,2.2969,2.3465,2.3648,2.4612,2.4438,2.2382,2.0582,1.9205,1.8298,1.672,1.5821,1.5821,1.5919,1.6298,1.7018,1.7814,1.7436,1.5821,1.7179,1.7142,1.5857,1.7307,1.8408,1.9132,1.8427,1.9326,2.1262,1.9234,2.017,2.3199,2.5438,2.6056,0.0,0.0,2.8511,2.7518,2.9345,3.0018,3.0028,3.01,2.7917,0.0,0.0,0.0,0.0,0.0,2.0197,0.0,0.0,0.0,0.0,0.0,0.0,0.0,2.3694,2.3537,2.3729,0.0,0.0,0.0,0.0,0.0,0.0,0.0,0.0,0.0,0.0,0.0,0.0,0.0,0.0,0.0,0.0,3.6329,3.6266,3.6112,3.5538,3.4766,3.3852,3.3093,3.3013,3.3715,3.2447,3.2391,3.3721,3.3141,3.3158,3.3766,3.3792,3.4633,3.6138,3.5353,3.6252,3.8395,3.7768,3.7915,3.8579,3.867,3.9606,4.104,4.1864,4.2653,4.3386,4.3478,4.3515,4.3515,2.0047,2.0254,2.0798,2.2089,2.2563,2.3176,2.4385,2.359,2.3784,2.629,2.618,2.6382,2.7684,2.5805,2.4511,2.4677,2.262,2.0674,1.9168,1.7557,1.667,1.667,1.7282,1.7711,1.7851,1.8647,1.828,1.667,1.6334,1.6334,1.667,1.6982,1.7557,1.8335,1.817,1.8372,1.8886,1.9685,0.0,2.3097,2.4227,0.0,2.6682,2.8656,2.9231,2.9083,2.9693,2.9782,2.9494,2.8727,2.7669,2.6343,0.0,0.0,0.0,0.0,0.0,0.0,0.0,0.0,0.0,0.0,0.0,0.0,2.2362,2.2664,2.316,0.0,0.0,0.0,0.0,0.0,0.0,0.0,0.0,0.0,0.0,0.0,0.0,0.0,0.0,0.0,0.0,3.4039,3.3769,3.3121,3.3125,3.2796,3.198,3.1923,3.1994,3.2142,3.2416,3.241,3.2077,3.3141,3.3416,3.2937,3.3521,3.4321,3.5261,3.5078,3.5646,3.6798,3.729,3.7584,3.7786,3.8432,3.9276,4.0212,4.102,4.1827,4.2598,4.3259,4.3515,4.3515,2.03,2.1007,2.1962,2.3135,2.4069,2.5061,2.63,2.6153,2.6504,2.818,2.8411,2.8235,2.7849,2.6722,2.5668,2.4879,2.3327,2.1694,2.0005,1.8775,1.7924,1.752,1.7887,1.8474,1.9282,1.9289,1.8702,1.7502,1.708,1.65,1.5716,1.6523,1.7539,1.8665,1.7851,1.8401,1.9913,1.9483,2.0499,2.2591,2.4624,0.0,2.7557,2.893,2.9495,2.9589,2.9828,2.9809,2.967,2.9579,2.8699,0.0,0.0,2.5597,2.5179,0.0,2.3934,2.4717,0.0,0.0,0.0,2.3602,0.0,0.0,0.0,2.2692,2.2644,2.3473,0.0,0.0,0.0,0.0,0.0,0.0,0.0,0.0,0.0,0.0,0.0,0.0,0.0,0.0,0.0,3.2047,3.2051,3.1619,3.1723,3.1673,3.1421,3.112,3.1196,3.1737,3.1325,3.1487,3.2284,3.2631,3.2976,3.3357,3.3697,3.4256,3.4986,3.4582,3.511,3.6321,3.674,3.7125,3.7566,3.8377,3.8946,3.9386,4.0194,4.124,4.2304,4.2304,4.28,4.3441,2.03,2.1516,2.2847,2.3763,2.5231,2.6603,2.7567,2.8013,2.8409,2.892,2.9831,2.9751,2.7952,2.8062,2.753,2.5731,2.4575,2.3281,2.1777,0.0,0.0,1.9062,1.8592,1.9087,2.0713,1.9803,1.8831,1.7869,1.7704,1.664,1.475,1.6065,1.7447,1.8794,1.7796,1.8849,2.1206,1.9528,0.0,2.2996,0.0,2.7063,2.7688,2.878,2.9251,2.9345,2.9677,2.9794,2.9908,3.0541,2.971,2.8277,2.7494,2.7231,0.0,0.0,0.0,0.0,0.0,0.0,0.0,0.0,0.0,2.3933,0.0,0.0,0.0,2.3796,0.0,0.0,0.0,0.0,0.0,0.0,0.0,0.0,0.0,0.0,0.0,0.0,0.0,0.0,0.0,3.0004,3.0229,3.0161,3.036,3.0592,3.0821,3.0283,3.0388,3.1299,3.0233,3.0567,3.2518,3.2133,3.2544,3.3776,3.386,3.4204,3.4747,3.41,3.4541,3.5844,3.6156,3.6684,3.7345,3.8303,3.8707,3.8781,3.9588,4.0689,4.1772,4.1279,4.1919,4.2965,2.0318,2.1089,2.2209,2.3741,2.4836,2.6043,2.7567,2.6667,2.6576,2.8712,3.032,3.1421,3.1867,3.0742,3.0099,3.0552,0.0,0.0,2.596,0.0,2.1794,2.2419,0.0,0.0,2.161,2.0105,1.8555,1.7037,1.6316,1.5821,1.557,1.5747,1.631,1.722,1.8463,1.9224,1.9664,0.0,2.3262,0.0,2.6641,2.6341,0.0,2.7537,2.817,2.8283,2.9159,2.946,2.9468,0.0,2.9365,2.9016,0.0,2.8368,2.8648,0.0,0.0,0.0,0.0,0.0,0.0,0.0,2.6274,0.0,0.0,0.0,2.3777,2.3263,0.0,0.0,0.0,0.0,0.0,0.0,0.0,0.0,0.0,0.0,0.0,0.0,0.0,0.0,0.0,0.0,2.741,2.7123,2.804,2.8678,2.8826,2.9021,2.9289,2.9657,3.0196,3.0604,3.0864,3.2133,3.2822,3.2945,3.3602,3.391,3.3935,3.3844,3.3899,3.4174,3.5642,3.634,3.6541,3.8065,3.8707,3.8781,3.9588,4.001,4.0249,4.0873,4.1224,4.1462,2.0271,2.1452,2.2575,2.3232,2.4499,0.0,0.0,2.8128,2.9248,3.0265,3.1384,3.2045,3.1916,0.0,0.0,0.0,0.0,2.7769,0.0,0.0,2.341,0.0,0.0,0.0,0.0,2.016,1.8739,1.7594,1.6316,1.5454,1.5013,1.5472,1.6885,1.9017,1.9685,0.0,2.3547,0.0,2.4468,0.0,0.0,0.0,0.0,2.8984,2.9927,2.95,2.9423,2.9396,2.9396,0.0,2.9312,0.0,0.0,0.0,0.0,0.0,0.0,0.0,0.0,0.0,0.0,0.0,0.0,0.0,2.4713,0.0,2.3547,0.0,0.0,0.0,0.0,0.0,0.0,0.0,0.0,0.0,0.0,0.0,0.0,0.0,0.0,0.0,0.0,0.0,0.0,0.0,0.0,2.7821,2.8855,2.922,2.9527,2.9805,3.0324,3.0827,3.1292,3.1892,3.2637,3.3499,3.3768,3.3855,3.3807,3.3807,3.3807,3.3862,3.5037,3.5844,3.6376,3.7533,3.8267,3.8726,3.9074,3.9478,3.9882,3.9772,4.0581,4.1791,2.0275,2.1415,2.2319,2.2529,2.3776,2.4997,0.0,0.0,2.9909,3.0368,3.1109,0.0,3.2027,3.1733,0.0,0.0,3.1476,3.0063,0.0,0.0,2.5476,0.0,0.0,0.0,0.0,0.0,0.0,1.8089,1.672,1.5839,1.5484,1.5857,1.7631,2.0521,2.0988,2.3088,2.6295,0.0,2.6211,2.6403,2.8028,2.8363,2.8149,3.0531,3.1095,3.0511,2.9914,2.9572,2.9396,2.9365,2.9431,0.0,2.9638,0.0,0.0,0.0,0.0,0.0,2.7794,0.0,0.0,0.0,0.0,0.0,0.0,0.0,0.0,0.0,0.0,0.0,0.0,0.0,0.0,0.0,0.0,0.0,0.0,0.0,0.0,0.0,0.0,0.0,0.0,0.0,0.0,0.0,2.6566,2.7308,2.9003,2.9224,2.9466,2.9752,3.0215,3.0754,3.1369,3.1591,3.2359,3.3666,3.3602,3.3653,3.3807,3.3807,3.3807,3.3844,3.4656,3.5353,3.6028,3.707,3.7841,3.8395,3.8615,3.9056,3.9496,3.8927,3.9955,4.1589,2.0338,2.0541,2.0818,2.1596,2.2484,0.0,0.0,0.0,0.0,0.0,0.0,0.0,0.0,0.0,0.0,0.0,0.0,3.533,3.3642,0.0,2.8408,0.0,0.0,2.2913,0.0,0.0,0.0,0.0,1.7275,1.7238,1.7961,1.7202,1.8155,2.0558,2.2199,2.3897,2.5649,2.7169,2.9226,3.1399,3.0695,3.1823,3.3677,0.0,3.0572,3.0593,3.0502,0.0,0.0,2.9262,2.9725,0.0,0.0,0.0,0.0,0.0,0.0,0.0,0.0,0.0,0.0,2.7394,0.0,0.0,0.0,0.0,2.6062,0.0,0.0,0.0,0.0,0.0,0.0,2.1923,0.0,0.0,0.0,0.0,0.0,0.0,0.0,0.0,0.0,0.0,0.0,2.5828,2.6111,2.6993,2.8725,2.8525,2.8538,2.8942,2.9698,3.0167,3.0245,3.1203,3.2082,3.2835,3.276,3.3119,3.3807,3.3807,3.3807,3.3844,3.4656,3.5023,3.5169,3.6817,3.7529,3.7621,3.8395,3.8726,3.8744,3.8707,3.9239,4.0065,2.0456,2.097,2.1255,2.0971,2.2061,0.0,0.0,2.6025,0.0,0.0,0.0,0.0,0.0,3.732,3.7941,0.0,0.0,3.6434,3.4711,3.1825,0.0,0.0,0.0,2.5147,0.0,0.0,0.0,0.0,0.0,1.8629,1.8904,1.9153,2.0034,2.1418,2.307,2.5331,0.0,0.0,0.0,0.0,0.0,3.1967,3.3988,0.0,0.0,3.1262,3.0702,2.9998,0.0,2.9272,2.9765,3.0427,3.0498,3.0812,3.1211,3.1552,3.1453,0.0,0.0,0.0,3.1038,2.8802,0.0,0.0,0.0,0.0,0.0,0.0,0.0,0.0,0.0,0.0,0.0,2.2648,0.0,0.0,0.0,0.0,0.0,0.0,0.0,0.0,0.0,0.0,0.0,2.4428,2.5538,2.6838,0.0,2.8995,2.9337,2.9303,2.9793,3.0033,3.0058,3.0363,3.1256,3.2723,3.2678,3.3031,3.3807,3.3807,3.3807,3.3825,3.41,3.4853,3.5899,3.6468,3.7331,3.8322,3.8597,3.8707,3.8707,3.8707,3.9203,4.001,2.1391,2.1602,2.1721,2.1447,0.0,0.0,0.0,0.0,0.0,0.0,3.3128,0.0,3.834,0.0,3.9504,0.0,3.9415,3.7871,3.5624,3.3733,0.0,3.1612,2.9198,0.0,0.0,0.0,0.0,0.0,0.0,2.0611,2.0611,2.0849,2.1565,2.2694,2.3731,2.604,2.9189,3.0046,3.0912,0.0,0.0,3.2733,0.0,0.0,3.2845,3.1989,0.0,3.035,2.9695,2.9654,2.9983,3.0464,3.0873,3.1068,3.1283,3.1962,3.1925,3.1735,3.1989,3.2039,0.0,2.9941,2.9115,0.0,2.6266,0.0,0.0,0.0,0.0,0.0,0.0,0.0,0.0,2.3437,2.2501,0.0,0.0,1.8665,0.0,0.0,0.0,0.0,0.0,0.0,2.3351,2.4605,2.5176,2.6336,0.0,0.0,2.9362,2.9219,2.9699,2.9843,2.9594,3.0167,3.1078,3.228,3.2511,3.3023,3.3807,3.3807,3.3807,3.3807,3.3807,3.4509,3.5688,3.6131,3.7014,3.8097,3.8533,3.8707,3.8707,3.8707,3.9386,4.0487,2.3006,2.2446,2.2216,0.0,2.4318,0.0,0.0,0.0,2.9629,0.0,3.3036,3.5293,3.8579,3.9606,4.0377,4.115,4.1187,3.9863,3.6798,3.5665,0.0,0.0,3.1697,3.0705,3.1532,0.0,0.0,0.0,0.0,0.0,2.3098,2.2308,2.273,2.419,2.419,0.0,2.9244,3.0002,3.1804,3.4099,3.4099,3.4136,3.4185,3.4124,0.0,3.2748,3.1869,3.1088,3.0429,3.0383,3.0431,3.0655,3.1446,3.1228,3.098,3.2551,3.25,3.2068,3.2771,3.2933,3.2471,3.0825,0.0,0.0,0.0,0.0,2.8455,0.0,0.0,0.0,0.0,0.0,0.0,2.4208,2.2859,0.0,0.0,0.0,0.0,0.0,0.0,0.0,0.0,2.1333,2.2082,2.5978,2.4919,2.5517,0.0,0.0,0.0,2.8694,2.947,2.9562,2.8858,3.0558,3.1452,3.155,3.226,3.3023,3.3807,3.3807,3.3807,3.3807,3.3807,3.4089,3.4648,3.5795,3.6535,3.7049,3.8188,3.8645,3.8698,3.8747,3.979,4.137,2.3116,2.3804,2.453,0.0,2.4135,2.4428,0.0,0.0,0.0,0.0,3.6431,3.867,4.1901,4.2502,4.272,4.2872,4.239,0.0,0.0,0.0,0.0,3.7525,3.3962,3.2107,3.2385,2.9161,0.0,2.688,0.0,0.0,2.4768,2.3961,2.3804,2.419,2.419,2.6029,2.9141,2.94,3.1309,3.4173,3.4074,3.4036,0.0,0.0,3.3779,3.3437,3.2667,3.1888,3.1219,3.1207,3.1593,3.2054,3.1786,3.2341,3.3087,3.3022,3.328,3.3621,3.3814,3.3809,3.3506,3.2428,3.1666,3.0833,0.0,0.0,0.0,0.0,0.0,0.0,0.0,0.0,0.0,0.0,0.0,0.0,0.0,0.0,0.0,0.0,0.0,0.0,0.0,2.0573,2.1798,2.285,2.3664,0.0,0.0,0.0,0.0,2.8608,2.9412,2.9733,2.9546,3.001,3.0945,3.2315,3.2504,3.3023,3.3807,3.3807,3.3807,3.3807,3.3807,3.4414,3.5408,3.5735,3.6429,3.7381,3.7684,3.8133,3.869,3.9341,4.0616,4.2047,2.4135,2.5338,0.0,2.6458,0.0,0.0,2.9102,0.0,0.0,3.5752,3.7698,0.0,4.168,4.2906,4.3531,4.3496,4.3108,0.0,4.1313,0.0,0.0,3.8272,3.6336,3.4959,3.4283,3.174,0.0,2.8319,0.0,0.0,2.4879,2.441,2.4006,2.3694,2.4043,2.5625,2.8161,2.9964,3.1855,3.3647,3.3863,0.0,0.0,3.3934,3.3895,3.3826,3.3379,3.2691,3.1973,3.1973,3.2071,3.2109,3.1733,3.2249,3.2902,3.2506,3.301,3.3751,3.4068,3.4136,3.3988,3.3475,3.2957,3.2238,3.1041,3.1097,3.0944,0.0,0.0,0.0,0.0,0.0,0.0,0.0,0.0,0.0,0.0,0.0,0.0,0.0,0.0,0.0,0.0,0.0,2.1926,0.0,0.0,0.0,0.0,0.0,0.0,2.8215,2.987,3.0518,2.997,3.0689,3.1568,3.2601,3.2798,3.3214,3.3807,3.3807,3.3721,3.3578,3.3578,3.4211,3.5237,3.5422,3.6183,3.7265,3.7432,3.8183,3.922,3.9715,4.0672,4.1814,2.5411,2.6788,0.0,0.0,0.0,0.0,0.0,3.2223,0.0,3.6376,0.0,3.9606,4.0302,4.2231,4.3515,4.3515,0.0,4.2615,4.0506,4.1479,4.0891,3.8098,3.834,3.7845,3.6321,3.4541,0.0,0.0,0.0,0.0,2.419,2.419,2.3768,2.3043,2.3841,0.0,0.0,3.0955,3.2724,3.3105,3.367,3.3972,3.4074,3.3934,3.3921,3.3972,3.3908,3.3414,3.2761,3.2761,3.234,3.1771,3.1691,3.1813,3.1952,3.1794,3.242,3.327,3.3914,3.4086,3.4086,3.4086,3.3998,3.3526,3.2139,3.1759,3.1311,2.9922,2.8906,0.0,0.0,0.0,0.0,0.0,0.0,0.0,0.0,0.0,0.0,0.0,0.0,0.0,0.0,0.0,0.0,0.0,0.0,0.0,0.0,0.0,0.0,0.0,3.0552,0.0,3.0687,0.0,3.2694,3.286,3.3164,3.3451,3.3734,3.3793,3.3652,3.3364,3.3429,3.391,3.4708,3.5102,3.5879,3.686,3.7208,3.8264,3.9582,3.9582,4.0113,4.1027,2.5521,0.0,0.0,0.0,0.0,3.3091,3.5128,3.6578,3.7863,3.9111,4.124,4.2708,4.2837,4.3258,4.3515,4.3515,4.3515,0.0,0.0,0.0,0.0,4.0506,3.8689,3.7272,3.6321,3.4009,3.1867,0.0,0.0,0.0,2.419,2.419,2.3768,2.3043,0.0,0.0,2.8813,3.079,0.0,3.3883,3.3839,3.3895,3.3998,3.3868,3.3815,3.3829,3.3881,3.3789,3.3679,3.3679,3.3548,3.3283,3.2672,3.2968,3.3381,3.2767,3.3179,3.3851,3.3986,3.4023,3.4023,3.4023,3.3959,3.3821,3.3545,3.3437,3.3293,3.3018,3.1788,3.0607,3.0099,0.0,0.0,0.0,0.0,0.0,0.0,0.0,0.0,0.0,0.0,0.0,0.0,0.0,0.0,0.0,0.0,0.0,0.0,0.0,0.0,0.0,0.0,0.0,0.0,0.0,0.0,3.4171,3.3571,3.3335,3.3394,3.368,3.378,3.373,3.4119,3.4559,3.5048,3.5451,3.5935,3.6409,3.6492,3.7089,3.7905,3.7905,3.8773,4.0219,0.0,0.0,0.0,0.0,0.0,0.0,0.0,3.9882,0.0,4.001,4.091,4.1625,4.1625,4.2762,4.3515,4.3515,4.3515,4.3515,4.3515,4.2378,4.1535,4.1113,3.9588,0.0,3.696,3.533,3.3109,3.021,0.0,0.0,0.0,0.0,2.3144,2.2464,0.0,2.656,0.0,0.0,0.0,3.345,3.4136,3.4228,3.3989,3.4293,3.4169,3.3929,3.4437,3.4334,3.3947,3.3947,3.3934,3.3747,3.2956,3.3276,3.3799,3.2937,3.332,3.3998,3.3959,3.3972,3.4011,3.4049,3.3998,3.3947,3.3947,3.3895,3.3718,3.3275,3.2559,3.1641,3.043,2.8576,0.0,0.0,0.0,0.0,0.0,0.0,0.0,0.0,0.0,0.0,0.0,0.0,0.0,0.0,0.0,0.0,0.0,0.0,0.0,0.0,0.0,0.0,0.0,0.0,0.0,3.3882,3.3134,3.2876,3.3063,3.3394,3.3451,3.3309,3.3957,3.4472,3.4888,3.5706,3.6139,3.6301,3.6301,3.7025,3.8082,3.8082,3.9031,4.0464,0.0,3.0999,0.0,0.0,3.5716,0.0,3.9606,4.1954,4.2817,4.091,4.0671,4.0671,4.0671,4.2376,4.3515,4.3515,4.3515,4.3441,4.3259,4.2488,4.1699,4.0875,4.0065,3.8964,3.7529,3.6886,3.4724,0.0,0.0,0.0,0.0,0.0,0.0,0.0,0.0,0.0,0.0,0.0,3.3708,3.3613,3.4821,3.4963,3.4515,3.5083,3.4917,3.4489,3.5053,3.484,3.4231,3.4066,3.4011,3.3874,3.3196,3.3461,3.3843,3.3107,3.3403,3.3959,3.3895,3.3921,3.3985,3.4049,3.4036,3.3998,3.3985,3.3934,3.3703,3.3012,3.2711,3.2118,3.0515,2.9304,0.0,0.0,0.0,0.0,0.0,0.0,0.0,0.0,0.0,0.0,0.0,0.0,0.0,0.0,0.0,0.0,0.0,0.0,0.0,0.0,0.0,3.2314,3.2477,0.0,3.331,0.0,3.2625,3.2437,3.2716,3.3047,3.3137,3.31,3.3819,3.4447,3.5042,3.5925,3.6301,3.6339,3.6582,3.7374,3.8392,3.8659,3.9553,4.0613,0.0,0.0,0.0,0.0,0.0,0.0,0.0,4.1954,4.3423,4.3203,4.3166,4.3166,4.3166,4.3368,4.3515,4.3515,4.3515,4.3185,4.2451,4.1645,4.0855,4.0047,3.9239,3.8395,3.7529,3.7437,3.6097,0.0,0.0,0.0,0.0,0.0,0.0,0.0,0.0,0.0,0.0,3.3776,3.4818,3.615,3.6247,3.6261,3.6261,3.6195,3.6152,3.6001,3.5358,3.511,3.4989,3.4326,3.4049,3.3998,3.3906,3.3924,3.3967,3.3815,3.3839,3.3895,3.3834,3.3873,3.3908,3.3908,3.3959,3.3985,3.3921,3.3895,3.3863,3.3728,3.3109,3.2131,3.0587,3.0717,3.0625,0.0,0.0,0.0,0.0,0.0,0.0,0.0,0.0,0.0,0.0,0.0,0.0,0.0,0.0,0.0,0.0,0.0,0.0,2.844,0.0,3.0909,3.2047,3.2583,0.0,3.3459,3.2686,3.2318,3.2369,3.27,3.3221,3.3905,3.4358,3.5163,3.6136,3.627,3.6301,3.6412,3.7493,3.7791,3.7728,3.8835,3.9473,3.9802,0.0,0.0,0.0,0.0,0.0,0.0,0.0,4.289,4.3515,4.3515,4.3515,4.3515,4.3515,4.3515,4.3515,4.3515,4.3515,4.3149,4.2359,4.1535,4.0744,3.9953,3.9129,3.856,3.823,3.7749,3.6505,0.0,0.0,0.0,0.0,0.0,0.0,0.0,0.0,3.2327,3.4021,3.5478,3.6237,3.6426,3.6374,3.637,3.6426,3.6346,3.5973,3.555,3.5786,3.5243,3.4386,3.414,3.4049,3.4061,3.4061,3.4036,3.3998,3.3972,3.3895,3.3842,3.3873,3.3842,3.3842,3.3881,3.3921,3.3947,3.3959,3.3934,3.3895,3.3908,3.3624,3.318,3.2524,3.185,3.1385,0.0,0.0,0.0,0.0,0.0,0.0,0.0,0.0,0.0,0.0,0.0,0.0,0.0,0.0,0.0,0.0,0.0,0.0,2.8652,0.0,3.2551,3.3482,3.3994,3.3966,3.3441,3.291,3.2418,3.2002,3.2335,3.3193,3.4412,3.5261,3.6012,3.6658,3.6658,3.6658,3.6728,3.7467,3.791,3.8276,3.9197,3.9915,4.0429,3.9399,0.0,3.8726,0.0,4.0964,4.0951,4.3147,4.3515,4.3515,4.3515,4.3515,4.3515,4.3515,4.3515,4.3515,4.3515,4.3515,4.3149,4.2359,4.1772,4.1001,3.9937,3.935,0.0,3.8707,3.8138,3.7276,3.6087,3.366,0.0,0.0,0.0,0.0,0.0,3.3469,3.4664,3.5528,3.7184,3.757,3.7098,3.704,3.7055,3.7098,3.703,3.6633,3.6105,3.6305,3.5616,3.4531,3.4113,3.3998,3.4049,3.4061,3.4036,3.3998,3.3972,3.3895,3.3847,3.3855,3.3847,3.382,3.3855,3.3881,3.3908,3.3934,3.3934,3.3934,3.3959,3.3908,3.3855,3.3829,3.2865,3.2248,0.0,0.0,0.0,0.0,0.0,0.0,0.0,2.7051,2.6528,2.621,0.0,0.0,0.0,0.0,0.0,0.0,0.0,0.0,0.0,0.0,0.0,0.0,3.4575,3.4459,3.3424,3.2943,3.2515,3.2163,3.2838,3.3749,3.485,3.5965,3.6637,3.69,3.7036,3.7158,3.7319,3.7962,3.8512,3.9031,3.991,4.051,4.0912,4.0854,4.1264,4.1812,4.3302,4.3543,4.3528,4.3496,4.3515,4.3515,4.3515,4.3515,4.3515,4.3515,4.3515,4.3515,4.3515,4.3515,4.3149,4.2359,4.2286,4.157,0.0,0.0,3.9515,3.8726,3.8689,3.8689,3.867,0.0,0.0,3.4857,0.0,3.2766,3.5142,3.516,3.6505,3.8752,3.877,3.8788,3.877,3.877,3.877,3.8755,3.8701,3.867,3.845,3.6872,3.6285,3.6024,3.4439,3.3895,3.3908,3.3985,3.3998,3.3985,3.3921,3.3895,3.3881,3.3815,3.3807,3.3807,3.3807,3.3842,3.3881,3.382,3.3895,3.3985,3.3908,3.386,3.3815,3.3881,3.3842,3.3553,3.2902,0.0,0.0,0.0,0.0,0.0,0.0,2.6129,2.6111,2.6093,0.0,0.0,0.0,0.0,0.0,0.0,0.0,0.0,2.9194,3.142,0.0,3.204,3.3671,3.4167,3.3495,3.2687,3.2509,3.2938,3.4456,3.5183,3.5255,3.6389,3.69,3.6939,3.7339,3.7743,3.8204,3.9402,3.9799,3.9836,4.1036,4.1237,4.0912,4.2853,4.3012,4.3178,4.3644,4.3736,4.3686,4.3513,4.3515,4.3515,4.3515,4.3515,4.3515,4.3515,4.3515,4.3515,0.0,4.3515,4.3149,0.0,4.2304,4.1827,4.0763,4.0194,3.9772,3.9515,3.8982,3.8707,3.8707,0.0,0.0,0.0,3.5119,3.5804,3.7646,3.7625,3.8048,3.8807,3.875,3.8765,3.8737,3.8158,3.8283,3.8718,3.8128,3.7533,3.7074,3.7125,3.6042,3.4596,3.4628,3.4293,3.3842,3.3908,3.3934,3.3934,3.3959,3.3895,3.3847,3.3855,3.3829,3.3807,3.3807,3.382,3.3847,3.3855,3.3934,3.3972,3.3873,3.3842,3.3855,3.3847,3.3802,3.3576,3.2858,0.0,0.0,0.0,0.0,0.0,0.0,2.6912,2.6999,0.0,2.7424,0.0,0.0,0.0,0.0,0.0,0.0,0.0,0.0,3.3176,0.0,3.493,3.6002,3.6043,3.5058,3.4528,3.4073,3.3749,3.4749,3.5197,3.5272,3.6407,3.7055,3.7356,3.804,3.8562,3.9012,3.9888,4.0207,4.0258,4.0862,4.0995,4.0912,4.3771,4.382,4.3837,4.3804,4.3804,4.3719,4.3532,4.3515,4.3515,4.3515,4.3515,4.3515,4.3515,4.3515,0.0,4.3515,4.3515,4.3277,4.2782,4.2745,4.2396,4.1589,4.1075,4.0653,4.0359,0.0,0.0,3.9148,3.7845,3.7202,3.7202,3.7228,3.7805,3.8807,3.8765,3.8765,3.8792,3.8719,3.8719,3.871,3.8168,3.8294,3.871,3.8168,3.7643,3.7221,3.7437,3.6317,3.4761,3.4931,3.4472,3.382,3.3842,3.4076,3.4273,3.4026,3.3881,3.382,3.3842,3.3829,3.3862,3.4192,3.4252,3.4279,3.4328,3.4626,3.4681,3.3989,3.4099,3.4209,3.3857,3.3807,3.3545,3.2794,0.0,3.1773,2.9819,0.0,0.0,0.0,0.0,0.0,0.0,2.8154,0.0,0.0,0.0,0.0,0.0,0.0,0.0,3.1996,3.4535,0.0,3.6292,3.6791,3.6628,3.5795,3.5384,3.4956,3.4545,3.5242,3.5587,3.5625,3.6469,3.6941,3.7207,3.7948,3.8453,3.881,3.9353,3.9777,4.0157,4.0366,4.0653,4.0912,4.3753,4.3835,0.0,0.0,4.3788,0.0,4.3532,4.3515,4.3515,4.3515,4.3515,4.3515,4.3515,4.3515,4.3515,4.3515,0.0,0.0,0.0,4.3515,4.313,4.2341,4.2304,0.0,4.104,4.0286,3.9863,3.9808,3.9074,3.8707,3.8707,3.8762,3.8792,3.8792,3.8792,3.8792,3.8792,3.8719,3.8707,3.8707,3.8707,3.8707,3.8707,3.8707,3.867,3.8524,3.7841,3.7033,3.6174,3.5426,3.4637,3.3972,3.3972,3.4504,3.4926,3.4126,3.3934,3.3954,3.3899,3.3935,3.4156,3.4894,3.5096,3.511,3.5179,3.5721,3.5803,3.436,3.4527,3.4711,3.4009,3.3844,3.3513,3.2656,3.2629,3.1995,3.0,0.0,0.0,0.0,0.0,0.0,0.0,2.8573,2.9676,0.0,0.0,0.0,0.0,0.0,3.1978,3.4009,3.5526,3.6328,3.6346,3.6346,3.6183,3.5845,3.5451,3.5266,3.5301,3.5924,3.6187,3.6208,3.6519,3.6643,3.6641,3.728,3.772,3.8044,3.8193,3.8889,3.9813,3.979,4.025,4.0912,0.0,0.0,4.3684,4.3651,4.3651,4.3599,4.3515,4.3515,4.3515,4.3515,4.3515,4.3515,4.3515,4.3515,4.3515,4.3515,4.3515,4.3515,4.3515,4.3515,4.313,4.2341,4.2304,4.1644,4.0212,3.9992,3.9588,3.8982,3.8799,3.8707,3.8707,3.8723,3.8719,3.8719,3.8719,3.8719,3.8719,3.8707,3.8719,3.8777,3.8777,3.8777,3.8777,3.8777,3.8364,3.7841,3.8267,3.7496,3.6358,3.6776,3.6358,3.573,3.5768,3.5887,3.5716,3.4256,3.472,3.555,3.4894,3.5202,3.5752,3.5936,3.5991,3.5991,3.6005,3.5642,3.5404,3.567,3.4848,3.4211,3.4637,3.4211,3.333,3.1898,3.2205,3.1748,2.9237,2.9885,0.0,0.0,2.9234,2.9444,2.9253,2.9325,2.9242,0.0,0.0,0.0,0.0,0.0,3.3948,3.4796,3.5846,3.6487,3.6754,3.6772,3.6558,3.6191,3.6105,3.6042,3.6042,3.6211,3.6255,3.6187,3.6276,3.643,3.6673,3.7411,3.8335,3.9295,3.9585,4.0259,4.1049,4.0718,4.0739,4.0912,4.3582,4.3599,4.3599,4.3599,4.3599,4.3565,4.3515,4.3515,4.3515,4.3515,4.3515,4.3515,4.3515,4.3515,4.3515,4.3515,4.3515,4.3515,4.3515,4.3515,4.3296,4.2873,4.2837,4.2433,4.1568,4.1185,4.0414,3.9239,3.9239,3.9056,3.8707,3.8707,3.8707,3.8707,3.8707,3.8707,3.8707,3.8707,3.8719,3.8747,3.8747,3.8747,3.8747,3.8747,3.8459,3.8102,3.8542,3.79,3.6923,3.7345,3.6978,3.6317,3.6328,3.6585,3.6611,3.5312,3.5587,3.6193,3.5734,3.5936,3.6376,3.6758,3.7129,3.7294,3.6927,3.678,3.6619,3.6358,3.5862,3.5385,3.5059,3.4637,3.3697,3.1727,3.177,3.1279,2.9095,2.9753,0.0,3.0014,3.0757,3.1216,3.102,3.1611,3.1519,3.0378,0.0,0.0,3.2613,3.5347,3.6532,3.5686,3.6291,3.6708,3.69,3.6719,3.6533,3.6301,3.6301,3.6301,3.6301,3.6276,3.6191,3.6101,3.6101,3.611,3.6195,3.6817,3.7443,3.8035,3.8307,3.8947,3.9678,3.9813,4.0066,4.0411,4.3565,4.3582,4.3582,4.3582,4.3582,4.3565,4.3515,4.3515,4.3515,4.3515,4.3515,4.3515,4.3515,4.3515,4.3515,4.3515,4.3515,4.3515,4.3515,4.3515,4.346,4.3331,4.3441,4.3404,4.313,4.247,4.1387,3.99,3.99,3.9478,3.8707,3.8707,3.8707,3.8707,3.8707,3.8707,3.8707,3.8707,3.8707,3.8723,3.8723,3.8723,3.8723,3.8723,3.8723,3.8707,3.8707,3.8267,3.7676,3.7676,3.7235,3.6652,3.6652,3.7144,3.7547,3.6853,3.6652,3.6633,3.6505,3.656,3.6817,3.7511,3.8193,3.856,3.7988,3.8285,3.8358,3.7092,3.7199,3.7019,3.5406,3.5007,3.4128,3.1724,3.1431,3.0949,2.9409,0.0,3.0671,3.1347,3.2552,3.3199,3.2879,3.4199,3.4429,3.2862,3.5199,0.0,0.0,3.7649,3.8622,3.663,3.6955,3.7062,3.6801,3.6471,3.6301,3.6301,3.6301,3.6301,3.6301,3.6251,3.6144,3.5997,3.5997,3.5844,3.5622,3.5993,3.6148,3.619,3.6384,3.6956,3.7771,3.8474,3.9163,3.9819,4.3496,4.3532,4.3532,4.3532,4.3532,4.3496,4.3515,4.3515,4.3515,4.3515,4.3515,4.3515,4.3515,4.3515,4.3515,4.3515,4.3515,4.3515,4.3515,4.3515,4.3185,4.2525,4.313,4.2855,4.1515,4.1352,4.0836,3.99,3.99,3.9478,3.8707,3.8707,3.8707,3.8707,3.8707,3.8707,3.8707,3.8707,3.8735,3.8777,3.8777,3.8777,3.8777,3.8777,3.875,3.8707,3.8707,3.8615,3.8505,3.8505,3.8432,3.834,3.834,3.8414,3.8487,3.8358,3.834,3.8175,3.7511,3.7808,3.8358,3.8487,3.8615,3.8854,3.9386,3.9093,3.8817,3.9239,3.8374,3.7106,3.583,3.5042,3.3793,3.137,3.1547,3.1519,3.021,0.0,3.3464,3.4257,3.5175,3.574,3.5758,3.5047,3.4644,3.4748,3.5153,3.5562,3.5922,3.7176,3.7861,3.7824,3.8206,3.7766,3.6406,3.6343,3.6301,3.6301,3.6301,3.6301,3.6301,3.628,3.6191,3.5997,3.5997,3.5844,3.5622,3.5795,3.628,3.6932,3.7087,3.7683,3.8508,3.925,3.9595,3.9819,4.3515,4.3515,4.3515,4.3515,4.3515,4.3515,4.3515,4.3515,4.3515,4.3515,4.3515,4.3515,4.3515,4.3515,4.3515,4.3515,4.3515,4.3515,4.3515,4.3515,4.3331,4.2947,4.3313,4.3149,4.2415,4.2396,4.1992,4.1185,4.0763,4.0139,3.9331,3.8909,3.8927,3.935,3.935,3.9588,3.9976,3.9976,3.9751,3.9393,3.9393,3.9136,3.875,3.875,3.8719,3.8707,3.8707,3.8707,3.8707,3.8707,3.8707,3.8707,3.8707,3.8707,3.8707,3.8707,3.8707,3.8615,3.8248,3.8414,3.8707,3.8707,3.8707,3.8753,3.8907,3.915,3.9218,3.8714,3.8709,3.8285,3.6642,3.5688,3.464,3.3096,3.2277,0.0,0.0,3.3049,3.4449,3.523,3.6631,3.7551,3.7564,3.6893,3.6324,3.6093,3.6266,3.627,3.5991,3.7348,3.8043,3.7781,3.8156,3.771,3.6301,3.6301,3.6301,3.6301,3.6301,3.6301,3.6301,3.6301,3.6195,3.5997,3.5997,3.5844,3.5622,3.5734,3.6088,3.6527,3.6658,3.7231,3.8116,3.8836,3.9353,3.9819,4.3515,4.3515,4.3515,4.3515,4.3515,4.3515,4.3515,4.3515,4.3515,4.3515,4.3515,4.3515,4.3515,4.3515,4.3515,4.3515,4.3515,4.3515,4.3515,4.3515,4.3515,4.3515,4.3515,4.3515,4.3515,4.3515,4.3112,4.2304,4.148,4.0689,3.9879,3.9074,3.9129,3.99,3.99,4.0359,4.1095,4.1095,4.0653,3.99,3.99,3.9423,3.8707,3.8707,3.8707,3.8707,3.8707,3.8707,3.8707,3.8707,3.8707,3.8707,3.8707,3.8707,3.8744,3.8927,3.9111,3.9184,3.8799,3.8707,3.8707,3.8707,3.8836,3.8925,3.8693,3.95,3.9917,3.8599,3.9138,3.9337,3.7636,3.6519,3.5598,3.4794,0.0,0.0,0.0,3.4528,3.5683,3.6604,3.8155,3.9118,3.9011,3.8694,3.8119,3.7292,3.7545,3.7357,3.6422,3.7692,3.8048,3.7215,3.7673,3.7436,3.6301,3.649,3.649,3.6301,3.649,3.6473,3.6301,3.6301,3.6195,3.6041,3.6019,3.5866,3.5644,3.5773,3.5861,3.5988,3.6311,3.687,3.7572,3.8508,3.9198,3.9819,4.3515,4.3515,4.3515,4.3515,4.3515,4.3515,4.3515,4.3515,4.3515,4.3515,4.3515,4.3515,4.3515,4.3515,4.3515,4.3515,4.3515,4.3515,4.3515,4.3515,4.3515,4.3515,4.3515,4.3515,4.3515,4.3515,4.3112,4.2304,4.148,4.0689,3.9879,3.9074,3.9129,3.99,3.99,4.0359,4.1095,4.1095,4.0653,3.99,3.99,3.9423,3.8707,3.8707,3.8707,3.8707,3.8707,3.8707,3.8707,3.8707,3.8707,3.8707,3.8707,3.8707,3.8854,3.9588,4.0341,4.06,3.9111,3.8707,3.8707,3.8707,3.9258,3.9877,4.0182,4.089,4.1341,4.0849,4.0238,3.9545,3.8723,3.7363,3.6094,3.5273,0.0,0.0,3.5437,3.6837,3.8375,3.986,4.0518,4.0677,4.0305,3.9854,3.9261,3.8518,3.8493,3.8476,3.838,3.7871,3.7189,3.6328,3.7111,3.7137,3.6301,3.7025,3.7025,3.6301,3.7042,3.7008,3.6301,3.6301,3.6255,3.6182,3.6041,3.591,3.5795,3.5795,3.5795,3.5907,3.6855,3.7252,3.7497,3.9055,3.9646,3.9819,4.3515,4.3515,4.3515,4.3515,4.3515,4.3515,4.3515,4.3515,4.3515,4.3515,4.3515,4.3515,4.3515,4.3515,4.3515,4.3515,4.3515,4.3515,4.3515,4.3515,4.3515,4.3515,4.3515,4.3515,4.3515,4.3515,4.3349,4.3039,4.2249,4.1442,4.0634,3.9827,3.9606,3.9918,4.0414,4.1093,4.1882,4.2378,4.2121,4.1332,4.0855,4.0157,3.9386,3.8891,3.8707,3.8707,3.8707,3.8707,3.8707,3.8707,3.8707,3.8799,3.9294,3.9441,3.9606,4.0414,4.0857,4.0967,4.0343,4.0178,4.0178,4.0178,4.0432,4.061,4.049,4.1286,4.1705,4.057,4.0645,4.0614,3.9634,3.8351,3.7503,3.7658,0.0,3.6696,3.7782,3.8924,3.9949,4.0738,4.1622,4.189,4.1161,4.0499,3.9916,3.9324,3.8853,3.8594,3.8594,3.7909,3.7353,3.7016,3.6831,3.659,3.6251,3.659,3.6594,3.6301,3.6611,3.6853,3.7042,3.6956,3.6869,3.6794,3.7087,3.6695,3.5829,3.6288,3.6587,3.6776,3.7139,3.7914,3.886,3.9468,4.0008,4.0498,4.3515,4.3515,4.3515,4.3515,4.3515,4.3515,4.3515,4.3515,4.3515,4.3515,4.3515,4.3515,4.3515,4.3515,4.3515,4.3515,4.3515,4.3515,4.3515,4.3515,4.3515,4.3515,4.3515,4.3515,4.3515,4.3515,4.3515,4.3515,4.269,4.2029,4.1462,4.0653,4.0414,4.0671,4.0983,4.1535,4.2341,4.2892,4.2506,4.1515,4.1205,4.0469,3.946,3.8909,3.8707,3.8707,3.8707,3.8707,3.8707,3.8707,3.8872,3.9166,3.9717,4.0249,4.0708,4.1003,4.1462,4.1809,4.1535,4.1645,4.1735,4.1224,4.1279,4.1361,4.0943,4.1704,4.2122,4.0875,4.1058,4.1318,4.0916,3.9752,3.9093,3.9855,3.892,3.8567,3.986,4.056,4.1126,4.1618,4.2386,4.2518,4.1583,4.1038,4.0564,4.0107,3.9618,3.9221,3.8957,3.8456,3.7956,3.7447,3.6935,3.6616,3.6482,3.684,3.6762,3.6195,3.6939,3.7361,3.7447,3.7556,3.7569,3.7541,3.7859,3.7296,3.6203,3.6956,3.7257,3.7261,3.7813,3.8688,3.9686,3.9991,4.0446,4.0912,4.3515,4.3515,4.3515,4.3515,4.3515,4.3515,4.3515,4.3515,4.3515,4.3515,4.3515,4.3515,4.3515,4.3515,4.3515,4.3515,4.3515,4.3515,4.3515,4.3515,4.3515,4.3515,4.3515,4.3515,4.3515,4.3515,4.3515,4.3515,4.269,4.2304,4.2286,4.148,4.1534,4.2268,4.1462,4.1535,4.2304,4.2304,4.1387,3.9992,4.0799,4.0141,3.8726,3.8707,3.8707,3.8726,3.8707,3.8707,3.8707,3.8726,3.9239,3.99,3.99,4.102,4.2158,4.1352,4.2249,4.3331,4.2525,4.2892,4.3112,4.1517,4.1735,4.2184,4.1724,4.2285,4.2769,4.2318,4.1629,4.1465,4.2681,4.1597,4.0763,4.156,4.1035,4.0781,4.1579,4.1687,4.1995,4.281,4.2882,4.2536,4.1583,4.1494,4.1333,4.0918,4.0912,4.0567,3.975,3.9698,3.8963,3.7372,3.7447,3.7381,3.7098,3.8086,3.7708,3.6048,3.838,3.874,3.7355,3.7934,3.8277,3.8385,3.812,3.7602,3.6973,3.7795,3.7676,3.7189,3.8911,3.9611,3.9697,4.0571,4.0912,4.0912,4.3608,4.3515,4.3515,4.3515,4.3515,4.3515,4.3515,4.3515,4.3515,4.3515,4.3515,4.3515,4.3515,4.3515,4.3515,4.3515,4.3515,4.3515,4.3515,4.3515,4.3515,4.3515,4.3515,4.3515,4.3515,4.3515,4.3515,4.3515,4.3259,4.2837,4.2286,4.2047,4.1772,4.1462,4.1809,4.2084,4.2341,4.2892,4.2855,4.2413,4.2066,4.1662,4.1111,3.9974,3.99,4.0306,3.9735,3.9533,3.9625,4.0194,4.0175,4.01,4.1222,4.2286,4.3075,4.2837,4.3112,4.346,4.3221,4.3331,4.3386,4.2892,4.2947,4.3113,4.2973,4.3139,4.3268,4.3142,4.272,4.2479,4.2846,4.2237,4.1773,4.2006,4.1862,4.1791,4.2024,4.2042,4.2149,4.2382,4.2418,4.2157,4.1561,4.1494,4.1333,4.0918,4.0912,4.0808,4.0567,4.0008,3.9468,3.8997,3.8413,3.8065,3.7866,3.7734,3.7653,3.7547,3.8253,3.8636,3.8779,3.886,3.8932,3.899,3.9314,3.8805,3.7738,3.8638,3.8914,3.8819,3.9428,4.0037,4.0537,4.0802,4.084,4.0769,4.4544,4.4176,4.3975,4.3975,4.3699,4.3515,4.3515,4.3515,4.3515,4.3515,4.3515,4.3515,4.3515,4.3515,4.3515,4.3515,4.3515,4.3515,4.3515,4.3515,4.3515,4.3515,4.3515,4.3515,4.3515,4.3515,4.3515,4.3515,4.3515,4.324,4.2763,4.2763,4.2525,4.2066,4.2213,4.2304,4.2323,4.2818,4.2837,4.2543,4.2378,4.2121,4.1717,4.0744,4.0689,4.104,4.0561,4.0377,4.0451,4.093,4.1001,4.1075,4.2359,4.3112,4.3515,4.3515,4.3515,4.3515,4.3515,4.3515,4.3515,4.3515,4.3515,4.3515,4.3515,4.3515,4.3515,4.3515,4.3304,4.3142,4.3142,4.292,4.2674,4.2498,4.2478,4.2418,4.2236,4.2198,4.2198,4.2198,4.2198,4.2011,4.1539,4.1494,4.1333,4.0918,4.0912,4.0912,4.0912,4.0446,4.0026,3.9715,3.9198,3.8843,3.8727,3.8345,3.8123,3.8084,3.8727,3.9133,3.9337,3.9465,3.9576,3.9659,3.996,3.9443,3.8472,3.9447,3.9679,3.9493,3.9973,4.0457,4.0912,4.0912,4.0864,4.0793,4.5902,4.5259,4.4691,4.4691,4.403,4.3533,4.3606,4.3625,4.3643,4.3717,4.3662,4.3625,4.3625,4.3551,4.3515,4.3515,4.3515,4.3515,4.3515,4.3515,4.3515,4.3515,4.3515,4.3515,4.3515,4.3515,4.3515,4.3515,4.3515,4.3515,4.3515,4.3515,4.3515,4.3478,4.2727,4.2415,4.2415,4.2415,4.1992,4.137,4.2121,4.1974,4.1297,4.1224,4.1242,4.1297,4.1224,4.1205,4.1205,4.1205,4.1754,4.2543,4.3276,4.3515,4.3515,4.3515,4.3515,4.3515,4.3515,4.3515,4.3515,4.3515,4.3515,4.3515,4.3515,4.3515,4.3515,4.3515,4.3515,4.3515,4.3515,4.3515,4.3375,4.2975,4.2863,4.2673,4.2198,4.2113,4.2074,4.2074,4.2074,4.1906,4.149,4.1445,4.1305,4.0918,4.0912,4.0912,4.0912,4.0912,4.0567,3.9819,3.9802,3.9732,3.9609,3.9609,3.9119,3.8149,3.9634,3.9973,3.9319,3.9883,4.0188,4.0288,4.0163,3.974,3.9189,4.0114,4.0099,3.9593,4.0517,4.0888,4.0912,4.0912,4.0888,4.0888,4.6012,4.5259,4.4691,4.4691,4.403,4.3699,4.4342,4.4452,4.4672,4.5296,4.4837,4.4452,4.4452,4.3883,4.3515,4.3515,4.3515,4.3515,4.3515,4.3515,4.3515,4.3515,4.3515,4.3515,4.3515,4.3515,4.3515,4.3515,4.3515,4.3515,4.3515,4.3515,4.3515,4.3496,4.3331,4.3239,4.3239,4.3239,4.313,4.2983,4.3167,4.313,4.291,4.2286,4.2433,4.2892,4.2268,4.2047,4.2047,4.2047,4.2561,4.3276,4.346,4.3515,4.3515,4.3515,4.3515,4.3515,4.3515,4.3515,4.3515,4.3515,4.3515,4.3515,4.3515,4.3515,4.3515,4.3515,4.3515,4.3515,4.3515,4.3515,4.3375,4.2975,4.2595,4.2195,4.1713,4.1373,4.1163,4.1163,4.1163,4.1157,4.1041,4.1018,4.0995,4.0912,4.0912,4.0912,4.0912,4.0912,4.0825,4.0653,4.0535,4.0463,4.0439,4.0343,4.0185,3.9934,4.0283,4.0375,4.0222,4.0245,4.0263,4.0305,4.028,4.0153,4.0042,4.0368,4.0473,4.045,4.0652,4.0817,4.0912,4.0912,4.084,4.0745,4.7131,4.6416,4.5828,4.5828,4.5186,4.4782,4.5204,4.5278,4.5424,4.5847,4.5204,4.4691,4.4691,4.3975,4.3515,4.3515,4.3515,4.3515,4.3515,4.3515,4.3515,4.3515,4.3515,4.3515,4.3515,4.3515,4.3515,4.3515,4.3515,4.3515,4.3515,4.3515,4.3515,4.3515,4.3515,4.3515,4.3515,4.3515,4.3515,4.3515,4.3515,4.3515,4.346,4.302,4.313,4.3441,4.302,4.2873,4.2873,4.2873,4.3149,4.3515,4.3515,4.3515,4.3515,4.3515,4.3515,4.3515,4.3515,4.3515,4.3515,4.3515,4.3515,4.3515,4.3515,4.3515,4.3608,4.3993,4.4066,4.4195,4.4562,4.4635,4.4309,4.3305,4.2915,4.2417,4.1358,4.1018,4.0912,4.0912,4.0912,4.0912,4.0912,4.0912,4.0912,4.0912,4.0912,4.0912,4.0912,4.0912,4.0912,4.0912,4.084,4.0793,4.0793,4.0728,4.068,4.068,4.0558,4.051,4.051,4.0436,4.0387,4.0387,4.0387,4.0387,4.0412,4.0534,4.0648,4.0697,4.0769,4.084,4.0912,4.0912,4.0864,4.0793,4.8306,4.7645,4.7094,4.7094,4.6434,4.5957,4.6085,4.6104,4.6159,4.6287,4.5608,4.5058,4.4929,4.4066,4.3515,4.3515,4.3515,4.3515,4.3515,4.3515,4.3515,4.3515,4.3515,4.3515,4.3515,4.3515,4.3515,4.3515,4.3515,4.3515,4.3515,4.3515,4.3515,4.3515,4.3515,4.3515,4.3515,4.3515,4.3444,4.3392,4.3392,4.3357,4.3286,4.3375,4.3357,4.3303,4.3444,4.3515,4.3515,4.3515,4.3515,4.3515,4.3515,4.3515,4.3515,4.3515,4.3515,4.3515,4.3515,4.3515,4.3515,4.3515,4.3606,4.3663,4.3533,4.3515,4.3718,4.4544,4.4691,4.4947,4.5755,4.5828,4.5292,4.3829,4.3511,4.2953,4.1497,4.1291,4.124,4.1101,4.0981,4.0912,4.0912,4.0912,4.0912,4.0912,4.0912,4.0912,4.0912,4.0912,4.0912,4.0912,4.0912,4.0912,4.0912,4.0912,4.0912,4.0912,4.068,4.0583,4.0583,4.0534,4.0534,4.0534,4.0534,4.0534,4.0534,4.0648,4.0721,4.0745,4.084,4.0888,4.0912,4.0912,4.0912,4.0912,4.8306,4.7645,4.7094,4.7094,4.6434,4.614,4.6819,4.6929,4.7186,4.7884,4.7259,4.6507,4.581,4.4397,4.3515,4.3515,4.3515,4.3515,4.3515,4.3515,4.3515,4.3515,4.3515,4.3515,4.3515,4.3515,4.3515,4.3515,4.3515,4.3515,4.3515,4.3515,4.3515,4.3515,4.3515,4.3515,4.3515,4.3515,4.3304,4.2976,4.2976,4.275,4.242,4.2844,4.2731,4.246,4.3232,4.3515,4.3515,4.3515,4.3515,4.3515,4.3515,4.3515,4.3515,4.3515,4.3515,4.3515,4.3515,4.3515,4.3515,4.3515,4.4011,4.436,4.3644,4.3515,4.3718,4.4544,4.4691,4.4947,4.5755,4.5567,4.51,4.4443,4.4023,4.3559,4.297,4.2896,4.2637,4.1947,4.1291,4.0912,4.0912,4.0912,4.0912,4.0912,4.0912,4.0912,4.0912,4.0912,4.0912,4.0912,4.0912,4.0912,4.0912,4.0912,4.0912,4.0912,4.0847,4.0847,4.0847,4.0721,4.0673,4.0673,4.0673,4.0673,4.0673,4.0697,4.0769,4.0847,4.0769,4.0793,4.0912,4.0912,4.0912,4.0912,4.8306,4.8012,4.7755,4.7755,4.748,4.737,4.7718,4.7755,4.7901,4.8251,4.759,4.6947,4.6599,4.5131,4.4176,4.4176,4.3754,4.3515,4.3515,4.3515,4.3515,4.3515,4.3515,4.3515,4.3515,4.3515,4.3515,4.3515,4.3515,4.3515,4.3515,4.3515,4.3515,4.3515,4.3515,4.3515,4.3515,4.3515,4.3392,4.325,4.325,4.2995,4.2614,4.2825,4.2768,4.2673,4.3268,4.3357,4.3214,4.3427,4.3515,4.3515,4.3515,4.3339,4.3214,4.3427,4.3339,4.3214,4.3427,4.3828,4.4176,4.4176,4.4782,4.5278,4.4911,4.4837,4.4929,4.5296,4.5369,4.5755,4.7021,4.6858,4.6251,4.5319,4.4774,4.4152,4.3316,4.3189,4.3069,4.2706,4.1926,4.1436,4.1509,4.1153,4.0912,4.0912,4.0912,4.0912,4.0912,4.0912,4.0912,4.0912,4.0912,4.0912,4.0912,4.0912,4.0912,4.0912,4.0912,4.0912,4.0912,4.084,4.0817,4.0817,4.0817,4.0817,4.0817,4.0817,4.084,4.0894,4.084,4.0864,4.0912,4.0912,4.0912,4.0912]}]]